[[{"header":{"parameterUnit":"m.s-1","parameterCategory":1,"la1":30.6,"la2":29.2853,"lo1":-89.7004,"lo2":-87.6739,"dy":0.0162,"dx":0.0183,"nx":112,"ny":82,"refTime":"2023-04-10T06:00:00:Z","depth":0,"parameterNumber":2,"parameterNumberName":"U-component_of_WINDS"},"data":[0.0,0.0,0.0,0.0,0.0,0.0,0.0,0.0,0.0,0.0,0.0,0.0,0.0,0.0,0.0,0.0,0.0,0.0,0.0,0.0,0.0,0.0,0.0,0.0,0.0,0.0,0.0,0.0,0.0,0.0,0.0,0.0,0.0,0.0,0.0,0.0,0.0,0.0,0.0,0.0,0.0,0.0,0.0,0.0,0.0,0.0,0.0,0.0,0.0,0.0,0.0,0.0,0.0,0.0,0.0,0.0,0.0,0.0,0.0,0.0,0.0,0.0,0.0,0.0,0.0,0.0,0.0,0.0,0.0,0.0,0.0,0.0,0.0,0.0,0.0,0.0,0.0,0.0,0.0,0.0,0.0,0.0,0.0,0.0,0.0,0.0,0.0,0.0,0.0,0.0,3.2552,3.214,3.4127,3.5864,3.6702,3.6386,3.5431,3.3885,0.0,0.0,0.0,0.0,0.0,0.0,0.0,0.0,0.0,0.0,0.0,0.0,0.0,0.0,0.0,0.0,0.0,0.0,0.0,0.0,0.0,0.0,0.0,0.0,0.0,0.0,0.0,0.0,0.0,0.0,0.0,0.0,0.0,0.0,0.0,0.0,0.0,0.0,0.0,0.0,0.0,0.0,0.0,0.0,0.0,0.0,0.0,0.0,0.0,0.0,0.0,0.0,0.0,0.0,0.0,0.0,0.0,0.0,0.0,0.0,0.0,0.0,0.0,0.0,0.0,0.0,0.0,0.0,0.0,0.0,0.0,0.0,0.0,0.0,0.0,0.0,0.0,0.0,0.0,0.0,0.0,0.0,0.0,0.0,0.0,0.0,0.0,0.0,0.0,0.0,0.0,0.0,0.0,0.0,0.0,0.0,0.0,0.0,0.0,0.0,0.0,0.0,0.0,0.0,3.046,3.274,3.4513,3.5485,3.5392,3.504,3.4108,3.2503,0.0,0.0,0.0,0.0,0.0,0.0,0.0,0.0,0.0,0.0,0.0,0.0,0.0,0.0,0.0,0.0,0.0,0.0,0.0,0.0,0.0,0.0,0.0,0.0,0.0,0.0,0.0,0.0,0.0,0.0,0.0,0.0,0.0,0.0,0.0,0.0,0.0,0.0,0.0,0.0,0.0,0.0,0.0,0.0,0.0,0.0,0.0,0.0,0.0,0.0,0.0,0.0,0.0,0.0,0.0,0.0,0.0,0.0,0.0,0.0,0.0,0.0,0.0,0.0,0.0,0.0,0.0,0.0,0.0,0.0,0.0,0.0,0.0,0.0,0.0,0.0,0.0,0.0,0.0,0.0,0.0,0.0,0.0,0.0,0.0,0.0,0.0,0.0,0.0,0.0,0.0,0.0,0.0,0.0,0.0,0.0,0.0,0.0,0.0,0.0,0.0,0.0,0.0,3.0123,2.9813,3.2866,3.2938,3.302,3.3731,3.3516,3.3069,3.2523,3.2256,0.0,0.0,0.0,0.0,0.0,0.0,0.0,0.0,0.0,0.0,0.0,0.0,0.0,0.0,0.0,0.0,0.0,0.0,0.0,0.0,0.0,0.0,0.0,0.0,0.0,0.0,0.0,0.0,0.0,0.0,0.0,0.0,0.0,0.0,0.0,0.0,0.0,0.0,0.0,0.0,0.0,0.0,0.0,0.0,0.0,0.0,0.0,0.0,0.0,0.0,0.0,0.0,0.0,0.0,0.0,0.0,0.0,0.0,0.0,0.0,0.0,0.0,0.0,0.0,0.0,0.0,0.0,0.0,0.0,0.0,0.0,0.0,0.0,0.0,0.0,0.0,0.0,0.0,0.0,0.0,0.0,0.0,0.0,0.0,0.0,0.0,0.0,0.0,0.0,0.0,0.0,0.0,0.0,0.0,0.0,0.0,0.0,0.0,0.0,0.0,0.0,0.0,3.0871,3.0071,3.2179,3.1191,3.0821,3.1844,3.1969,3.2001,3.2035,3.1488,0.0,0.0,0.0,0.0,0.0,0.0,0.0,0.0,0.0,0.0,0.0,0.0,0.0,0.0,0.0,0.0,0.0,0.0,0.0,0.0,0.0,0.0,0.0,0.0,0.0,0.0,0.0,0.0,0.0,0.0,0.0,0.0,0.0,0.0,0.0,0.0,0.0,0.0,0.0,0.0,0.0,0.0,0.0,0.0,0.0,0.0,0.0,0.0,0.0,0.0,0.0,0.0,0.0,0.0,0.0,0.0,0.0,0.0,0.0,0.0,0.0,0.0,0.0,0.0,0.0,0.0,0.0,0.0,0.0,0.0,0.0,0.0,0.0,0.0,0.0,0.0,0.0,0.0,0.0,0.0,0.0,0.0,0.0,0.0,0.0,0.0,0.0,0.0,0.0,0.0,0.0,0.0,0.0,0.0,0.0,0.0,0.0,0.0,0.0,0.0,0.0,0.0,3.0733,3.1411,3.0266,3.0271,3.0217,2.9747,3.055,3.0718,2.9787,3.007,0.0,0.0,0.0,0.0,0.0,0.0,0.0,0.0,0.0,0.0,0.0,0.0,0.0,0.0,0.0,0.0,0.0,0.0,0.0,0.0,0.0,0.0,0.0,0.0,0.0,0.0,0.0,0.0,0.0,0.0,0.0,0.0,0.0,0.0,0.0,0.0,0.0,0.0,0.0,0.0,0.0,0.0,0.0,0.0,0.0,0.0,0.0,0.0,0.0,0.0,0.0,0.0,0.0,0.0,0.0,0.0,0.0,0.0,0.0,0.0,0.0,0.0,0.0,0.0,0.0,0.0,0.0,0.0,0.0,0.0,0.0,0.0,0.0,0.0,0.0,0.0,0.0,0.0,0.0,0.0,0.0,0.0,0.0,0.0,0.0,0.0,0.0,0.0,0.0,0.0,0.0,0.0,0.0,0.0,0.0,0.0,0.0,0.0,0.0,0.0,0.0,0.0,2.8999,2.9943,0.0,3.0675,3.0972,3.175,3.1812,3.1736,3.1559,0.0,0.0,0.0,0.0,0.0,0.0,0.0,0.0,0.0,0.0,0.0,0.0,0.0,0.0,0.0,0.0,0.0,0.0,0.0,0.0,0.0,0.0,0.0,0.0,0.0,0.0,0.0,0.0,0.0,0.0,0.0,0.0,0.0,0.0,0.0,0.0,0.0,0.0,0.0,0.0,0.0,0.0,0.0,0.0,0.0,0.0,0.0,0.0,0.0,0.0,0.0,0.0,0.0,0.0,0.0,0.0,0.0,0.0,0.0,0.0,0.0,0.0,0.0,0.0,0.0,0.0,0.0,0.0,0.0,0.0,0.0,0.0,0.0,0.0,0.0,0.0,0.0,0.0,0.0,0.0,0.0,0.0,0.0,0.0,0.0,0.0,0.0,0.0,0.0,0.0,0.0,0.0,0.0,0.0,0.0,0.0,0.0,0.0,0.0,0.0,0.0,0.0,2.7598,2.8289,2.9352,0.0,3.0969,3.1441,3.3058,3.2124,3.1837,3.2736,0.0,0.0,0.0,0.0,0.0,0.0,0.0,0.0,0.0,0.0,0.0,0.0,0.0,0.0,0.0,0.0,0.0,0.0,0.0,0.0,0.0,0.0,0.0,0.0,0.0,0.0,0.0,0.0,0.0,0.0,0.0,0.0,0.0,0.0,0.0,0.0,0.0,0.0,0.0,0.0,0.0,0.0,0.0,0.0,0.0,0.0,0.0,0.0,0.0,0.0,0.0,0.0,0.0,0.0,0.0,0.0,0.0,0.0,0.0,0.0,0.0,0.0,0.0,0.0,0.0,0.0,0.0,0.0,0.0,0.0,0.0,0.0,0.0,0.0,0.0,0.0,0.0,0.0,0.0,0.0,0.0,0.0,0.0,0.0,0.0,0.0,0.0,0.0,0.0,0.0,0.0,0.0,0.0,0.0,0.0,0.0,0.0,0.0,0.0,0.0,0.0,0.0,2.7557,2.8979,3.0261,3.1129,3.0969,3.1441,3.3087,3.1072,3.0598,0.0,0.0,0.0,0.0,0.0,0.0,0.0,0.0,0.0,0.0,0.0,0.0,0.0,0.0,0.0,0.0,0.0,0.0,0.0,0.0,0.0,0.0,0.0,0.0,0.0,0.0,0.0,0.0,0.0,0.0,0.0,0.0,0.0,0.0,0.0,0.0,0.0,0.0,0.0,0.0,0.0,0.0,0.0,0.0,0.0,0.0,0.0,0.0,0.0,0.0,0.0,0.0,0.0,0.0,0.0,0.0,0.0,0.0,0.0,0.0,0.0,0.0,0.0,0.0,0.0,0.0,0.0,0.0,0.0,0.0,0.0,0.0,0.0,0.0,0.0,0.0,0.0,0.0,0.0,0.0,0.0,0.0,0.0,0.0,0.0,0.0,0.0,0.0,0.0,0.0,0.0,0.0,0.0,0.0,0.0,0.0,0.0,0.0,0.0,0.0,0.0,0.0,0.0,2.6774,2.8809,3.0488,3.1156,3.0969,3.1966,3.4945,3.2379,3.1907,3.4872,0.0,0.0,0.0,0.0,0.0,0.0,0.0,0.0,0.0,0.0,0.0,0.0,0.0,0.0,0.0,0.0,0.0,0.0,0.0,0.0,0.0,0.0,0.0,0.0,0.0,0.0,0.0,0.0,0.0,0.0,0.0,0.0,0.0,0.0,0.0,0.0,0.0,0.0,0.0,0.0,0.0,0.0,0.0,0.0,0.0,0.0,0.0,0.0,0.0,0.0,0.0,0.0,0.0,0.0,0.0,0.0,0.0,0.0,0.0,0.0,0.0,0.0,0.0,0.0,0.0,0.0,0.0,0.0,0.0,0.0,0.0,0.0,0.0,0.0,0.0,0.0,0.0,0.0,0.0,0.0,0.0,0.0,0.0,0.0,0.0,0.0,0.0,0.0,0.0,0.0,0.0,0.0,0.0,0.0,0.0,0.0,0.0,0.0,0.0,0.0,0.0,0.0,2.6532,2.8834,3.0627,3.1122,3.0862,3.1766,3.4443,3.2339,3.1871,3.4284,0.0,0.0,0.0,0.0,0.0,0.0,0.0,0.0,0.0,0.0,0.0,0.0,0.0,0.0,0.0,0.0,0.0,0.0,0.0,0.0,0.0,0.0,0.0,0.0,0.0,0.0,0.0,0.0,0.0,0.0,0.0,0.0,0.0,0.0,0.0,0.0,0.0,0.0,0.0,0.0,0.0,0.0,0.0,0.0,0.0,0.0,0.0,0.0,0.0,0.0,0.0,0.0,0.0,0.0,0.0,0.0,0.0,0.0,0.0,0.0,0.0,0.0,0.0,0.0,0.0,0.0,0.0,0.0,0.0,0.0,0.0,0.0,0.0,0.0,0.0,0.0,0.0,0.0,0.0,0.0,0.0,0.0,0.0,0.0,0.0,0.0,0.0,0.0,0.0,0.0,0.0,0.0,0.0,0.0,0.0,0.0,0.0,0.0,0.0,0.0,0.0,0.0,2.6707,2.8938,3.0621,3.1209,3.0742,3.1073,3.2571,3.151,3.1161,3.2117,0.0,0.0,0.0,0.0,0.0,0.0,0.0,0.0,0.0,0.0,0.0,0.0,0.0,0.0,0.0,0.0,0.0,0.0,0.0,0.0,0.0,0.0,0.0,0.0,0.0,0.0,0.0,0.0,0.0,0.0,0.0,0.0,0.0,0.0,0.0,0.0,0.0,0.0,0.0,0.0,0.0,0.0,0.0,0.0,0.0,0.0,0.0,0.0,0.0,0.0,0.0,0.0,0.0,0.0,0.0,0.0,0.0,0.0,0.0,0.0,3.19,3.1426,0.0,0.0,0.0,0.0,0.0,0.0,0.0,0.0,0.0,0.0,0.0,0.0,0.0,0.0,0.0,0.0,0.0,0.0,0.0,0.0,0.0,0.0,0.0,0.0,0.0,0.0,0.0,0.0,0.0,0.0,0.0,0.0,0.0,0.0,0.0,0.0,0.0,0.0,0.0,0.0,2.7014,2.9232,3.0929,3.1517,3.1049,3.1248,3.2585,3.2245,3.2126,3.263,3.2275,0.0,0.0,0.0,0.0,0.0,0.0,0.0,0.0,0.0,0.0,0.0,0.0,0.0,0.0,0.0,0.0,0.0,0.0,0.0,0.0,0.0,0.0,0.0,0.0,0.0,0.0,0.0,0.0,0.0,0.0,0.0,0.0,0.0,0.0,0.0,0.0,0.0,0.0,0.0,0.0,0.0,0.0,0.0,0.0,0.0,0.0,0.0,0.0,0.0,0.0,0.0,0.0,0.0,0.0,0.0,0.0,0.0,0.0,0.0,3.4544,3.3333,0.0,0.0,0.0,0.0,0.0,0.0,0.0,0.0,0.0,0.0,0.0,0.0,0.0,0.0,0.0,0.0,0.0,0.0,0.0,0.0,0.0,0.0,0.0,0.0,0.0,0.0,0.0,0.0,0.0,0.0,0.0,0.0,0.0,0.0,0.0,0.0,0.0,0.0,0.0,0.0,2.7709,2.9593,3.0969,3.141,3.0808,3.051,3.0903,3.0948,3.1125,3.1512,3.1532,0.0,0.0,0.0,0.0,0.0,0.0,0.0,0.0,0.0,0.0,0.0,0.0,0.0,0.0,0.0,0.0,0.0,0.0,0.0,0.0,0.0,0.0,0.0,0.0,0.0,0.0,0.0,0.0,0.0,0.0,0.0,0.0,0.0,0.0,0.0,0.0,0.0,0.0,0.0,0.0,0.0,0.0,0.0,0.0,0.0,0.0,0.0,0.0,0.0,0.0,0.0,0.0,0.0,3.793,3.8555,3.9277,4.0,4.0098,3.9645,3.8555,3.6615,3.4186,3.4355,0.0,0.0,0.0,0.0,0.0,0.0,0.0,0.0,0.0,0.0,0.0,0.0,0.0,0.0,0.0,0.0,0.0,0.0,0.0,0.0,0.0,0.0,3.4607,3.4355,3.3515,3.2118,2.9563,0.0,0.0,0.0,0.0,0.0,0.0,0.0,0.0,0.0,0.0,0.0,2.8417,2.9967,3.1022,3.141,3.0621,2.9833,2.9202,2.9589,3.0039,3.0518,3.0977,3.1504,0.0,0.0,0.0,0.0,0.0,0.0,0.0,0.0,0.0,0.0,0.0,0.0,0.0,0.0,0.0,0.0,0.0,0.0,0.0,0.0,0.0,0.0,0.0,0.0,0.0,0.0,0.0,0.0,0.0,0.0,0.0,0.0,3.1269,3.1269,0.0,0.0,0.0,0.0,0.0,0.0,0.0,0.0,0.0,0.0,0.0,0.0,0.0,3.8096,4.0253,4.0301,4.0215,4.0019,4.1152,4.1777,4.1874,4.2011,4.2811,4.4121,4.3191,0.0,3.7211,3.6191,0.0,0.0,0.0,0.0,0.0,0.0,0.0,0.0,0.0,0.0,0.0,0.0,0.0,0.0,0.0,0.0,0.0,0.0,0.0,0.0,0.0,0.0,3.6319,3.4071,3.1929,3.0199,2.9697,2.9335,2.8959,2.854,2.7718,2.663,0.0,0.0,0.0,0.0,0.0,0.0,2.8708,3.0215,3.1476,3.234,3.1403,3.0434,2.9847,3.0752,3.1472,3.1837,3.2598,3.3431,3.4239,3.2785,0.0,0.0,0.0,0.0,0.0,0.0,0.0,0.0,0.0,0.0,0.0,0.0,0.0,0.0,0.0,0.0,0.0,0.0,0.0,0.0,0.0,0.0,0.0,0.0,0.0,0.0,0.0,0.0,0.0,3.1836,3.2598,3.1641,3.2695,3.2941,0.0,0.0,0.0,0.0,0.0,0.0,0.0,0.0,0.0,4.1283,4.0522,4.0676,4.1979,4.286,4.3594,4.4099,4.4941,4.5586,4.6055,4.6308,4.6792,4.7494,4.7402,4.5957,4.3457,4.0234,3.8242,3.709,0.0,0.0,0.0,0.0,3.6304,3.707,3.7848,3.7789,3.7383,3.7692,0.0,0.0,0.0,0.0,0.0,0.0,0.0,3.622,3.7461,3.7051,3.5942,3.4372,3.3291,3.2178,3.0643,2.9529,2.8981,2.9585,2.856,2.7433,2.6804,2.5255,0.0,0.0,0.0,2.7522,2.9255,3.0482,3.1436,3.2045,3.1203,3.0314,2.9726,2.9802,3.0217,3.093,3.2047,3.3046,3.3941,3.3967,3.3613,0.0,0.0,0.0,0.0,0.0,0.0,0.0,0.0,0.0,0.0,0.0,0.0,0.0,0.0,0.0,0.0,0.0,0.0,0.0,0.0,0.0,0.0,0.0,0.0,0.0,0.0,0.0,0.0,3.3223,3.3926,3.2177,3.4004,3.4492,0.0,0.0,0.0,0.0,0.0,0.0,4.0004,4.0992,4.2075,4.3278,4.3517,4.3926,4.4528,4.5957,4.7104,4.804,4.8418,4.8965,4.9734,5.0019,5.0234,5.0304,5.0566,5.0098,4.8848,4.4219,4.1543,4.0234,3.8945,3.8379,3.8379,3.9121,3.9668,4.0176,4.1152,4.0996,4.0332,4.0,3.8809,3.7266,3.5957,0.0,0.0,0.0,0.0,3.5509,3.7681,3.6913,3.5459,3.5115,3.4654,3.3722,3.1759,3.0314,2.9566,3.0184,2.893,2.785,2.8049,2.6177,0.0,2.6912,2.7559,2.839,2.994,3.0902,3.153,3.1805,3.1042,3.0306,2.9753,2.9098,2.9226,3.0447,3.1826,3.3074,3.4178,3.53,3.5176,3.3652,0.0,0.0,0.0,0.0,0.0,0.0,0.0,0.0,0.0,0.0,0.0,0.0,0.0,0.0,0.0,0.0,0.0,0.0,0.0,0.0,0.0,0.0,0.0,0.0,0.0,0.0,0.0,0.0,0.0,3.3503,3.666,0.0,0.0,0.0,0.0,3.7136,4.0022,4.179,4.17,4.2875,4.454,4.6592,4.7877,4.9148,5.0371,5.0811,5.1084,5.1162,5.1182,5.1484,5.1914,5.1953,5.2168,5.2539,5.2148,5.1953,5.1543,4.7226,4.4668,4.3359,4.207,4.1328,4.1074,4.1465,4.1914,4.2226,4.2304,4.207,4.1894,4.3066,4.2578,4.1269,3.998,3.8214,0.0,0.0,3.6389,3.567,3.7024,3.6371,3.5578,3.6342,3.4751,3.3027,3.2929,3.2158,3.0914,2.8782,2.7136,2.6099,2.6162,0.0,2.6238,2.7163,2.8489,2.97,3.0635,3.1517,3.2064,3.2078,3.1289,3.0648,3.0386,2.9513,2.975,3.1589,3.3086,3.4688,3.6349,3.6927,3.6777,3.5879,3.3848,0.0,0.0,0.0,0.0,0.0,0.0,0.0,0.0,0.0,0.0,0.0,0.0,0.0,0.0,0.0,0.0,0.0,0.0,0.0,0.0,0.0,0.0,0.0,0.0,0.0,0.0,0.0,0.0,3.7972,4.0176,0.0,3.8613,3.934,4.0226,4.0995,4.2863,4.4664,4.6274,4.7578,4.8887,5.0195,5.1279,5.2022,5.2491,5.2891,5.3055,5.3055,5.3055,5.3183,5.334,5.334,5.3418,5.3555,5.3398,5.334,5.3223,5.168,4.9629,4.7324,4.6035,4.5254,4.4961,4.5664,4.6016,4.6191,4.6465,4.6289,4.5683,4.418,4.1697,3.9237,3.9111,3.7578,3.6117,3.7356,3.6439,3.5349,3.6542,3.5491,3.4247,3.4726,3.4336,3.3788,3.3601,3.316,3.2492,3.1497,2.9958,2.8714,2.8339,2.8377,2.8551,2.8714,2.9619,3.0581,3.1263,3.1637,3.1891,3.2078,3.1316,3.0675,3.0426,2.9553,2.9201,2.9688,3.1357,3.2379,3.253,3.5081,3.5572,3.3668,3.3877,3.3418,0.0,0.0,0.0,0.0,0.0,0.0,0.0,0.0,0.0,0.0,0.0,0.0,0.0,0.0,0.0,0.0,0.0,0.0,0.0,0.0,0.0,0.0,0.0,0.0,0.0,3.8691,4.1055,4.1348,4.3418,4.4258,4.2872,4.3086,4.3945,4.5371,4.6797,4.8418,5.0321,5.1484,5.2441,5.3144,5.373,5.4082,5.4238,5.4531,5.4616,5.4616,5.4824,5.4883,5.4902,5.5039,5.5019,5.4902,5.5039,5.5019,5.4883,5.4883,5.3633,5.1514,5.0254,4.9394,4.8965,4.9687,4.9844,4.9746,4.9902,4.8891,4.7142,4.5161,4.1949,3.889,3.9192,3.7804,3.6333,3.7427,3.6261,3.4878,3.564,3.4787,3.3774,3.3988,3.4175,3.4269,3.4068,3.3788,3.3521,3.332,3.2024,3.0841,3.0346,3.0381,3.0448,3.0247,3.0935,3.149,3.1784,3.1952,3.2005,3.1957,3.1263,3.0675,3.0426,3.0233,2.9867,2.9326,3.1441,3.2372,3.1594,3.4722,3.5463,3.3397,3.3819,3.3301,3.1768,0.0,0.0,0.0,0.0,0.0,0.0,0.0,0.0,0.0,0.0,0.0,0.0,0.0,0.0,0.0,0.0,0.0,0.0,0.0,0.0,0.0,0.0,0.0,3.748,4.1504,4.418,4.3439,4.6269,4.7695,4.6094,4.7832,4.9414,5.0273,5.1875,5.3008,5.3488,5.4277,5.4941,5.5351,5.539,5.5586,5.5943,5.5943,5.5943,5.5943,5.6426,5.6621,5.664,5.7051,5.7012,5.664,5.7051,5.6992,5.6621,5.6621,5.6367,5.5806,5.4538,5.3555,5.2812,5.3242,5.3075,5.2526,5.2137,4.938,4.6022,4.6022,4.36,4.0642,4.0642,3.9112,3.7436,3.7436,3.59,3.4349,3.4336,3.4336,3.4349,3.4336,3.4336,3.4349,3.4336,3.4108,3.3895,3.3881,3.2946,3.2051,3.1818,3.1764,3.1764,3.1764,3.2246,0.0,3.2171,3.2407,3.2353,3.1805,3.1156,3.0688,3.044,3.1509,3.1692,3.055,3.3359,3.4695,3.3856,3.5951,3.6591,3.5371,3.364,3.2127,3.0879,0.0,0.0,0.0,0.0,0.0,0.0,0.0,0.0,0.0,0.0,0.0,0.0,0.0,0.0,0.0,0.0,0.0,0.0,0.0,0.0,0.0,4.0215,4.2578,4.1621,4.3965,4.6387,4.8027,4.9883,5.1211,5.168,5.2266,5.2969,5.3828,5.4609,5.5234,5.5683,5.6211,5.6562,5.668,5.6992,5.7226,5.7324,5.7324,5.7324,5.7344,5.7461,5.7519,5.7574,5.7637,5.7617,5.7574,5.7637,5.7617,5.7519,5.7519,5.7441,5.7207,5.5918,5.4883,5.416,5.4328,5.2634,5.0384,5.0274,4.776,4.453,4.438,4.1966,3.9169,3.8974,3.7309,3.5528,3.5528,3.5229,3.491,3.4696,3.4803,3.4897,3.4696,3.4803,3.4897,3.4683,3.4416,3.4135,3.3921,3.344,3.3026,3.2946,3.2933,3.2933,3.2933,3.2755,3.2648,3.2719,3.23,3.2059,3.2326,3.1583,3.0982,3.0702,3.0032,2.9103,2.7919,2.9207,2.9774,2.9163,3.2296,3.4175,3.4453,3.213,3.074,0.0,0.0,0.0,0.0,0.0,0.0,0.0,0.0,0.0,0.0,0.0,0.0,0.0,0.0,0.0,0.0,0.0,0.0,0.0,0.0,0.0,0.0,4.4043,4.6601,4.733,4.8164,4.9551,5.1797,5.2871,5.3945,5.5234,5.5351,5.5644,5.6328,5.6601,5.6855,5.7109,5.7539,5.7719,5.7719,5.8027,5.8144,5.8144,5.8144,5.8144,5.8144,5.8375,5.8437,5.8437,5.8437,5.8437,5.8437,5.8437,5.8437,5.8437,5.8437,5.832,5.7937,0.0,0.0,0.0,0.0,5.0616,4.8602,4.8602,4.6086,4.2819,4.2682,4.028,3.7529,3.7344,3.6398,3.5364,3.5364,3.5338,3.5338,3.5177,3.5164,3.5151,3.4977,3.507,3.5151,3.4977,3.471,3.4456,3.4282,3.3908,0.0,3.3614,3.3494,3.3414,3.3414,3.3026,3.2795,3.2835,3.2286,3.1891,3.1984,3.1423,3.0822,3.0287,3.0189,0.0,0.0,0.0,2.8949,2.8118,3.0108,0.0,0.0,0.0,2.9944,2.9722,2.9174,0.0,0.0,2.9905,3.0248,0.0,0.0,0.0,0.0,0.0,0.0,0.0,0.0,0.0,0.0,0.0,0.0,0.0,0.0,0.0,0.0,4.791,5.0058,5.3331,5.3105,5.3203,5.4648,5.5234,5.6015,5.7246,5.7363,5.7539,5.8023,5.8027,5.8027,5.8027,5.8437,0.0,0.0,0.0,5.8652,5.8652,5.8597,5.8594,5.8594,5.9004,5.918,5.918,5.918,5.918,5.918,5.918,5.918,5.918,5.8844,5.7994,5.6719,5.4169,5.3002,5.2312,4.9513,4.7851,4.7048,4.6999,0.0,0.0,4.0832,3.8709,3.6166,3.6126,3.6126,3.6112,3.6086,3.5912,3.5712,3.5591,3.5431,3.5231,3.5204,3.5191,3.5191,3.5191,3.4963,3.4815,3.4815,3.4282,3.3881,3.3881,3.3627,3.3414,3.3414,3.3133,3.2888,3.2621,3.2251,3.1864,3.137,3.1036,0.0,2.97,3.1007,3.1028,2.9042,3.0112,3.0359,2.9364,2.9212,2.9324,2.9757,2.9728,2.944,2.8994,2.9547,2.9834,2.9897,2.9445,2.9644,0.0,0.0,0.0,0.0,0.0,0.0,0.0,0.0,0.0,0.0,0.0,0.0,0.0,0.0,0.0,4.8014,5.1259,5.4023,5.5723,5.6113,5.6094,5.5742,5.6367,5.7226,5.8128,5.8246,5.8421,5.8887,5.8945,5.8945,5.8945,5.9355,5.957,5.957,5.957,5.957,5.957,5.9238,5.9062,5.9062,5.9177,0.0,5.918,5.918,5.918,5.918,5.918,5.918,5.9012,5.6459,5.2378,4.8068,5.177,5.1677,4.9342,4.8733,4.6921,4.47,4.4411,4.2091,3.9122,3.863,3.7667,3.6727,3.65,3.6433,0.0,3.6139,3.6206,3.6233,3.5752,3.5591,3.5485,3.5244,3.5191,3.5191,3.5191,3.4963,3.4815,3.4815,3.4282,3.3881,3.3881,3.3627,3.3414,3.3414,3.3009,3.2661,3.2607,3.2126,3.1797,3.1917,3.1463,3.0982,3.0568,2.9788,2.8741,2.7362,2.7949,2.8871,2.9948,2.9984,3.0017,3.0117,2.8952,2.8327,2.8208,2.7709,2.7691,2.8189,2.8573,2.9758,0.0,0.0,0.0,0.0,0.0,0.0,0.0,0.0,0.0,0.0,0.0,4.2724,4.3939,0.0,4.9082,5.166,5.4082,5.6015,5.707,5.7793,5.7969,5.725,5.7617,5.8203,5.9046,5.918,5.9355,5.9765,5.9805,5.9805,5.9805,5.9982,6.008,6.008,6.008,5.9982,5.9805,5.959,5.9414,5.918,5.918,5.9297,5.9512,5.9512,5.8628,5.7155,5.7155,5.6116,5.4358,5.2775,4.934,4.5352,4.8093,4.7252,4.449,4.449,4.3474,4.2004,4.1693,4.0336,3.8651,3.8183,3.7635,3.7128,3.6981,3.6834,3.6687,3.654,3.6393,3.6219,3.5925,3.5631,3.5418,3.5418,3.5297,3.5231,3.5378,3.5191,3.4977,3.4977,3.4509,3.4108,3.4108,3.3721,3.3414,3.3414,3.304,3.2755,3.2607,3.2206,3.1824,3.1677,3.1396,3.1049,3.0608,2.9366,2.835,2.7749,2.7559,2.7815,2.8474,2.8659,2.8821,2.8944,2.8506,2.8433,2.874,2.849,2.8524,2.8791,2.9269,2.9911,0.0,0.0,0.0,0.0,0.0,0.0,0.0,4.3454,4.3419,4.2942,4.4405,4.6216,4.7665,4.9766,5.2285,5.5312,5.6523,5.7383,5.8262,5.902,5.9297,5.8889,5.8887,5.918,5.9863,5.9922,6.0041,6.0372,6.0372,6.0372,6.0372,6.0508,6.0566,6.0566,6.0431,6.0273,5.9922,5.9765,5.9531,5.918,5.918,5.9355,5.9631,5.9105,5.7437,5.5009,5.4431,5.2139,4.8914,4.8914,4.7068,4.4206,4.4206,4.2707,4.0481,4.0481,4.0334,4.0067,3.9706,3.9306,3.8838,3.8477,3.7996,3.7569,3.7569,3.7301,3.6952,3.6941,3.658,3.6126,3.6019,3.5631,3.5324,3.5498,3.5364,3.5257,3.5498,3.5364,3.5191,3.5191,3.4776,3.4389,3.4336,3.3868,3.348,3.3427,3.316,3.2942,3.2714,3.242,3.1984,3.145,3.1343,3.1049,3.0467,2.9486,2.8925,2.8871,2.8177,2.7669,2.7387,2.7655,2.7896,2.8123,2.8671,2.9179,2.9704,2.994,3.0087,3.01,3.0394,3.0253,4.2968,4.3325,4.3419,4.3942,4.461,4.5849,0.0,4.7752,4.7044,4.9543,5.0086,5.0385,5.1357,5.3574,5.5801,5.7324,5.832,5.918,6.0039,6.0215,6.0273,6.0215,6.0215,6.0216,6.0314,6.0314,6.0314,6.0372,6.0372,6.0372,6.0372,6.0801,6.1015,6.1015,6.0625,6.0372,6.0314,5.9629,5.9238,5.918,5.918,5.9235,5.9146,5.6622,5.524,5.4738,5.1994,4.8843,4.562,4.562,4.3803,4.1013,4.1013,4.0784,4.0481,4.0481,4.0502,4.0334,3.9786,3.9559,3.9412,3.8865,3.8437,3.8214,3.8214,3.7782,3.7275,3.6952,3.6672,3.634,3.5819,3.5631,3.5525,3.5297,3.5217,3.5204,3.5231,3.5217,3.5191,3.5191,3.4937,3.4629,3.4362,3.4055,3.3734,3.3454,3.316,3.2973,3.2982,3.2728,3.242,3.2038,3.177,3.1323,3.048,3.0279,3.0047,2.978,2.9673,2.9606,2.9566,2.9606,2.9633,2.9673,2.9993,3.0239,3.0306,3.0555,3.0688,3.0702,3.0996,3.0822,4.6155,4.5786,4.5079,4.6237,4.7377,4.8478,4.9475,4.9716,5.022,5.1758,5.2975,5.3984,5.459,5.6406,5.8027,5.8555,5.9355,6.0039,6.0314,6.0372,6.0216,5.9765,6.0099,6.049,6.0801,6.0801,6.0898,6.1133,6.1133,6.1133,6.1133,6.1367,6.1426,6.1426,6.1035,6.0683,6.0372,5.9807,5.9414,5.918,5.918,5.8379,5.6737,5.5588,5.3038,4.9407,4.6026,4.3753,4.2406,4.2406,4.1637,4.0481,4.0481,4.0481,4.0481,4.0481,4.0361,4.0147,3.9746,3.9493,3.9265,3.8806,3.8504,3.8321,3.8321,3.7863,3.7342,3.7235,3.6874,3.6393,3.5992,3.5765,3.5645,3.5698,3.5578,3.5538,3.5885,3.5685,3.5444,3.5444,3.5084,3.4775,3.4603,3.4189,3.3841,3.3708,3.3427,3.3173,3.3,3.2929,3.2728,3.2433,3.23,3.2086,3.1711,3.1524,3.1316,3.1196,3.0862,3.0675,3.0675,3.0675,3.0755,3.0929,3.1109,3.1256,3.137,3.1376,3.1303,3.135,3.1423,3.1356,4.7179,4.6821,4.6322,4.7792,4.9703,5.1082,5.0543,5.1689,5.3037,5.3788,5.5293,5.664,5.7187,5.8437,5.9414,5.9705,6.0332,6.0781,6.0781,6.0683,6.0215,5.9121,5.928,5.9707,6.0156,6.0742,6.1269,6.166,6.1719,6.1719,6.1719,6.1719,6.1719,6.1719,6.1308,6.0859,6.0372,5.9982,5.9176,5.7888,5.7888,5.6381,5.3618,5.2835,4.9541,4.4342,4.1749,4.0548,4.0481,4.0481,4.0481,4.0481,4.0481,4.0481,4.0481,4.0401,4.0214,3.994,3.9599,3.9287,3.906,3.8766,3.8584,3.8397,3.8397,3.8036,3.7595,3.7529,3.7128,3.6647,3.6193,3.5912,3.5765,3.5819,3.5725,3.5752,3.6179,3.5992,3.5725,3.5645,3.5284,3.495,3.4842,3.4467,3.4108,3.4015,3.3814,3.3521,3.3146,3.3026,3.2955,3.2741,3.2648,3.2594,3.2594,3.2393,3.2225,3.2225,3.1824,3.1583,3.1583,3.1583,3.169,3.1952,3.1872,3.1891,3.2104,3.1891,3.1744,3.1724,3.1805,3.1791,4.4501,4.5154,4.6077,4.7607,5.0795,5.348,5.3301,5.4282,5.556,5.6797,5.7461,5.8086,5.8945,5.9473,6.0039,6.0898,6.1367,6.166,6.166,6.1308,6.0449,5.8714,5.7777,5.748,5.7965,5.9883,6.1269,6.166,6.1719,6.1719,6.1719,6.1719,6.1719,6.1719,6.1308,6.0859,6.0372,5.9982,5.8044,5.4625,5.4625,5.3005,4.9864,4.7145,4.41,4.1018,4.0909,4.0735,4.0481,4.0481,4.0481,4.0481,4.0481,4.0481,4.0441,4.0147,4.0027,3.99,3.9313,3.91,3.906,3.8766,3.866,3.866,3.866,3.8477,3.8183,3.7889,3.7595,3.7168,3.6299,3.6059,3.5925,3.5351,3.5431,3.5631,3.5591,3.5872,3.5979,3.5685,3.5618,3.5418,3.4909,3.4802,3.4643,3.4349,3.4295,3.4082,3.348,3.3146,3.2973,3.2973,3.2768,3.2594,3.2594,3.2581,3.2581,3.2581,3.2567,3.2554,3.2554,3.2554,3.2554,3.2567,3.2238,3.2091,3.2104,3.2091,3.1944,3.1724,3.1957,3.1944,4.6534,4.7805,4.9531,5.1928,5.3847,5.5373,5.6174,5.7148,5.8027,5.8437,5.8199,5.7906,5.7851,5.8258,5.8711,5.9297,6.0449,6.1308,6.1308,6.0918,5.9687,5.7055,5.7051,5.6836,5.584,5.775,5.959,6.1191,6.1308,6.1426,6.1719,6.1719,6.1719,6.1719,5.9195,5.7713,5.7363,5.4802,5.2771,5.1391,4.9239,4.7715,4.6596,4.3573,4.1607,4.0615,4.0615,4.0588,4.0481,4.0481,4.0481,4.0481,4.0481,4.0481,4.0462,3.992,3.9746,3.9647,3.9247,3.8993,3.8806,3.8758,3.8718,3.8718,3.8718,3.8504,3.824,3.7889,3.7595,3.7235,3.654,3.6219,3.6072,3.6072,3.5992,3.6032,3.6378,3.6433,3.6326,3.6233,3.6059,3.5859,3.5672,3.5311,3.4883,3.4389,3.4162,3.3961,3.3761,3.3454,3.3267,3.3267,3.3173,3.312,3.312,3.312,3.312,3.312,3.2933,3.2888,3.2888,3.2701,3.2688,3.2875,3.2594,3.2541,3.2679,3.2541,3.2393,3.23,3.2393,3.2393,4.8342,4.9961,5.1886,5.4901,5.6357,5.7383,5.8535,5.9121,5.9297,5.8844,5.7793,5.6816,5.6387,5.5898,5.6055,5.7598,5.8597,5.957,6.0508,5.998,5.8652,5.6445,5.6113,5.532,5.3515,5.4371,5.6558,6.0138,5.9591,5.9317,5.9716,5.8772,5.8218,5.8218,5.5804,5.439,5.4064,5.1611,4.9624,4.8052,4.4981,4.3458,4.3384,4.1423,4.0481,4.0481,4.0481,4.0481,4.0481,4.0481,4.0481,4.0481,4.0481,4.0481,4.0401,3.9813,3.9599,3.9533,3.91,3.8865,3.8718,3.8718,3.8718,3.8718,3.8718,3.8584,3.833,3.7929,3.7676,3.7382,3.6687,3.6286,3.6126,3.6313,3.6206,3.6206,3.6687,3.6727,3.6647,3.6647,3.65,3.638,3.638,3.5899,3.5351,3.4857,3.4456,3.4122,3.3908,3.3614,3.3414,3.3414,3.3414,3.3414,3.3414,3.3414,3.3414,3.3414,3.324,3.3133,3.3133,3.3009,3.2995,3.3133,3.2902,3.2835,3.2973,3.2835,3.2701,3.2594,3.2701,3.2688,4.9802,5.1603,5.3183,5.6523,5.832,5.9473,6.0215,6.0039,5.9355,5.8023,5.6289,5.4883,5.4375,5.2695,5.25,5.584,5.623,5.6992,5.9512,5.8789,5.7711,5.6719,0.0,0.0,0.0,0.0,5.2294,5.8179,5.6539,5.5442,5.5909,5.3383,5.1952,5.1952,5.1468,5.1062,5.0614,5.0237,4.8268,4.4847,4.1925,4.0481,4.0481,4.0481,4.0481,4.0481,4.0481,4.0481,4.0481,4.0481,4.0481,4.0481,4.0481,4.0481,4.0435,3.9813,3.9559,3.9493,3.8905,3.8691,3.8691,3.8691,3.8691,3.8691,3.8691,3.8691,3.8584,3.7996,3.7809,3.7595,3.6754,3.6299,3.614,3.6112,3.6099,3.6153,3.6473,3.6754,3.6912,3.6912,3.6925,3.6925,3.6885,3.6473,3.5992,3.5672,3.5137,3.4614,3.3988,3.3627,3.3427,3.3414,3.3414,3.3414,3.3414,3.3414,3.3414,3.3414,3.3414,3.3414,3.3414,3.34,3.34,3.3414,3.3133,3.2986,3.3,3.3,3.2915,3.2648,3.2929,3.2902,5.2286,5.4722,5.6889,5.8672,5.9629,6.0098,5.998,5.9121,5.7867,5.5898,5.3359,5.0957,4.9219,5.0039,5.1562,5.3398,5.6308,5.8906,6.0508,6.0215,5.9121,5.7265,0.0,5.2343,5.0777,4.8788,4.8599,5.1044,5.0938,5.1241,5.2363,5.1741,5.1313,5.1313,4.8872,4.7418,4.708,4.4393,4.2625,4.1637,4.0879,4.0481,4.0481,4.0481,4.0481,4.0481,4.0481,4.0481,4.0481,4.0481,4.0481,4.0481,4.0481,4.0334,4.0107,3.9746,3.9306,3.8905,3.8504,3.8428,3.8388,3.8103,3.8183,3.8428,3.8428,3.8428,3.829,3.7929,3.7676,3.7382,3.6941,3.6473,3.6179,3.662,3.6393,3.6206,3.6727,3.7048,3.7275,3.7275,3.7448,3.7448,3.6952,3.6592,3.6219,3.5712,3.5137,3.4629,3.4255,3.3948,3.3681,3.344,3.3414,3.3414,3.3414,3.3414,3.3414,3.3414,3.3414,3.3414,3.3414,3.32,3.3187,3.3414,3.3133,3.3093,3.3293,3.3293,3.3267,3.3187,3.3267,3.3253,5.5044,5.7324,5.9238,6.039,6.049,6.0041,5.8711,5.7402,5.543,5.1758,4.9355,4.7246,4.5078,4.6641,4.8945,5.0976,5.4473,5.7695,5.9941,5.9707,5.8463,5.6247,5.3989,0.0,4.8078,4.6221,4.5067,4.4802,4.6214,4.7558,4.8609,4.7477,4.6799,4.6799,4.4904,4.3744,4.349,4.1505,4.0481,4.0481,4.0481,4.0481,4.0481,4.0481,4.0481,4.0481,4.0481,4.0481,4.0481,4.0481,4.0481,4.0481,4.0481,4.0294,4.0,3.9706,3.9239,3.8593,3.8076,3.7919,3.7919,3.7823,3.7996,3.8281,3.8116,3.82,3.8183,3.7742,3.7489,3.7315,3.7008,3.6607,3.638,3.6779,3.658,3.6433,3.7008,3.7275,3.7462,3.7772,3.7996,3.7979,3.7408,3.7088,3.6647,3.5925,3.5431,3.499,3.4576,3.4148,3.3814,3.3641,3.3494,3.3414,3.3414,3.3414,3.3414,3.3414,3.3414,3.3414,3.3414,3.3253,3.324,3.3414,3.3253,3.3253,3.3414,3.3414,3.3414,3.3414,3.3414,3.3414,5.775,5.9414,6.0724,6.1426,6.0899,5.957,5.6933,5.498,5.2226,4.6894,4.4883,4.3455,4.1562,4.3066,4.5683,4.8938,5.2021,5.5136,5.8329,5.8078,5.6679,5.4315,5.2592,4.9684,4.4744,4.3351,4.202,4.0207,4.2419,4.4224,4.4917,4.2576,4.1168,4.1168,4.0976,4.0735,4.0481,4.0481,4.0481,4.0481,4.0441,4.0401,4.0401,4.0401,4.0401,4.0462,4.0468,4.0481,4.0481,4.0481,4.0441,4.0401,4.0401,4.0214,3.982,3.9599,3.9118,3.8464,3.7635,3.7301,3.7315,3.7555,3.7863,3.8116,3.7849,3.7929,3.8093,3.7529,3.7342,3.7275,3.6941,3.6687,3.658,3.6779,3.6687,3.6647,3.7195,3.7382,3.7595,3.8223,3.8504,3.8477,3.7916,3.7529,3.7048,3.6206,3.5819,3.5431,3.4949,3.4309,3.3935,3.3895,3.3601,3.3414,3.3414,3.3414,3.3414,3.3414,3.3414,3.3414,3.3414,3.3414,3.3414,3.3414,3.3414,3.3414,3.3414,3.3414,3.3414,3.3414,3.3414,3.3414,5.9881,6.1015,6.1426,6.125,6.0273,5.8669,5.5683,5.1797,4.7734,4.3887,4.0957,3.8945,3.8223,4.043,4.3926,4.8704,5.2021,5.4619,5.6452,5.6093,5.4577,5.1847,4.8511,4.6011,4.5009,4.2303,4.0499,4.0435,4.0615,4.0988,4.1357,4.0892,4.0615,4.0615,4.0588,4.0569,4.0481,4.0481,4.0481,4.0481,4.0214,4.0107,4.0107,4.0107,4.0107,4.0107,4.0361,4.0481,4.0481,4.0481,4.0334,4.0107,4.0107,3.9773,3.9207,3.8972,3.8446,3.7889,3.7235,3.6861,3.6647,3.6727,3.7088,3.7529,3.7489,3.7489,3.7529,3.7422,3.7195,3.6941,3.6647,3.654,3.6513,3.658,3.654,3.6607,3.6941,3.7352,3.7929,3.8486,3.8477,3.8281,3.7889,3.7382,3.6794,3.6166,3.5819,3.5511,3.5164,3.4603,3.4148,3.3908,3.3601,3.3414,3.3414,3.3414,3.3414,3.3414,3.3414,3.3414,3.3414,3.3414,3.3414,3.3414,3.3414,3.3414,3.3414,3.3414,3.3414,3.3414,3.3414,3.3414,6.0957,6.1543,6.166,6.1484,5.9453,5.6348,5.1973,4.7832,4.3535,3.8694,3.6953,3.6055,3.5391,3.8496,4.2168,4.5312,4.7834,5.0327,5.2903,5.1844,5.021,4.8463,4.6399,4.4445,4.2887,4.1212,4.0334,4.0481,4.0334,4.0334,4.0481,4.0481,4.0481,4.0481,4.0481,4.0481,4.0481,4.0481,4.0481,4.0481,4.0174,3.9967,3.9967,3.9893,3.9813,3.9813,3.996,4.004,4.004,4.004,3.9933,3.9813,3.9813,3.9519,3.906,3.878,3.833,3.7702,3.6981,3.662,3.6473,3.6153,3.654,3.7155,3.7155,3.7155,3.7128,3.6981,3.6727,3.6473,3.6313,3.6393,3.65,3.65,3.6874,3.7235,3.7326,3.7742,3.8143,3.8437,3.8281,3.7929,3.7635,3.7342,3.6914,3.6179,3.5952,3.5698,3.5257,3.4817,3.4496,3.4362,3.3935,3.3654,3.3654,3.3507,3.3414,3.3414,3.3414,3.3414,3.3414,3.3414,3.3414,3.3414,3.3414,3.3414,3.3414,3.3414,3.3414,3.3414,3.3414,3.3414,6.125,6.1543,6.1601,6.1133,5.8183,5.3945,4.8418,4.4219,3.9865,3.4414,3.3672,3.3887,3.3464,3.6562,3.9732,4.1569,4.3086,4.5147,4.8332,4.707,4.5551,4.4757,4.4353,4.3159,4.071,4.0481,4.0481,4.0481,4.0481,4.0481,4.0481,4.0481,4.0481,4.0481,4.0481,4.0481,4.0481,4.0481,4.0441,4.0361,4.0067,3.986,3.9794,3.9599,3.9493,3.9519,3.9559,3.9599,3.9599,3.9599,3.9559,3.9493,3.9452,3.9239,3.8905,3.8571,3.8143,3.7595,3.6727,3.6393,3.6326,3.5805,3.6125,3.6779,3.6754,3.6794,3.6739,3.65,3.6246,3.6059,3.5992,3.6193,3.6433,3.65,3.7021,3.7595,3.7782,3.7996,3.8183,3.8321,3.8036,3.7702,3.7342,3.7235,3.6914,3.6099,3.5979,3.5792,3.5257,3.5004,3.4909,3.4909,3.4269,3.3881,3.3881,3.3587,3.3414,3.3414,3.3414,3.3414,3.3414,3.3414,3.3414,3.3414,3.3414,3.3414,3.3414,3.3414,3.3414,3.3414,3.3414,3.3414,6.049,6.1075,6.125,5.9297,5.6191,5.2295,4.7076,4.1953,3.7305,3.3613,3.2305,3.2118,3.3191,3.4101,3.5878,3.9469,4.0172,4.0912,4.2647,4.2693,4.2169,4.113,4.0953,4.0784,4.0542,4.0481,4.0481,4.0481,4.0481,4.0481,4.0481,4.0481,4.0481,4.0481,4.0481,4.0481,4.0481,4.0481,4.0334,4.0067,3.9786,3.9493,3.9167,3.914,3.914,3.9167,3.9493,3.9599,3.9599,3.9599,3.9393,3.91,3.8905,3.8624,3.8321,3.7716,3.7462,3.7301,3.6461,3.6112,3.6059,3.5738,3.6046,3.65,3.6233,3.634,3.6473,3.6193,3.6099,3.6006,3.5738,3.5885,3.6179,3.6433,3.658,3.6834,3.7635,3.7793,3.7929,3.8223,3.8036,3.7635,3.7032,3.6754,3.638,3.5765,3.5672,3.5551,3.5231,3.5177,3.5151,3.5151,3.4402,3.3881,3.3881,3.3587,3.3414,3.3414,3.3414,3.3414,3.3414,3.3414,3.3414,3.3414,3.3414,3.3414,3.3414,3.3414,3.3414,3.3414,3.3414,3.3414,5.957,6.0488,6.0488,5.8594,5.4765,5.0078,4.4902,3.9922,3.541,3.1953,3.1191,3.0974,3.0471,3.0965,3.2071,3.3898,3.3183,3.3465,3.6534,3.6013,3.6051,3.8113,3.8651,3.9306,4.0361,4.0481,4.0401,4.0214,4.0214,4.0214,4.0214,4.0361,4.0481,4.0481,4.0481,4.0401,4.0214,4.0214,4.0067,3.9773,3.9433,3.914,3.8846,3.8846,3.8691,3.8357,3.8651,3.8691,3.8544,3.8544,3.8464,3.833,3.821,3.8103,3.7929,3.7342,3.7128,3.6981,3.6112,3.5805,3.5765,3.5471,3.5645,3.5992,3.6059,3.6032,3.5952,3.5845,3.5685,3.5511,3.5404,3.5578,3.5925,3.6393,3.6592,3.6901,3.7448,3.7555,3.7595,3.7716,3.7342,3.6941,3.6727,3.6433,3.6112,3.5698,3.5578,3.5525,3.5231,3.5191,3.5191,3.5191,3.4723,3.4467,3.4467,3.3975,3.3694,3.3694,3.3521,3.3414,3.3414,3.3414,3.3414,3.3414,3.3414,3.3414,3.3414,3.3414,3.3414,3.3414,3.3414,3.3414,5.7617,5.9062,5.9453,5.7734,5.3516,4.8457,4.3398,3.8574,3.4238,3.0898,3.0449,3.0199,2.853,2.8895,2.9429,2.9232,2.8203,2.8574,3.2017,3.1532,3.2104,3.5618,3.654,3.7595,3.9386,4.0107,4.0334,3.992,3.9893,3.9893,3.9893,4.0027,4.0187,4.0334,4.0254,4.0107,3.986,3.9754,3.9567,3.9346,3.8993,3.8731,3.8406,3.8406,3.821,3.7809,3.7986,3.7929,3.7809,3.7635,3.7595,3.7676,3.7489,3.7422,3.7382,3.6874,3.6687,3.658,3.5872,3.5578,3.5578,3.5284,3.5338,3.5538,3.5752,3.5725,3.5551,3.5525,3.5351,3.5191,3.5191,3.5351,3.5631,3.6126,3.6473,3.6794,3.7168,3.7315,3.7342,3.7275,3.6901,3.654,3.6286,3.6072,3.5845,3.5551,3.5498,3.5431,3.5217,3.5191,3.5191,3.5191,3.5017,3.4909,3.4829,3.4309,3.4015,3.4015,3.3721,3.3587,3.3681,3.3507,3.3454,3.3547,3.3454,3.3414,3.3414,3.3414,3.3414,3.3414,3.3414,3.3414,5.4375,5.6601,5.807,5.6333,5.2383,4.7682,4.2891,3.8125,3.3848,3.082,3.0195,2.9738,2.8111,2.8409,2.8309,2.6545,2.6736,2.7774,2.9683,3.0421,3.157,3.3668,3.4442,3.5538,3.7235,3.9279,4.0227,3.964,3.9599,3.9599,3.9599,3.9273,3.9393,3.9967,3.9746,3.9599,3.9599,3.9306,3.8953,3.8731,3.8455,3.8116,3.7809,3.7809,3.7809,3.7809,3.7529,3.7555,3.7782,3.7139,3.7128,3.7342,3.6754,3.6513,3.6473,3.6193,3.614,3.6046,3.5738,3.5578,3.5578,3.5284,3.5204,3.5204,3.5204,3.5404,3.5511,3.5284,3.5204,3.5191,3.5191,3.5204,3.5271,3.5511,3.5859,3.6233,3.6779,3.7168,3.7301,3.6952,3.6885,3.6592,3.5738,3.5631,3.5538,3.5244,3.5204,3.5204,3.5191,3.5191,3.5191,3.5191,3.5191,3.5084,3.4842,3.4482,3.4322,3.4322,3.4042,3.4015,3.4295,3.3734,3.3561,3.3881,3.3574,3.3414,3.3414,3.3414,3.3414,3.3414,3.3414,3.3414,4.7637,4.9961,5.1289,4.8691,4.6035,4.2949,3.8789,3.5547,3.2617,2.9883,2.8718,2.763,2.5772,2.5159,2.4919,2.4855,2.5157,2.6101,2.8127,2.978,3.1557,3.3641,3.6727,3.8731,3.8878,3.9666,3.9853,3.9052,3.8953,3.8905,3.8691,3.8397,3.8553,3.9353,3.9287,3.9092,3.8691,3.8397,3.8103,3.7809,3.7489,3.7195,3.6941,3.7128,3.6952,3.662,3.6727,3.6727,3.662,3.6433,3.6393,3.6473,3.6286,3.6206,3.6179,3.5885,3.5765,3.5725,3.5431,3.5338,3.5284,3.499,3.4949,3.4949,3.4949,3.5097,3.5311,3.5217,3.5191,3.5191,3.5191,3.5351,3.5511,3.5551,3.5859,3.6126,3.6313,3.6433,3.6473,3.6366,3.6179,3.5898,3.5672,3.5458,3.5297,3.5204,3.5191,3.5191,3.5191,3.5191,3.5191,3.5191,3.5191,3.5164,3.507,3.479,3.4629,3.4629,3.4349,3.4135,3.4028,3.3841,3.3681,3.3561,3.3467,3.3414,3.3414,3.3414,3.3414,3.3414,3.3414,3.3414,4.2362,4.5215,4.6763,4.4863,4.2734,4.0195,3.6797,3.4101,3.151,2.8678,2.753,2.6335,2.3885,2.3241,2.3145,2.3201,2.3728,2.4786,2.6774,2.8831,3.1022,3.3427,3.6914,3.8945,3.8477,3.9353,3.9567,3.8624,3.8437,3.825,3.7986,3.7529,3.7555,3.8086,3.8464,3.8357,3.7782,3.7555,3.7342,3.7048,3.6754,3.6513,3.6353,3.654,3.6393,3.6072,3.6139,3.6139,0.0,3.5832,3.5805,3.5899,3.5778,3.5738,3.5725,3.5538,3.5471,3.5418,3.5137,3.503,3.4977,3.4696,3.4603,3.4603,3.4603,3.4803,3.503,3.503,3.503,3.5057,3.5164,3.5324,3.5471,3.5471,3.5685,3.5912,3.5912,3.5992,3.6046,3.5925,3.5752,3.5591,3.5485,3.5311,3.5191,3.5191,3.5191,3.5191,3.5191,3.5191,3.5191,3.5191,3.5191,3.5191,3.5191,3.503,3.4923,3.4923,3.4656,3.4456,3.4389,3.4055,3.3841,3.3761,3.3534,3.3414,3.3414,3.3414,3.3414,3.3414,3.3414,3.3414,0.0,4.1641,4.3594,4.3476,4.1348,3.8633,3.6133,3.3398,0.0,2.7454,2.6734,2.5754,2.2763,2.2692,2.2751,2.1913,2.2672,2.4022,2.581,2.7963,3.0402,3.3293,3.5698,3.6981,3.662,3.8611,3.9452,3.833,3.7929,3.7635,3.7342,3.6794,3.6473,3.6433,3.7261,3.7422,3.6874,3.6805,3.6687,3.6393,3.6126,3.6019,3.5952,3.5952,3.5952,3.5939,3.5672,3.5712,3.5912,3.5378,3.5311,3.5458,3.5244,3.5151,3.5164,3.5164,3.5177,3.5151,3.4883,3.4829,3.4762,3.4389,3.4282,3.4282,3.4255,3.4482,3.4788,3.4802,3.4815,3.4882,3.5124,3.5204,3.5217,3.5204,3.5418,3.5565,3.5605,3.5819,3.5925,3.5658,3.5591,3.5511,3.5244,3.5191,3.5191,3.5191,3.5191,3.5191,3.5191,3.5191,3.5191,3.5191,3.5191,3.5191,3.5191,3.5191,3.5191,3.5191,3.495,3.491,3.5151,3.4362,3.4042,3.4282,3.3708,3.3414,3.3414,3.3414,3.3414,3.3414,3.3414,3.3427,3.1612,0.0,3.5684,3.4394,3.3769,3.3066,0.0,3.0576,2.9642,2.8218,2.7028,2.5876,2.4587,2.3409,2.279,2.3201,2.3861,2.4826,2.64,3.0154,3.3507,3.5538,3.7676,3.8504,3.7301,3.829,3.8718,3.7969,3.7392,3.7008,3.6727,3.6366,3.6072,3.5845,3.6259,3.6461,3.6273,3.6046,3.5792,3.5498,3.5204,3.495,3.4736,3.4736,3.4736,3.4736,3.4844,3.4818,3.4736,3.483,3.4776,3.4616,3.4549,3.467,3.487,3.4857,3.5004,3.5191,3.5124,3.495,3.4735,3.4162,3.3988,3.3948,3.3694,3.4002,3.4469,3.4748,3.4815,3.4882,3.5124,3.5364,3.5471,3.5244,3.5418,3.5511,3.5351,3.5351,3.5378,3.5311,3.5297,3.5271,3.5204,3.5191,3.5191,3.5191,3.5191,3.5191,3.5191,3.5191,3.5191,3.5191,3.5191,3.5191,3.5191,3.5191,3.5191,3.5191,3.5137,3.503,3.4922,3.4456,3.4148,3.3988,3.3614,3.3414,3.3414,3.3414,3.3414,3.3414,3.3414,3.3547,2.8836,3.0723,3.2383,3.166,3.1504,3.1289,3.04,2.9707,2.8917,2.7571,2.6662,2.5589,2.3981,2.3033,2.2599,2.2917,2.3674,2.5264,2.823,3.1436,3.4229,3.6259,3.7849,3.8464,3.7676,3.829,3.8357,3.7432,3.6952,3.654,3.6126,3.5832,3.5591,3.5431,3.5591,3.5605,3.5524,3.5444,3.5217,3.479,3.4629,3.4469,3.4322,3.4322,3.4322,3.4322,3.4431,3.4417,3.4336,3.4496,3.4469,3.4322,3.4322,3.4416,3.4563,3.4549,3.4656,3.4776,3.4643,3.4402,3.4095,3.3774,3.3668,3.3641,3.3467,3.3641,3.3975,3.4269,3.4414,3.4456,3.4883,3.511,3.5231,3.5204,3.5311,3.5391,3.5231,3.5191,3.5191,3.5191,3.5191,3.5191,3.5191,3.5191,3.5191,3.5191,3.5191,3.5191,3.5191,3.5191,3.5191,3.5191,3.5191,3.5191,3.5191,3.5191,3.5191,3.5191,3.5191,3.5124,3.4963,3.4683,3.4322,3.3895,3.3574,3.3414,3.3414,3.3414,3.3494,3.3627,3.3627,3.3788,2.8398,3.0117,3.168,3.1631,3.1406,3.1094,3.0605,2.9629,2.8358,2.6763,2.6291,2.5458,2.3125,2.2767,2.2759,2.2511,2.3607,2.6079,3.0568,3.2385,3.4042,3.6193,3.7261,3.7742,3.7555,3.8103,3.7996,3.6941,3.6525,3.6153,3.5658,3.5351,3.5191,3.5191,3.5151,3.499,3.4748,3.4977,3.483,3.4255,3.4255,3.4229,3.4175,3.4175,3.4175,3.4189,3.4229,3.3959,3.356,3.3599,3.3586,3.3547,3.3547,3.3843,3.4255,3.4255,3.4282,3.4282,3.3988,3.3708,3.348,3.3427,3.3414,3.3414,3.3414,3.3414,3.3467,3.3734,3.3855,3.4015,3.4549,3.4696,3.4763,3.5057,3.5137,3.5137,3.5191,3.5191,3.5191,3.5191,3.5191,3.5191,3.5191,3.5191,3.5191,3.5191,3.5191,3.5191,3.5191,3.5191,3.5191,3.5191,3.5191,3.5191,3.5191,3.5191,3.5191,3.5191,3.5151,3.511,3.507,3.483,3.4442,3.3895,3.3574,3.3414,3.3414,3.3454,3.3627,3.3881,3.3935,3.4108,2.9394,3.123,3.1992,2.9512,2.9403,2.9696,2.8867,2.8535,2.8306,2.8033,2.7149,2.6305,2.5901,2.5036,2.4424,2.462,2.644,2.9072,3.2519,3.3804,3.4897,3.6006,3.7128,3.7422,3.6433,3.6874,3.6992,3.6607,3.6072,3.5725,3.5578,3.5351,3.5191,3.5191,3.4963,3.4683,3.4389,3.4683,3.4536,3.3948,3.3948,3.3814,3.3547,3.3547,3.3547,3.3561,3.3841,3.2506,3.0071,3.035,3.0314,3.0059,3.0059,3.1654,3.3948,3.3948,3.4108,3.4282,3.3988,3.3855,3.3774,3.3494,3.3414,3.3414,3.3414,3.3414,3.3427,3.3467,3.3681,3.3961,3.4295,3.4389,3.4469,3.4763,3.4882,3.4897,3.5137,3.5191,3.5191,3.5191,3.5191,3.5191,3.5191,3.5191,3.5191,3.5191,3.5191,3.5191,3.5191,3.5191,3.5191,3.5191,3.5191,3.5191,3.5191,3.5191,3.5191,3.5191,3.4963,3.4723,3.4469,3.4416,3.4229,3.3895,3.3574,3.3414,3.3414,3.3681,3.3841,3.3895,3.4135,3.4416,2.8144,2.9726,3.0869,2.9922,3.1035,3.1992,3.0713,2.9489,2.8611,2.8525,2.7299,2.6186,2.5992,2.6025,2.6508,2.777,2.9245,3.1062,3.3347,3.4028,3.4723,3.5925,3.654,3.6727,3.634,3.654,3.65,3.6072,3.5631,3.5391,3.5391,3.5124,3.4963,3.4963,3.4882,3.4549,3.4095,3.4229,3.4068,3.3627,3.3627,3.3547,3.3414,3.3414,3.3414,3.3314,3.1971,3.0617,2.9178,2.7854,2.7217,2.7057,2.7057,2.7951,2.9393,3.0843,3.2416,3.3814,3.3681,3.3627,3.3601,3.3454,3.3414,3.3414,3.3414,3.3414,3.3414,3.3414,3.3521,3.3694,3.4002,3.4082,3.4162,3.4456,3.4523,3.4563,3.4696,3.4843,3.491,3.475,3.4857,3.4963,3.4963,3.4963,3.5017,3.5177,3.5191,3.5191,3.5191,3.5191,3.5191,3.5191,3.5191,3.5191,3.5191,3.5191,3.5124,3.4977,3.4882,3.4748,3.4563,3.4402,3.4336,3.4414,3.4055,3.3908,3.3908,3.4042,3.4202,3.4362,3.4496,3.4723,2.7539,2.8867,3.0224,3.0859,3.2441,3.3652,3.3098,3.0903,2.9092,2.9418,2.7738,2.6149,2.5953,2.698,2.8428,3.0393,3.1631,3.2786,3.4202,3.4456,3.4923,3.6046,3.6179,3.6206,3.6286,3.6299,3.6059,3.5471,3.5217,3.507,3.499,3.4776,3.4656,3.4656,3.4589,3.44,3.3895,3.3814,3.3654,3.3414,3.3414,3.3414,3.3414,3.3414,3.3414,3.325,3.1164,2.9888,2.9065,2.6342,2.5215,2.5163,2.4495,2.5009,2.6444,2.8495,3.1063,3.3414,3.3414,3.3414,3.3414,3.3414,3.3414,3.3414,3.3414,3.3414,3.3414,3.3414,3.3414,3.3467,3.3708,3.3774,3.3689,3.3302,3.374,3.4023,3.3459,3.4069,3.4616,3.4456,3.4603,3.4842,3.4909,3.487,3.4937,3.5164,3.5191,3.5191,3.5191,3.5191,3.5191,3.5191,3.5191,3.5191,3.5191,3.5191,3.507,3.4776,3.483,3.4882,3.4815,3.4549,3.4536,3.4815,3.4469,3.4322,3.4322,3.4389,3.4536,3.4815,3.4882,3.4977,2.9414,3.0664,3.1387,3.1416,3.1328,3.1875,3.4551,3.2102,2.9763,3.1494,2.9185,2.6887,2.7137,2.8353,2.982,3.1363,3.3013,3.4549,3.5752,3.6153,3.6353,3.6473,3.6473,3.6273,3.5738,3.5631,3.5458,3.4922,3.4855,3.467,3.4402,3.4362,3.4349,3.4349,3.4095,3.3935,3.3881,3.3587,3.3427,3.3414,3.3414,3.3414,3.3414,3.3414,3.3414,3.3414,3.32,3.1668,2.9065,2.6342,2.5215,2.4958,2.239,2.4495,2.9014,2.9217,3.1063,3.3414,3.3414,3.3414,3.3414,3.3414,3.3414,3.3414,3.3414,3.3414,3.3414,3.3414,3.3414,3.3414,3.344,3.344,3.2904,3.0657,3.2086,3.3312,3.0981,3.253,3.4429,3.4618,3.475,3.4909,3.5124,3.5164,3.5177,3.5191,3.5191,3.5191,3.5191,3.5191,3.5191,3.5191,3.5191,3.5191,3.5191,3.5191,3.507,3.4724,3.5017,3.5044,3.4829,3.4788,3.4788,3.4815,3.4469,3.4322,3.4322,3.4603,3.4788,3.4829,3.5044,3.5177,2.7617,2.9238,3.0898,3.1719,3.1663,3.176,3.3088,3.2175,3.1039,3.1052,2.9272,2.7915,2.8524,2.9707,3.1049,3.2519,3.3935,3.5151,3.5965,3.6166,3.6233,3.6233,3.5912,3.5605,3.5378,3.503,3.4723,3.4509,3.4322,3.4242,3.4322,3.4148,3.4055,3.4055,3.3948,3.3788,3.3587,3.3467,3.3414,3.3414,3.3414,3.3414,3.34,3.3227,3.324,3.33,3.1427,3.0123,2.9065,2.6342,2.4187,2.239,1.961,2.1924,2.6751,2.6751,2.956,3.3414,3.3414,3.3414,3.3414,3.3414,3.3414,3.3414,3.3414,3.3414,3.3414,3.3414,3.3414,3.3414,3.3414,3.3414,3.2725,3.0109,3.1579,3.2844,3.0214,3.1983,3.4028,3.3884,3.4229,3.4523,3.4629,3.4803,3.499,3.5164,3.5191,3.5191,3.5191,3.5191,3.5191,3.5191,3.5191,3.5191,3.5191,3.5191,3.5151,3.5044,3.4963,3.4936,3.4815,3.4815,3.4909,3.503,3.4923,3.487,3.487,3.4977,3.503,3.503,3.5151,3.5191,2.6582,2.7969,2.9605,3.0433,3.1019,3.1438,3.1593,3.1634,3.168,3.1836,3.0196,2.8941,2.9513,3.0501,3.165,3.2933,3.4295,3.5404,3.6046,3.6072,3.6046,3.5939,3.5498,3.5164,3.507,3.4616,3.4282,3.4189,3.4002,3.3935,3.4028,3.3841,3.3734,3.3734,3.3641,3.3547,3.3414,3.332,3.332,3.3414,3.3414,3.336,3.3267,3.3066,3.304,3.302,3.0938,3.0216,3.0272,2.7508,2.4785,2.2183,2.0214,2.2327,2.6495,2.6495,2.9408,3.3414,3.3414,3.3414,3.3414,3.3414,3.3414,3.3414,3.3414,3.3414,3.3414,3.3414,3.3414,3.3414,3.3414,3.3414,3.2699,2.9939,3.1416,3.2648,2.9888,3.163,3.3708,3.3587,3.3895,3.4242,3.4429,3.4629,3.4909,3.5151,3.5191,3.5191,3.5191,3.5191,3.5191,3.5191,3.5191,3.5191,3.5191,3.5191,3.5191,3.5191,3.5004,3.4949,3.4949,3.4949,3.499,3.5191,3.5191,3.5191,3.5191,3.5191,3.5191,3.5191,3.5191,3.5191,2.6986,2.7344,2.7634,2.7298,2.9012,3.0736,3.0479,3.0524,3.1448,3.4479,3.2306,2.994,2.994,3.0648,3.1517,3.246,3.4042,3.5391,3.6033,3.6059,3.5952,3.5658,3.5364,3.507,3.4829,3.4482,3.4189,3.3908,3.3881,3.3748,3.3427,3.3414,3.3414,3.34,3.312,3.3106,3.34,3.312,3.312,3.34,3.34,3.3253,3.2973,3.2973,3.2862,3.2594,3.2594,3.2755,3.2775,3.0018,2.7436,2.5184,2.4901,2.6638,2.9319,2.9319,3.105,3.3414,3.3414,3.3414,3.3414,3.3414,3.3414,3.3414,3.3414,3.3414,3.3414,3.3414,3.3414,3.3414,3.3414,3.3414,3.2699,2.9939,3.1416,3.2648,2.9888,3.1466,3.3507,3.3828,3.3881,3.4068,3.4708,3.4802,3.4909,3.5151,3.5191,3.5191,3.5191,3.5191,3.5191,3.5191,3.5191,3.5191,3.5191,3.5191,3.5191,3.5191,3.5191,3.5191,3.5191,3.5191,3.5191,3.5191,3.5191,3.5191,3.5191,3.5191,3.5191,3.5191,3.5204,3.5204,2.6245,2.6664,2.745,2.8197,2.9289,3.0508,3.1775,3.1811,3.1859,3.3086,3.2185,3.1209,3.1423,3.1664,3.2064,3.2795,3.4052,3.503,3.5404,3.5458,3.5351,3.5057,3.4576,3.4242,3.4162,3.3868,3.3641,3.3561,3.3547,3.3427,3.312,3.3106,3.3013,3.2862,3.2768,3.2768,3.2848,3.2768,3.2768,3.2848,3.2848,3.2915,3.2973,3.2808,3.2674,3.2581,3.2367,3.2447,3.2519,2.97,2.8242,2.7582,2.5322,2.6437,2.9295,2.9107,3.0876,3.3414,3.3414,3.3414,3.3414,3.3414,3.3414,3.3414,3.3414,3.3414,3.3414,3.3414,3.3414,3.3414,3.3414,3.3414,3.2699,2.9939,3.1416,3.2648,2.9888,3.1466,3.344,3.3534,3.3734,3.3948,3.4122,3.4322,3.4482,3.4563,3.4763,3.4963,3.5177,3.5191,3.5191,3.5191,3.5191,3.5191,3.5191,3.5191,3.5191,3.5191,3.5191,3.5191,3.5191,3.5191,3.5191,3.5191,3.5191,3.5191,3.5191,3.5191,3.5191,3.5204,3.5404,3.5498,2.5629,2.6061,2.6877,2.7848,2.8842,3.0053,3.1761,3.2446,3.2766,3.3067,3.2554,3.2112,3.2251,3.2185,3.2291,3.2879,3.3788,3.4523,3.4803,3.4843,3.479,3.4603,3.4175,3.3881,3.3881,3.3601,3.336,3.3253,3.324,3.3106,3.2875,3.2848,3.2781,3.2607,3.2474,3.2474,3.2594,3.2474,3.2474,3.2594,3.2474,3.2447,3.25,3.2326,3.2179,3.2024,3.1957,3.2086,3.2101,3.0518,3.0082,3.0144,2.8177,2.8795,3.0764,3.0479,3.161,3.324,3.324,3.324,3.3253,3.3374,3.3414,3.3414,3.3414,3.3414,3.3414,3.3414,3.3414,3.3414,3.3414,3.3414,3.3,3.1315,3.2183,3.2949,3.1315,3.2234,3.3414,3.3414,3.3561,3.3734,3.3868,3.4028,3.4229,3.4456,3.475,3.5004,3.5177,3.5191,3.5191,3.5191,3.5191,3.5191,3.5191,3.5191,3.5191,3.5191,3.5191,3.5191,3.5191,3.5191,3.5191,3.5191,3.5191,3.5191,3.5191,3.5191,3.5257,3.5378,3.5551,3.5698,2.5166,2.5496,2.602,2.6819,2.8178,2.9715,3.1058,3.2679,3.3841,3.3814,3.325,3.2714,3.2714,3.2425,3.2398,3.2973,3.3521,3.3988,3.4282,3.4295,3.4282,3.4282,3.4028,3.3841,3.3841,3.3561,3.3267,3.3,3.2933,3.2835,3.2567,3.25,3.2474,3.2474,3.2131,3.2131,3.2474,3.2131,3.2131,3.2474,3.2131,3.1851,3.1631,3.1623,3.1463,3.1196,3.1476,3.1631,3.1657,3.1904,3.2198,3.2487,3.2171,3.2425,3.2955,3.2661,3.2741,3.2933,3.2933,3.2933,3.2986,3.328,3.3374,3.3374,3.34,3.3387,3.3374,3.3374,3.3374,3.3374,3.3374,3.3387,3.3414,3.3414,3.3414,3.3414,3.3414,3.3414,3.3414,3.3414,3.3414,3.3507,3.3801,3.3841,3.4042,3.4629,3.4977,3.5164,3.5191,3.5191,3.5191,3.5191,3.5191,3.5191,3.5191,3.5191,3.5191,3.5191,3.5191,3.5191,3.5191,3.5191,3.5191,3.5191,3.5191,3.5191,3.5191,3.5191,3.5351,3.5578,3.5605,3.5832,2.4986,2.5031,2.5721,2.7342,2.9481,3.144,3.2634,3.324,3.3454,3.3227,3.34,3.3601,3.3601,3.3347,3.3253,3.3627,3.3801,3.3988,3.4282,3.4122,3.3975,3.3975,3.3708,3.3507,3.3507,3.324,3.3053,3.2986,3.2545,3.2265,3.2198,3.1757,3.1503,3.1503,3.1223,3.1209,3.1503,3.1223,3.1223,3.1503,3.1209,3.1036,3.0996,3.1223,3.1156,3.0889,3.0955,3.0982,3.1009,3.1289,3.1583,3.1898,3.1784,3.2166,3.2648,3.2353,3.2433,3.2688,3.2688,3.2688,3.2741,3.2973,3.3066,3.312,3.3347,3.3253,3.3066,3.3066,3.3066,3.3066,3.3066,3.324,3.3414,3.3414,3.3414,3.3414,3.3414,3.3414,3.3414,3.3414,3.3414,3.3427,3.3507,3.3507,3.3721,3.4322,3.467,3.4937,3.5164,3.5191,3.5191,3.5191,3.5191,3.5191,3.5191,3.5191,3.5191,3.5191,3.5191,3.5191,3.5191,3.5191,3.5191,3.5191,3.5191,3.5191,3.5191,3.5191,3.5351,3.5631,3.5872,3.6126,2.4274,2.4517,2.5434,2.8241,3.041,3.2104,3.3,3.3307,3.3374,3.3213,3.344,3.3654,3.3654,3.3521,3.3467,3.3627,3.3654,3.3708,3.3868,3.3748,3.3654,3.3654,3.3507,3.336,3.3213,3.2995,3.2701,3.242,3.1931,3.1623,3.1476,3.1183,3.1022,3.1022,3.0875,3.0862,3.1022,3.0862,3.0862,3.1009,3.0581,3.0221,2.998,3.0555,3.0648,3.0381,3.0528,3.0581,3.0621,3.1049,3.1316,3.1476,3.1657,3.1992,3.2291,3.1998,3.2078,3.238,3.238,3.238,3.2433,3.2728,3.2822,3.2848,3.2946,3.2942,3.2822,3.2822,3.2822,3.2848,3.2995,3.3093,3.324,3.3374,3.3414,3.3414,3.3414,3.3414,3.3414,3.3414,3.3414,3.3414,3.3414,3.3534,3.3788,3.4255,3.4576,3.4922,3.5164,3.5191,3.5191,3.5191,3.5191,3.5191,3.5191,3.5191,3.5191,3.5191,3.5191,3.5191,3.5191,3.5191,3.5191,3.5191,3.5191,3.5191,3.5191,3.5191,3.5351,3.5578,3.5792,3.6019,2.3404,2.4036,2.5348,2.8875,3.0862,3.2104,3.2692,3.3053,3.3267,3.3267,3.3347,3.34,3.3347,3.3334,3.332,3.3267,3.3267,3.3267,3.3267,3.3267,3.3267,3.3267,3.3267,3.316,3.2933,3.2648,3.2219,3.1684,3.1223,3.0902,3.0648,3.0541,3.0515,3.0568,3.0568,3.0568,3.0568,3.0568,3.0568,3.0555,3.002,2.9468,2.9028,2.9793,2.9993,2.978,3.002,3.0172,3.0226,3.0755,3.0996,3.1036,3.1383,3.169,3.1917,3.1677,3.177,3.2024,3.2024,3.2024,3.2078,3.242,3.2514,3.2527,3.2581,3.2554,3.2514,3.2514,3.2514,3.2581,3.2875,3.2995,3.3053,3.3347,3.3414,3.3414,3.3414,3.3414,3.3414,3.3414,3.3414,3.3414,3.3414,3.3681,3.3975,3.4202,3.4549,3.4909,3.5097,3.5164,3.5177,3.5124,3.5124,3.5124,3.5124,3.5124,3.5137,3.5191,3.5191,3.5191,3.5191,3.5191,3.5191,3.5191,3.5191,3.5191,3.5191,3.5191,3.5351,3.5578,3.5578,3.5792,2.2666,2.3805,2.5938,2.847,3.0215,3.149,3.2078,3.2452,3.2714,3.2714,3.3066,3.3334,3.308,3.304,3.3009,3.2755,3.2714,3.2714,3.2714,3.2714,3.2714,3.2714,3.2714,3.2701,3.2661,3.2152,3.165,3.1316,3.0541,3.0074,3.0034,2.9508,2.9392,2.9646,2.9659,2.9659,2.9659,2.9659,2.9659,2.9659,2.9325,2.9068,2.9001,2.9121,2.9148,2.9121,2.9148,2.9175,2.9215,2.9847,3.0087,3.014,3.0688,3.1089,3.1343,3.1303,3.1476,3.173,3.173,3.173,3.1818,3.2064,3.2158,3.2211,3.2514,3.242,3.2158,3.2158,3.2158,3.2225,3.2581,3.2835,3.3053,3.3347,3.3414,3.3414,3.3414,3.3414,3.3414,3.3414,3.3414,3.3414,3.3414,3.3681,3.3895,3.3935,3.4467,3.4829,3.4869,3.5044,3.5097,3.4895,3.4869,3.4869,3.4869,3.4869,3.4923,3.5177,3.5191,3.5191,3.5191,3.5191,3.5191,3.5191,3.5191,3.5191,3.5191,3.5191,3.5351,3.5578,3.5578,3.5792,2.3061,2.379,2.5224,2.8083,2.9646,3.0688,3.1436,3.1837,3.2099,3.2099,3.2251,3.2492,3.2755,3.2599,3.2505,3.2581,3.246,3.2407,3.2567,3.2594,3.2594,3.2594,3.2447,3.2286,3.2112,3.1417,3.0808,3.0515,2.9788,2.9388,2.9388,2.9135,2.9055,2.9232,2.9232,2.9232,2.9232,2.9232,2.9152,2.8991,2.8858,2.8711,2.8537,2.8537,2.8724,2.9001,2.9001,2.9001,2.9028,2.9499,2.9673,2.974,3.0327,3.0621,3.0755,3.0929,3.1062,3.1196,3.137,3.1423,3.1463,3.177,3.1864,3.1877,3.2059,3.2005,3.1864,3.1864,3.1864,3.1931,3.2225,3.2398,3.2559,3.2902,3.2933,3.2973,3.3133,3.3293,3.3414,3.3414,3.3414,3.2899,3.1365,3.2501,3.3163,3.1818,3.3161,3.4441,3.4775,3.487,3.491,3.4829,3.4815,3.4815,3.4815,3.4616,3.471,3.5164,3.5044,3.503,3.5191,3.5191,3.5191,3.5191,3.5191,3.5191,3.5191,3.5191,3.5257,3.5391,3.5391,3.5458,2.303,2.3306,2.4031,2.6787,2.8377,2.9486,3.0448,3.0955,3.1223,3.1223,3.1223,3.1356,3.1845,3.1877,3.1931,3.2126,3.1917,3.1851,3.2112,3.2152,3.2152,3.2152,3.1904,3.165,3.1417,3.0721,3.01,2.9682,2.9175,2.8855,2.8818,2.8804,2.8804,2.8804,2.8841,2.8855,2.8818,2.8804,2.8698,2.8484,2.8484,2.8406,2.8179,2.8179,2.8433,2.8804,2.8804,2.8804,2.8831,2.9138,2.9259,2.9312,2.982,3.0159,3.0319,3.0488,3.0662,3.0822,3.1036,3.1116,3.1156,3.137,3.145,3.145,3.145,3.1503,3.1557,3.1557,3.161,3.1744,3.2024,3.2104,3.2171,3.2527,3.2594,3.2674,3.2919,3.32,3.32,3.2485,3.2334,3.1466,2.8749,2.9977,3.0923,2.9833,3.1487,3.3262,3.4431,3.4603,3.4629,3.4601,3.4588,3.4628,3.4643,3.4376,3.4496,3.5151,3.4976,3.4949,3.5191,3.5191,3.5191,3.5191,3.5191,3.5191,3.5191,3.5191,3.5191,3.5191,3.5191,3.5191,2.1727,2.2007,2.2551,2.4039,2.5932,2.7709,2.8841,2.9548,3.0007,3.0007,3.0007,3.002,3.0047,3.0715,3.1183,3.0929,3.0875,3.0862,3.0875,3.0889,3.0889,3.0889,3.0875,3.0742,3.0507,3.0127,2.97,2.9081,2.8761,2.8497,2.8245,2.8232,2.8232,2.8232,2.847,2.8484,2.8232,2.8232,2.8219,2.8205,2.8205,2.8205,2.8179,2.8179,2.8205,2.8232,2.8232,2.8232,2.8259,2.8524,2.8657,2.8684,2.8948,2.9402,2.994,2.9953,3.0314,3.0795,3.0808,3.0808,3.0822,3.0835,3.0835,3.0835,3.0835,3.1036,3.1249,3.1249,3.145,3.1744,3.2024,3.2104,3.2171,3.2527,3.2594,3.2674,3.2919,3.32,3.2648,3.004,2.9522,2.8647,2.5881,2.5522,2.6444,2.8924,2.9707,3.0974,3.3616,3.4175,3.4242,3.3961,3.3935,3.4042,3.4322,3.4082,3.4282,3.5137,3.4976,3.4949,3.5191,3.5191,3.5191,3.5191,3.5191,3.5191,3.5191,3.5191,3.5191,3.5191,3.5191,3.5191,2.2551,2.1935,2.1525,2.3921,2.5034,2.5932,2.7267,2.8334,2.9072,2.9072,2.9175,2.9308,2.9308,2.9766,3.0127,3.0221,3.0074,3.002,3.0207,3.0234,3.0234,3.0234,3.006,2.9913,2.9806,2.9352,2.8991,2.8778,2.8484,2.8299,2.8192,2.8179,2.8179,2.8179,2.8286,2.8299,2.8179,2.8179,2.8179,2.8179,2.8179,2.8179,2.8179,2.8179,2.8179,2.8179,2.8179,2.8179,2.8192,2.8312,2.8353,2.8379,2.8644,2.8885,2.9098,2.9242,2.9442,2.97,2.9887,2.9953,2.998,3.0167,3.0354,3.056,3.056,3.0715,3.0942,3.0942,3.1022,3.1169,3.1463,3.1543,3.161,3.1965,3.2166,3.2291,3.2398,3.143,3.0226,2.9211,2.7772,2.5779,2.3062,2.5471,2.7578,2.6802,2.9745,3.2567,3.3753,3.3975,3.4002,3.3895,3.3881,3.3935,3.4042,3.3761,3.3881,3.4589,3.4536,3.4616,3.491,3.5097,3.5191,3.5191,3.5191,3.5191,3.5191,3.5191,3.5191,3.5191,3.5191,3.5191,2.2594,2.1928,2.1522,2.3491,2.3939,2.4334,2.5983,2.6921,2.7535,2.7923,2.8323,2.8617,2.8724,2.8898,2.9165,2.9553,2.9459,2.9406,2.9548,2.9619,2.9619,2.9619,2.9446,2.9299,2.9205,2.8831,2.8564,2.8457,2.8299,2.8179,2.8179,2.8179,2.8179,2.8179,2.8179,2.8179,2.8179,2.8179,2.8179,2.8179,2.8179,2.8179,2.8179,2.8179,2.8179,2.8179,2.8179,2.8179,2.8179,2.8179,2.8179,2.8205,2.8419,2.8511,2.8631,2.8775,2.8908,2.9028,2.9259,2.9339,2.9366,2.9553,2.9753,2.9913,2.9913,3.0194,3.0501,3.0501,3.0635,3.0835,3.1036,3.1156,3.1276,3.1476,3.1744,3.1718,3.0828,2.9726,2.8564,2.7683,2.6211,2.4253,2.1553,2.4906,2.7629,2.67,2.9674,3.2462,3.3593,3.3721,3.3721,3.3721,3.3721,3.3774,3.3881,3.3587,3.3668,3.4282,3.4322,3.4456,3.475,3.5044,3.5191,3.5191,3.5191,3.5191,3.5191,3.5191,3.5191,3.5191,3.5191,3.5191,0.0,0.0,0.0,2.2464,2.2445,2.2949,2.4894,2.517,2.5331,2.652,2.7215,2.7722,2.8085,2.8152,2.8353,2.8855,2.8961,2.8975,2.8975,2.8975,2.8961,2.8961,2.8961,2.8841,2.8591,2.8564,2.8444,2.8179,2.8165,2.8165,2.8165,2.8179,2.8179,2.8179,2.8179,2.8179,2.8179,2.8179,2.8165,2.8165,2.8165,2.8165,2.8165,2.8165,2.8165,2.8165,2.8165,2.8165,2.8179,2.8179,2.8179,2.8179,2.8179,2.8366,2.8591,2.8591,2.8735,2.8975,2.8975,2.8975,2.8975,2.8975,2.8975,2.8988,2.8988,2.9388,2.99,2.99,3.0327,3.0768,3.0782,3.0996,3.1162,3.1223,3.145,3.0972,2.8356,2.8277,2.7897,2.5315,2.4861,2.4087,2.1639,2.3517,2.624,2.8913,2.9369,3.0394,3.305,3.3414,3.3414,3.3414,3.3414,3.3534,3.3841,3.3587,3.3668,3.4255,3.4309,3.4391,3.4671,3.503,3.5191,3.5191,3.5191,3.5191,3.5191,3.5191,3.5191,3.5191,3.5191,3.5191,2.2709,0.0,0.0,0.0,0.0,0.0,2.1854,2.2445,2.33,2.4866,2.5545,2.6092,2.7014,2.7403,2.7603,2.7736,2.8152,2.8433,2.8433,2.8433,2.831,2.8096,2.807,2.7949,2.771,2.7684,2.7643,2.755,2.7737,2.7816,2.7816,2.8072,2.8179,2.8179,2.7978,2.7965,2.8179,2.7965,2.7816,2.7816,2.7816,2.775,2.755,2.755,2.755,2.755,2.755,2.767,2.7843,2.8098,2.8179,2.8179,2.8179,2.8232,2.8312,2.8312,2.8366,2.8433,2.8433,2.8433,2.8433,2.8433,2.8537,2.8724,2.8724,2.9138,2.9606,2.9606,2.9873,3.0207,3.0467,3.0702,3.0969,3.1122,3.1289,3.0676,2.832,2.7946,2.7379,2.5007,2.3203,2.2454,2.3839,2.6342,2.8393,2.9167,3.1,3.2535,3.3314,3.3414,3.3414,3.3414,3.3414,3.3454,3.3534,3.3467,3.348,3.3654,3.4082,3.4349,3.4429,3.4923,3.5191,3.5191,3.5191,3.5191,3.5191,3.5191,3.5191,3.5191,3.5191,3.5191,0.0,0.0,0.0,0.0,0.0,0.0,2.0446,2.0695,2.143,2.3292,2.4048,2.4663,2.568,2.6146,2.6479,2.672,2.7148,2.7536,2.7777,2.7817,2.775,2.7535,2.7522,2.7455,2.7322,2.7309,2.7309,2.7309,2.7415,2.7522,2.7522,2.7724,2.7817,2.7817,2.7643,2.7643,2.7817,2.7643,2.7522,2.7522,2.7522,2.7469,2.7309,2.7309,2.7309,2.7309,2.7309,2.7403,2.7535,2.775,2.7965,2.8179,2.8179,2.8179,2.8179,2.8179,2.8179,2.8179,2.8179,2.8179,2.8179,2.8179,2.8312,2.8417,2.8417,2.8751,2.9138,2.9259,2.9593,2.9953,3.0127,3.0394,3.0688,3.0982,3.1142,3.0585,2.8308,2.778,2.7113,2.4781,2.4237,2.4709,2.6456,2.9135,3.1012,3.1012,3.2384,3.3414,3.3414,3.3414,3.3414,3.3414,3.3414,3.3414,3.3414,3.3414,3.3414,3.3414,3.3868,3.4189,3.4322,3.4763,3.507,3.5191,3.5191,3.5191,3.5191,3.5191,3.5191,3.5191,3.5191,3.5191,0.0,0.0,0.0,0.0,0.0,0.0,2.0027,1.958,1.9736,2.163,2.2451,2.3145,2.4079,2.4596,2.5048,2.5569,2.5984,2.6426,2.7162,2.7255,2.7229,2.7162,2.7162,2.7148,2.7122,2.7108,2.7108,2.7108,2.7175,2.7229,2.7255,2.7282,2.7309,2.7309,2.7242,2.7242,2.7309,2.7202,2.7175,2.7202,2.7202,2.7188,2.7162,2.7188,2.7202,2.7202,2.7202,2.7229,2.7255,2.7255,2.7603,2.8138,2.8138,2.8152,2.8179,2.8179,2.8179,2.8179,2.8179,2.8179,2.8179,2.8179,2.8179,2.8179,2.8179,2.8406,2.8671,2.8948,2.9415,2.9873,2.9913,3.0114,3.044,3.0715,3.0996,3.0546,2.8296,2.802,2.7501,2.5026,2.6737,2.8788,2.9272,3.1602,3.3374,3.3414,3.3414,3.3414,3.3414,3.3414,3.3414,3.3414,3.3414,3.3414,3.3414,3.3414,3.3414,3.3414,3.3734,3.4055,3.4309,3.4643,3.4989,3.5191,3.5191,3.5191,3.5191,3.5191,3.5191,3.5191,3.5191,3.5191,0.0,0.0,0.0,0.0,0.0,0.0,1.9273,1.8375,1.825,1.9372,1.9893,2.0579,2.1943,2.2813,2.3362,2.3482,2.4315,2.54,2.672,2.6907,2.6734,2.6305,2.6252,2.6158,2.5879,2.5852,2.5852,2.5852,2.6293,2.6667,2.6894,2.7134,2.7309,2.7309,2.6841,2.6827,2.7309,2.66,2.6372,2.656,2.656,2.6479,2.6252,2.6493,2.656,2.656,2.656,2.6694,2.6907,2.6907,2.7255,2.7789,2.7789,2.7978,2.8179,2.8179,2.8179,2.8179,2.8179,2.8179,2.8179,2.8179,2.8179,2.8179,2.8179,2.8406,2.8711,2.9245,2.9486,2.9619,2.986,2.9967,3.014,3.0662,3.0835,3.0311,2.826,2.9434,3.0175,2.7598,2.771,2.9127,3.1767,3.2666,3.3146,3.3374,3.3414,3.3414,3.3414,3.3414,3.3414,3.3414,3.3414,3.3414,3.3414,3.3414,3.3414,3.3414,3.3935,3.4269,3.4322,3.483,3.5137,3.5191,3.5191,3.5191,3.5191,3.5191,3.5191,3.5191,3.5191,3.5191,0.0,0.0,0.0,2.2051,0.0,0.0,0.0,1.7479,1.7275,1.8464,1.8584,1.8906,2.0244,2.086,2.1341,2.1897,2.2739,2.3692,2.4879,2.5585,2.5852,2.5596,2.5384,2.5237,2.5053,2.5039,2.5144,2.5291,2.5705,2.6012,2.6159,2.6306,2.6386,2.6386,2.6106,2.6092,2.6386,2.5959,2.5812,2.5945,2.5945,2.5879,2.5745,2.6078,2.6212,2.6225,2.6333,2.6466,2.66,2.66,2.6867,2.7281,2.7428,2.7655,2.7965,2.7965,2.8058,2.8179,2.8179,2.8179,2.8179,2.8179,2.8179,2.8179,2.8179,2.8406,2.8671,2.8965,2.9152,2.9325,2.9619,2.9659,2.978,3.0421,3.0755,3.0697,2.9681,2.962,2.9386,2.8068,2.686,2.7037,3.0181,3.0976,3.1202,3.134,3.2535,3.3414,3.3414,3.3414,3.3414,3.3414,3.3414,3.3414,3.3414,3.3414,3.3414,3.3414,3.3855,3.4162,3.4309,3.475,3.5044,3.5191,3.5191,3.5191,3.5191,3.5191,3.5191,3.5191,3.5191,3.5271,0.0,0.0,0.0,0.0,0.0,1.8561,0.0,0.0,0.0,1.7769,1.7635,1.7662,1.8692,1.8973,1.9361,2.0281,2.1069,2.1804,2.2472,2.3474,2.4275,2.4646,2.4436,2.4279,2.4346,2.4292,2.4449,2.4834,2.4997,2.517,2.5331,2.5398,2.5451,2.5518,2.5464,2.5451,2.5518,2.5398,2.5371,2.5424,2.5424,2.5424,2.5438,2.577,2.5904,2.5879,2.5714,2.5649,2.5609,2.5267,2.5461,2.6107,2.6919,2.7403,2.7615,2.7615,2.7844,2.8098,2.8098,2.8138,2.8179,2.8179,2.8179,2.8179,2.8179,2.8366,2.8524,2.8591,2.8778,2.8975,2.9325,2.9379,2.9513,3.0127,3.0662,3.0923,3.0527,2.9045,2.778,2.778,2.5717,2.4904,2.7957,2.8834,2.9415,3.0016,3.1982,3.3414,3.3414,3.3414,3.3414,3.3414,3.3414,3.3414,3.3414,3.3414,3.3414,3.3414,3.3708,3.4015,3.4309,3.4656,3.4963,3.5191,3.5191,3.5191,3.5191,3.5191,3.5191,3.5191,3.5257,3.5404,0.0,0.0,0.0,0.0,2.1341,0.0,0.0,0.0,1.6899,1.6235,0.0,1.6565,1.6941,0.0,0.0,1.7983,1.9145,2.0,1.987,2.0374,2.1363,2.296,2.3121,2.3166,2.3412,2.322,2.3335,2.391,2.3701,2.3879,2.4653,2.4983,2.5251,2.5504,2.5264,2.5251,2.5504,2.4959,2.4863,2.5168,2.5168,2.5168,2.5144,2.5424,2.5558,2.5443,2.3699,2.2925,2.282,2.1158,2.1613,2.3566,2.596,2.7054,2.7362,2.7362,2.7495,2.7749,2.7749,2.7965,2.8179,2.8179,2.8179,2.8179,2.8179,2.8205,2.8299,2.8524,2.8631,2.8724,2.8975,2.9272,2.9553,2.9887,3.0408,3.0286,2.8195,2.7783,2.778,2.778,2.5761,2.5043,2.814,2.8701,2.9697,3.252,3.32,3.3414,3.3414,3.3414,3.3414,3.3414,3.3414,3.3414,3.3414,3.3414,3.3414,3.3414,3.3708,3.4015,3.4309,3.4857,3.5164,3.5191,3.5191,3.5191,3.5191,3.5191,3.5191,3.5204,3.5458,3.5591,0.0,0.0,0.0,0.0,0.0,0.0,1.7703,0.0,1.638,0.0,0.0,0.0,0.0,0.0,0.0,0.0,1.8023,1.8625,1.8824,1.9065,1.9813,2.1435,2.1328,2.1269,2.175,2.2171,2.2425,2.2505,2.2686,2.3033,2.3581,2.4098,2.4419,2.4502,2.4543,2.4556,2.4502,2.4262,2.4275,2.4569,2.4569,2.4663,2.4786,2.3793,2.3392,2.3351,2.1413,2.0631,2.0646,1.9842,2.0787,2.2799,2.4049,2.5535,2.7001,2.7001,2.7188,2.7468,2.7642,2.7776,2.7951,2.8125,2.8179,2.8179,2.8179,2.8179,2.8219,2.8339,2.8379,2.8486,2.8868,2.8871,2.8955,2.9726,3.01,3.0088,2.9445,2.8373,2.7556,2.7745,2.5712,2.4789,2.7339,2.8343,2.9286,3.0564,3.2281,3.3414,3.3414,3.3414,3.3414,3.3414,3.3414,3.3414,3.3414,3.3414,3.3494,3.3681,3.3975,3.4269,3.4563,3.4817,3.5017,3.5191,3.5191,3.5191,3.5191,3.5191,3.5191,3.5204,3.5498,3.5725,2.3939,0.0,0.0,0.0,0.0,0.0,0.0,0.0,0.0,0.0,0.0,0.0,0.0,0.0,0.0,0.0,0.0,1.7582,1.7876,1.7916,1.8424,1.9936,1.992,2.0027,2.0646,2.1109,2.1435,2.1462,2.1603,2.1964,2.2626,2.3148,2.3474,2.3647,2.3928,2.3981,2.3803,2.3803,2.391,2.4088,2.4088,2.4195,2.4322,2.2473,2.1702,2.1665,1.9243,1.8251,1.8271,1.7792,1.8827,2.0802,2.1592,2.3435,2.5711,2.644,2.6894,2.7175,2.7388,2.7509,2.7629,2.7965,2.8058,2.8072,2.8165,2.8179,2.8179,2.8179,2.8179,2.8286,2.8684,2.8537,2.8553,2.9446,2.9793,2.9893,2.9761,2.8437,2.7415,2.7733,2.6264,2.5701,2.7951,2.8619,2.916,3.0015,3.1992,3.3414,3.3414,3.3414,3.3414,3.3414,3.3414,3.3414,3.3414,3.3414,3.3507,3.3748,3.4108,3.4416,3.4629,3.4775,3.4949,3.5191,3.5191,3.5191,3.5191,3.5191,3.5191,3.5204,3.5578,3.5872,0.0,2.215,0.0,1.8851,0.0,0.0,0.0,0.0,1.7368,0.0,0.0,0.0,0.0,0.0,0.0,0.0,0.0,0.0,0.0,1.6364,1.6926,1.8411,1.9292,2.0027,2.0646,2.0187,2.0214,2.1056,2.0347,2.0508,2.1937,2.2298,2.2692,2.3292,2.3634,2.3817,2.3803,2.3803,2.3803,2.3817,2.3817,2.383,2.3772,2.2007,2.1237,2.1028,1.7246,1.5625,1.5497,1.3681,1.421,1.6428,1.8495,2.0667,2.2937,2.5465,2.6587,2.6841,2.6854,2.7041,2.7362,2.7615,2.7709,2.7762,2.8098,2.8179,2.8179,2.8179,2.8179,2.8192,2.8205,2.8419,2.8671,2.8948,2.9455,2.9384,2.7445,2.7146,2.7415,2.7733,2.7732,2.8512,3.1107,2.9942,2.9724,3.2794,3.335,3.3414,3.3414,3.3414,3.3414,3.3414,3.3414,3.3414,3.3414,3.3414,3.3414,3.3427,3.3988,3.4322,3.4336,3.4616,3.4949,3.5191,3.5191,3.5191,3.5191,3.5191,3.5191,3.5204,3.5792,3.6059,2.2241,2.1782,2.0981,1.9329,1.8624,1.7996,0.0,0.0,0.0,0.0,0.0,0.0,0.0,0.0,0.0,0.0,0.0,0.0,0.0,1.5979,1.6313,1.7208,1.8076,1.8557,1.8384,1.8732,1.8971,1.905,1.9143,1.9613,2.0494,2.155,2.2231,2.2432,2.3113,2.338,2.3201,2.3201,2.3273,2.3474,2.3474,2.2917,2.1809,1.9798,1.8295,1.715,1.4423,1.3331,1.346,1.2827,1.3804,1.5919,1.8193,2.033,2.2484,2.5166,2.6198,2.6306,2.6694,2.7148,2.7562,2.7669,2.7829,2.8045,2.8152,2.8179,2.8179,2.8179,2.8179,2.8232,2.8433,2.8419,2.8513,2.9165,2.9339,2.9326,2.944,2.9538,2.9789,3.0264,3.0401,3.0639,3.1569,3.1469,3.1656,3.2714,3.316,3.3414,3.3414,3.3414,3.3414,3.3414,3.3414,3.3414,3.3414,3.3601,3.3641,3.3427,3.3801,3.4042,3.4042,3.4309,3.4603,3.491,3.5097,3.5284,3.5485,3.5485,3.5578,3.5778,3.5979,3.6072,2.1319,2.0902,2.0231,1.9562,1.9107,1.849,1.7288,1.7716,1.817,0.0,0.0,0.0,0.0,0.0,0.0,0.0,0.0,0.0,0.0,1.5808,1.5941,1.6328,1.7062,1.7502,1.7354,1.7755,1.7983,1.7862,1.8237,1.8744,1.9452,2.0681,2.151,2.185,2.2592,2.2953,2.2893,2.2893,2.3,2.3166,2.3166,2.2256,2.0544,1.8542,1.6684,1.4992,1.2962,1.2207,1.2345,1.2345,1.3168,1.4664,1.7578,1.9588,2.1224,2.4701,2.6065,2.6225,2.6653,2.7068,2.7415,2.7629,2.7871,2.8045,2.8152,2.8179,2.8232,2.8446,2.8353,2.8286,2.8657,2.8457,2.8379,2.9138,2.9179,2.9282,3.0408,3.0715,3.0929,3.1423,3.1644,3.1711,3.1711,3.2112,3.25,3.2674,3.308,3.3414,3.3414,3.3414,3.3414,3.3414,3.3414,3.3414,3.3414,3.3708,3.3801,3.3587,3.3868,3.4042,3.4042,3.4322,3.471,3.527,3.5204,3.5498,3.6045,3.5725,3.5725,3.5912,3.6019,3.6072]},{"header":{"parameterUnit":"m.s-1","parameterCategory":1,"la1":30.6,"la2":29.2853,"lo1":-89.7004,"lo2":-87.6739,"dy":0.0162,"dx":0.0183,"nx":112,"ny":82,"refTime":"2023-04-10T06:00:00:Z","depth":0,"parameterNumber":3,"parameterNumberName":"V-component_of_WINDS"},"data":[0.0,0.0,0.0,0.0,0.0,0.0,0.0,0.0,0.0,0.0,0.0,0.0,0.0,0.0,0.0,0.0,0.0,0.0,0.0,0.0,0.0,0.0,0.0,0.0,0.0,0.0,0.0,0.0,0.0,0.0,0.0,0.0,0.0,0.0,0.0,0.0,0.0,0.0,0.0,0.0,0.0,0.0,0.0,0.0,0.0,0.0,0.0,0.0,0.0,0.0,0.0,0.0,0.0,0.0,0.0,0.0,0.0,0.0,0.0,0.0,0.0,0.0,0.0,0.0,0.0,0.0,0.0,0.0,0.0,0.0,0.0,0.0,0.0,0.0,0.0,0.0,0.0,0.0,0.0,0.0,0.0,0.0,0.0,0.0,0.0,0.0,0.0,0.0,0.0,0.0,5.9488,6.3851,7.175,7.5509,7.2619,7.1027,6.7165,6.0044,0.0,0.0,0.0,0.0,0.0,0.0,0.0,0.0,0.0,0.0,0.0,0.0,0.0,0.0,0.0,0.0,0.0,0.0,0.0,0.0,0.0,0.0,0.0,0.0,0.0,0.0,0.0,0.0,0.0,0.0,0.0,0.0,0.0,0.0,0.0,0.0,0.0,0.0,0.0,0.0,0.0,0.0,0.0,0.0,0.0,0.0,0.0,0.0,0.0,0.0,0.0,0.0,0.0,0.0,0.0,0.0,0.0,0.0,0.0,0.0,0.0,0.0,0.0,0.0,0.0,0.0,0.0,0.0,0.0,0.0,0.0,0.0,0.0,0.0,0.0,0.0,0.0,0.0,0.0,0.0,0.0,0.0,0.0,0.0,0.0,0.0,0.0,0.0,0.0,0.0,0.0,0.0,0.0,0.0,0.0,0.0,0.0,0.0,0.0,0.0,0.0,0.0,0.0,0.0,6.0761,6.9813,7.4331,7.6206,7.5041,7.0568,6.6225,6.2437,0.0,0.0,0.0,0.0,0.0,0.0,0.0,0.0,0.0,0.0,0.0,0.0,0.0,0.0,0.0,0.0,0.0,0.0,0.0,0.0,0.0,0.0,0.0,0.0,0.0,0.0,0.0,0.0,0.0,0.0,0.0,0.0,0.0,0.0,0.0,0.0,0.0,0.0,0.0,0.0,0.0,0.0,0.0,0.0,0.0,0.0,0.0,0.0,0.0,0.0,0.0,0.0,0.0,0.0,0.0,0.0,0.0,0.0,0.0,0.0,0.0,0.0,0.0,0.0,0.0,0.0,0.0,0.0,0.0,0.0,0.0,0.0,0.0,0.0,0.0,0.0,0.0,0.0,0.0,0.0,0.0,0.0,0.0,0.0,0.0,0.0,0.0,0.0,0.0,0.0,0.0,0.0,0.0,0.0,0.0,0.0,0.0,0.0,0.0,0.0,0.0,0.0,0.0,6.2451,6.7455,7.5926,7.8909,7.9594,7.7808,7.2598,6.7707,6.3657,5.8492,0.0,0.0,0.0,0.0,0.0,0.0,0.0,0.0,0.0,0.0,0.0,0.0,0.0,0.0,0.0,0.0,0.0,0.0,0.0,0.0,0.0,0.0,0.0,0.0,0.0,0.0,0.0,0.0,0.0,0.0,0.0,0.0,0.0,0.0,0.0,0.0,0.0,0.0,0.0,0.0,0.0,0.0,0.0,0.0,0.0,0.0,0.0,0.0,0.0,0.0,0.0,0.0,0.0,0.0,0.0,0.0,0.0,0.0,0.0,0.0,0.0,0.0,0.0,0.0,0.0,0.0,0.0,0.0,0.0,0.0,0.0,0.0,0.0,0.0,0.0,0.0,0.0,0.0,0.0,0.0,0.0,0.0,0.0,0.0,0.0,0.0,0.0,0.0,0.0,0.0,0.0,0.0,0.0,0.0,0.0,0.0,0.0,0.0,0.0,0.0,0.0,0.0,6.9849,7.4428,8.0401,8.2462,8.2434,8.0072,7.4186,6.8822,6.4516,5.7844,0.0,0.0,0.0,0.0,0.0,0.0,0.0,0.0,0.0,0.0,0.0,0.0,0.0,0.0,0.0,0.0,0.0,0.0,0.0,0.0,0.0,0.0,0.0,0.0,0.0,0.0,0.0,0.0,0.0,0.0,0.0,0.0,0.0,0.0,0.0,0.0,0.0,0.0,0.0,0.0,0.0,0.0,0.0,0.0,0.0,0.0,0.0,0.0,0.0,0.0,0.0,0.0,0.0,0.0,0.0,0.0,0.0,0.0,0.0,0.0,0.0,0.0,0.0,0.0,0.0,0.0,0.0,0.0,0.0,0.0,0.0,0.0,0.0,0.0,0.0,0.0,0.0,0.0,0.0,0.0,0.0,0.0,0.0,0.0,0.0,0.0,0.0,0.0,0.0,0.0,0.0,0.0,0.0,0.0,0.0,0.0,0.0,0.0,0.0,0.0,0.0,0.0,7.2293,7.8857,8.1765,8.2887,8.2741,8.1041,7.3641,6.7992,6.5455,5.7229,0.0,0.0,0.0,0.0,0.0,0.0,0.0,0.0,0.0,0.0,0.0,0.0,0.0,0.0,0.0,0.0,0.0,0.0,0.0,0.0,0.0,0.0,0.0,0.0,0.0,0.0,0.0,0.0,0.0,0.0,0.0,0.0,0.0,0.0,0.0,0.0,0.0,0.0,0.0,0.0,0.0,0.0,0.0,0.0,0.0,0.0,0.0,0.0,0.0,0.0,0.0,0.0,0.0,0.0,0.0,0.0,0.0,0.0,0.0,0.0,0.0,0.0,0.0,0.0,0.0,0.0,0.0,0.0,0.0,0.0,0.0,0.0,0.0,0.0,0.0,0.0,0.0,0.0,0.0,0.0,0.0,0.0,0.0,0.0,0.0,0.0,0.0,0.0,0.0,0.0,0.0,0.0,0.0,0.0,0.0,0.0,0.0,0.0,0.0,0.0,0.0,0.0,7.3384,7.9426,0.0,8.4278,8.3253,8.0991,7.4381,6.8644,6.4706,0.0,0.0,0.0,0.0,0.0,0.0,0.0,0.0,0.0,0.0,0.0,0.0,0.0,0.0,0.0,0.0,0.0,0.0,0.0,0.0,0.0,0.0,0.0,0.0,0.0,0.0,0.0,0.0,0.0,0.0,0.0,0.0,0.0,0.0,0.0,0.0,0.0,0.0,0.0,0.0,0.0,0.0,0.0,0.0,0.0,0.0,0.0,0.0,0.0,0.0,0.0,0.0,0.0,0.0,0.0,0.0,0.0,0.0,0.0,0.0,0.0,0.0,0.0,0.0,0.0,0.0,0.0,0.0,0.0,0.0,0.0,0.0,0.0,0.0,0.0,0.0,0.0,0.0,0.0,0.0,0.0,0.0,0.0,0.0,0.0,0.0,0.0,0.0,0.0,0.0,0.0,0.0,0.0,0.0,0.0,0.0,0.0,0.0,0.0,0.0,0.0,0.0,6.8307,7.479,8.0645,0.0,8.5086,8.3537,8.093,7.3991,6.808,6.4162,0.0,0.0,0.0,0.0,0.0,0.0,0.0,0.0,0.0,0.0,0.0,0.0,0.0,0.0,0.0,0.0,0.0,0.0,0.0,0.0,0.0,0.0,0.0,0.0,0.0,0.0,0.0,0.0,0.0,0.0,0.0,0.0,0.0,0.0,0.0,0.0,0.0,0.0,0.0,0.0,0.0,0.0,0.0,0.0,0.0,0.0,0.0,0.0,0.0,0.0,0.0,0.0,0.0,0.0,0.0,0.0,0.0,0.0,0.0,0.0,0.0,0.0,0.0,0.0,0.0,0.0,0.0,0.0,0.0,0.0,0.0,0.0,0.0,0.0,0.0,0.0,0.0,0.0,0.0,0.0,0.0,0.0,0.0,0.0,0.0,0.0,0.0,0.0,0.0,0.0,0.0,0.0,0.0,0.0,0.0,0.0,0.0,0.0,0.0,0.0,0.0,0.0,6.8745,7.6742,8.3141,8.5527,8.5086,8.3537,8.0876,7.2105,6.5899,0.0,0.0,0.0,0.0,0.0,0.0,0.0,0.0,0.0,0.0,0.0,0.0,0.0,0.0,0.0,0.0,0.0,0.0,0.0,0.0,0.0,0.0,0.0,0.0,0.0,0.0,0.0,0.0,0.0,0.0,0.0,0.0,0.0,0.0,0.0,0.0,0.0,0.0,0.0,0.0,0.0,0.0,0.0,0.0,0.0,0.0,0.0,0.0,0.0,0.0,0.0,0.0,0.0,0.0,0.0,0.0,0.0,0.0,0.0,0.0,0.0,0.0,0.0,0.0,0.0,0.0,0.0,0.0,0.0,0.0,0.0,0.0,0.0,0.0,0.0,0.0,0.0,0.0,0.0,0.0,0.0,0.0,0.0,0.0,0.0,0.0,0.0,0.0,0.0,0.0,0.0,0.0,0.0,0.0,0.0,0.0,0.0,0.0,0.0,0.0,0.0,0.0,0.0,7.1019,7.8223,8.3765,8.56,8.5086,8.3003,7.9067,7.2299,6.6707,6.3072,0.0,0.0,0.0,0.0,0.0,0.0,0.0,0.0,0.0,0.0,0.0,0.0,0.0,0.0,0.0,0.0,0.0,0.0,0.0,0.0,0.0,0.0,0.0,0.0,0.0,0.0,0.0,0.0,0.0,0.0,0.0,0.0,0.0,0.0,0.0,0.0,0.0,0.0,0.0,0.0,0.0,0.0,0.0,0.0,0.0,0.0,0.0,0.0,0.0,0.0,0.0,0.0,0.0,0.0,0.0,0.0,0.0,0.0,0.0,0.0,0.0,0.0,0.0,0.0,0.0,0.0,0.0,0.0,0.0,0.0,0.0,0.0,0.0,0.0,0.0,0.0,0.0,0.0,0.0,0.0,0.0,0.0,0.0,0.0,0.0,0.0,0.0,0.0,0.0,0.0,0.0,0.0,0.0,0.0,0.0,0.0,0.0,0.0,0.0,0.0,0.0,0.0,7.2526,7.9087,8.4005,8.5654,8.4792,8.2619,7.8861,7.2317,6.6724,6.2816,0.0,0.0,0.0,0.0,0.0,0.0,0.0,0.0,0.0,0.0,0.0,0.0,0.0,0.0,0.0,0.0,0.0,0.0,0.0,0.0,0.0,0.0,0.0,0.0,0.0,0.0,0.0,0.0,0.0,0.0,0.0,0.0,0.0,0.0,0.0,0.0,0.0,0.0,0.0,0.0,0.0,0.0,0.0,0.0,0.0,0.0,0.0,0.0,0.0,0.0,0.0,0.0,0.0,0.0,0.0,0.0,0.0,0.0,0.0,0.0,0.0,0.0,0.0,0.0,0.0,0.0,0.0,0.0,0.0,0.0,0.0,0.0,0.0,0.0,0.0,0.0,0.0,0.0,0.0,0.0,0.0,0.0,0.0,0.0,0.0,0.0,0.0,0.0,0.0,0.0,0.0,0.0,0.0,0.0,0.0,0.0,0.0,0.0,0.0,0.0,0.0,0.0,7.3377,7.9507,8.4132,8.5747,8.4462,8.2423,7.9737,7.2469,6.6541,6.3119,0.0,0.0,0.0,0.0,0.0,0.0,0.0,0.0,0.0,0.0,0.0,0.0,0.0,0.0,0.0,0.0,0.0,0.0,0.0,0.0,0.0,0.0,0.0,0.0,0.0,0.0,0.0,0.0,0.0,0.0,0.0,0.0,0.0,0.0,0.0,0.0,0.0,0.0,0.0,0.0,0.0,0.0,0.0,0.0,0.0,0.0,0.0,0.0,0.0,0.0,0.0,0.0,0.0,0.0,0.0,0.0,0.0,0.0,0.0,0.0,5.4426,5.3753,0.0,0.0,0.0,0.0,0.0,0.0,0.0,0.0,0.0,0.0,0.0,0.0,0.0,0.0,0.0,0.0,0.0,0.0,0.0,0.0,0.0,0.0,0.0,0.0,0.0,0.0,0.0,0.0,0.0,0.0,0.0,0.0,0.0,0.0,0.0,0.0,0.0,0.0,0.0,0.0,7.4221,8.0314,8.4976,8.6591,8.5306,8.3025,7.9773,7.3938,6.8505,6.3954,5.8526,0.0,0.0,0.0,0.0,0.0,0.0,0.0,0.0,0.0,0.0,0.0,0.0,0.0,0.0,0.0,0.0,0.0,0.0,0.0,0.0,0.0,0.0,0.0,0.0,0.0,0.0,0.0,0.0,0.0,0.0,0.0,0.0,0.0,0.0,0.0,0.0,0.0,0.0,0.0,0.0,0.0,0.0,0.0,0.0,0.0,0.0,0.0,0.0,0.0,0.0,0.0,0.0,0.0,0.0,0.0,0.0,0.0,0.0,0.0,5.7991,5.6166,0.0,0.0,0.0,0.0,0.0,0.0,0.0,0.0,0.0,0.0,0.0,0.0,0.0,0.0,0.0,0.0,0.0,0.0,0.0,0.0,0.0,0.0,0.0,0.0,0.0,0.0,0.0,0.0,0.0,0.0,0.0,0.0,0.0,0.0,0.0,0.0,0.0,0.0,0.0,0.0,7.613,8.1305,8.5086,8.6297,8.4646,8.2425,7.9854,7.4829,6.9907,6.5423,6.0653,0.0,0.0,0.0,0.0,0.0,0.0,0.0,0.0,0.0,0.0,0.0,0.0,0.0,0.0,0.0,0.0,0.0,0.0,0.0,0.0,0.0,0.0,0.0,0.0,0.0,0.0,0.0,0.0,0.0,0.0,0.0,0.0,0.0,0.0,0.0,0.0,0.0,0.0,0.0,0.0,0.0,0.0,0.0,0.0,0.0,0.0,0.0,0.0,0.0,0.0,0.0,0.0,0.0,6.5696,6.6779,6.803,6.9282,6.9451,6.8494,6.3693,6.0712,5.9287,5.9505,0.0,0.0,0.0,0.0,0.0,0.0,0.0,0.0,0.0,0.0,0.0,0.0,0.0,0.0,0.0,0.0,0.0,0.0,0.0,0.0,0.0,0.0,6.2593,6.7064,6.7313,6.5128,6.0029,0.0,0.0,0.0,0.0,0.0,0.0,0.0,0.0,0.0,0.0,0.0,7.8075,8.2333,8.5233,8.6297,8.4132,8.1966,8.0367,7.5964,7.1526,6.7354,6.3425,5.9564,0.0,0.0,0.0,0.0,0.0,0.0,0.0,0.0,0.0,0.0,0.0,0.0,0.0,0.0,0.0,0.0,0.0,0.0,0.0,0.0,0.0,0.0,0.0,0.0,0.0,0.0,0.0,0.0,0.0,0.0,0.0,0.0,5.416,5.416,0.0,0.0,0.0,0.0,0.0,0.0,0.0,0.0,0.0,0.0,0.0,0.0,0.0,6.4513,6.5127,6.8247,6.9654,6.9316,7.1368,7.2451,7.262,7.2857,7.4244,7.642,7.434,0.0,6.4532,6.2685,0.0,0.0,0.0,0.0,0.0,0.0,0.0,0.0,0.0,0.0,0.0,0.0,0.0,0.0,0.0,0.0,0.0,0.0,0.0,0.0,0.0,0.0,7.128,7.1431,7.203,7.2348,7.1584,6.6471,6.1577,6.0004,5.8275,5.719,0.0,0.0,0.0,0.0,0.0,0.0,7.9008,8.3157,8.6481,8.8702,8.6133,8.3618,8.2003,7.8571,7.4483,6.9758,6.6285,6.2875,5.9528,5.6713,0.0,0.0,0.0,0.0,0.0,0.0,0.0,0.0,0.0,0.0,0.0,0.0,0.0,0.0,0.0,0.0,0.0,0.0,0.0,0.0,0.0,0.0,0.0,0.0,0.0,0.0,0.0,0.0,0.0,5.5141,5.6461,5.4803,5.663,5.6984,0.0,0.0,0.0,0.0,0.0,0.0,0.0,0.0,0.0,6.3875,6.7524,6.9748,7.0385,7.3493,7.5506,7.6478,7.7841,7.8957,7.9769,8.0209,8.1148,8.2366,8.2103,7.96,7.527,6.9688,6.6237,6.4241,0.0,0.0,0.0,0.0,6.2801,6.4208,6.5472,6.5371,6.4749,6.5202,0.0,0.0,0.0,0.0,0.0,0.0,0.0,6.732,6.9536,7.3012,7.6423,7.8465,7.9269,7.9643,7.9828,7.5568,7.0401,6.606,6.4336,6.2997,6.1098,6.1923,0.0,0.0,0.0,7.5616,8.0514,8.3891,8.6371,8.7895,8.5583,8.3287,8.1672,7.9312,7.6221,7.2209,6.9317,6.6281,6.3002,6.0266,5.822,0.0,0.0,0.0,0.0,0.0,0.0,0.0,0.0,0.0,0.0,0.0,0.0,0.0,0.0,0.0,0.0,0.0,0.0,0.0,0.0,0.0,0.0,0.0,0.0,0.0,0.0,0.0,0.0,5.7543,5.8761,5.5802,5.8896,5.9742,0.0,0.0,0.0,0.0,0.0,0.0,6.528,6.7057,6.8913,7.097,7.3969,7.6082,7.7222,7.96,8.1689,8.3313,8.3862,8.4809,8.6034,8.6636,8.7008,8.7239,8.7583,8.6771,8.4606,7.6589,7.1954,6.9688,6.7455,6.6474,6.6474,6.776,6.8707,6.9586,7.1278,7.1007,6.9857,6.9282,6.7218,6.4546,6.2279,0.0,0.0,0.0,0.0,7.1905,7.5886,7.86,8.1188,8.4646,8.5637,8.5882,8.6086,8.3287,7.8816,7.2312,7.0168,6.85,6.5581,6.6561,0.0,6.8539,7.3102,7.8002,8.226,8.4903,8.6628,8.7234,8.5143,8.3124,8.1746,7.9947,7.7651,7.4655,7.2117,6.9439,6.654,6.3683,6.0926,5.8287,0.0,0.0,0.0,0.0,0.0,0.0,0.0,0.0,0.0,0.0,0.0,0.0,0.0,0.0,0.0,0.0,0.0,0.0,0.0,0.0,0.0,0.0,0.0,0.0,0.0,0.0,0.0,0.0,0.0,5.8103,6.3497,0.0,0.0,0.0,0.0,6.4079,6.5955,6.8446,7.1773,7.3982,7.6854,8.0496,8.2821,8.5019,8.7245,8.8119,8.8592,8.8728,8.8761,8.9173,8.9918,8.9985,9.0357,9.1,9.0324,8.9985,8.9275,8.1799,7.7367,7.51,7.2868,7.1582,7.1052,7.1819,7.2597,7.3229,7.3364,7.2868,7.2563,7.4593,7.3747,7.1481,6.9248,6.9927,0.0,0.0,7.5128,7.8271,8.0658,8.3773,8.6694,8.8281,8.9506,9.0281,9.0317,8.8353,8.4649,7.8149,7.3802,7.1103,7.0914,0.0,7.1843,7.4125,7.8007,8.1599,8.4168,8.6591,8.8096,8.8133,8.5967,8.4205,8.3344,8.1085,7.8914,7.6973,7.4422,7.2218,7.0387,6.6533,6.37,6.2144,5.8626,0.0,0.0,0.0,0.0,0.0,0.0,0.0,0.0,0.0,0.0,0.0,0.0,0.0,0.0,0.0,0.0,0.0,0.0,0.0,0.0,0.0,0.0,0.0,0.0,0.0,0.0,0.0,0.0,6.5852,6.9586,0.0,6.688,6.6954,6.8291,7.0827,7.3039,7.6013,8.0048,8.2408,8.4674,8.6941,8.8706,8.9991,9.0802,9.1609,9.201,9.201,9.201,9.2116,9.2387,9.2387,9.2522,9.2759,9.2489,9.2387,9.2184,8.9512,8.596,8.1968,7.9735,7.8382,7.7874,7.9092,7.9701,8.0006,8.0479,8.0175,7.9126,7.6521,7.4742,7.3503,7.3172,7.4452,7.647,7.8649,8.101,8.3404,8.5698,8.8121,9.0244,9.1357,9.2296,9.2831,9.2317,9.1106,8.9271,8.639,8.217,7.8757,7.7729,7.7965,7.8442,7.8757,8.1379,8.4022,8.5894,8.6921,8.7619,8.8133,8.604,8.4278,8.3454,8.1195,7.9286,7.8102,7.6055,7.4136,7.2531,6.9412,6.6116,6.266,6.0183,5.7881,0.0,0.0,0.0,0.0,0.0,0.0,0.0,0.0,0.0,0.0,0.0,0.0,0.0,0.0,0.0,0.0,0.0,0.0,0.0,0.0,0.0,0.0,0.0,0.0,0.0,6.7015,7.1109,7.1616,7.5202,7.6657,7.4164,7.4627,7.6115,7.8585,8.1054,8.3862,8.7049,8.9173,9.0831,9.2049,9.3064,9.3673,9.3943,9.4451,9.4717,9.4717,9.4958,9.506,9.5093,9.533,9.5296,9.5093,9.533,9.5296,9.506,9.506,9.2895,8.9337,8.7042,8.5554,8.4809,8.6061,8.6332,8.6163,8.6433,8.5977,8.472,8.1263,7.9626,7.9079,7.9584,8.1072,8.3065,8.5059,8.7004,8.8827,9.0333,9.1668,9.2794,9.3382,9.3896,9.4153,9.3602,9.2831,9.2097,9.1546,8.7986,8.4592,8.3234,8.3471,8.3654,8.3104,8.4849,8.6518,8.7325,8.7638,8.7785,8.7802,8.5894,8.4278,8.3454,8.0861,7.8703,7.7404,7.475,7.2602,7.1067,6.898,6.6086,6.2318,6.0081,5.7679,5.4955,0.0,0.0,0.0,0.0,0.0,0.0,0.0,0.0,0.0,0.0,0.0,0.0,0.0,0.0,0.0,0.0,0.0,0.0,0.0,0.0,0.0,0.0,0.0,6.4918,7.1887,7.6521,7.5144,8.0141,8.2611,7.9837,8.2847,8.5587,8.7076,8.985,9.1812,9.2527,9.4011,9.5161,9.5872,9.5939,9.6277,9.7018,9.7018,9.7018,9.7018,9.7732,9.807,9.8104,9.8815,9.8747,9.8104,9.8815,9.8713,9.807,9.807,9.7631,9.6781,9.4582,9.2759,9.1474,9.2218,9.2044,9.1323,9.0646,8.9776,8.9,8.9,8.8778,8.8539,8.8539,8.995,9.1505,9.1505,9.2915,9.4373,9.4336,9.4336,9.4373,9.4336,9.4336,9.4373,9.4336,9.3712,9.3125,9.3088,9.0519,8.8059,8.7271,8.7124,8.7124,8.7124,8.8445,0.0,8.839,8.8886,8.8739,8.7234,8.56,8.4315,8.3491,8.0246,7.7226,7.4908,7.0731,6.7636,6.6178,6.5109,6.3537,6.1264,5.834,5.5785,5.3619,0.0,0.0,0.0,0.0,0.0,0.0,0.0,0.0,0.0,0.0,0.0,0.0,0.0,0.0,0.0,0.0,0.0,0.0,0.0,0.0,0.0,6.9654,7.3747,7.209,7.6149,8.0344,8.3186,8.6399,8.87,8.9512,9.0527,9.1744,9.3233,9.4586,9.5669,9.6447,9.736,9.7969,9.8172,9.8713,9.9119,9.9288,9.9288,9.9288,9.9322,9.9525,9.9627,9.9595,9.9829,9.9796,9.9595,9.9829,9.9796,9.9627,9.9627,9.9491,9.9085,9.6853,9.506,9.3808,9.3981,9.4225,9.4386,9.4179,9.386,9.3491,9.2914,9.2487,9.2137,9.154,9.2779,9.4395,9.4395,9.5173,9.5914,9.5327,9.5621,9.5878,9.5327,9.5621,9.5878,9.529,9.4556,9.3786,9.3198,9.1877,9.0739,9.0519,9.0482,9.0482,9.0482,8.984,8.9546,8.9895,8.8592,8.7932,8.8666,8.6775,8.5123,8.4352,8.0727,7.7196,7.4178,7.073,6.807,6.6376,6.4865,6.2697,5.9674,5.8339,5.736,0.0,0.0,0.0,0.0,0.0,0.0,0.0,0.0,0.0,0.0,0.0,0.0,0.0,0.0,0.0,0.0,0.0,0.0,0.0,0.0,0.0,0.0,7.6284,8.0716,8.1874,8.3422,8.5824,8.9715,9.1575,9.3436,9.5669,9.5872,9.6379,9.7563,9.8037,9.8476,9.8916,9.966,10.0098,10.0098,10.0506,10.0709,10.0709,10.0709,10.0709,10.0709,10.0982,10.1216,10.1216,10.1216,10.1216,10.1216,10.1216,10.1216,10.1216,10.1216,10.1014,10.0603,0.0,0.0,0.0,0.0,9.8673,9.8419,9.8419,9.7854,9.7026,9.6574,9.6204,9.5886,9.5413,9.607,9.6996,9.6996,9.7089,9.7089,9.6649,9.6612,9.6575,9.6098,9.6355,9.6575,9.6098,9.5364,9.4666,9.4189,9.3161,0.0,9.2354,9.2024,9.1803,9.1803,9.0739,8.995,9.006,8.8556,8.7619,8.7876,8.6334,8.4682,8.3214,8.021,0.0,0.0,0.0,6.7278,6.4957,6.3929,0.0,0.0,0.0,6.0887,6.0604,6.221,0.0,0.0,5.9816,6.0256,0.0,0.0,0.0,0.0,0.0,0.0,0.0,0.0,0.0,0.0,0.0,0.0,0.0,0.0,0.0,0.0,8.2983,8.6704,9.2257,9.1981,9.215,9.4654,9.5669,9.7022,9.9153,9.9356,9.966,10.0373,10.0506,10.0506,10.0506,10.1216,0.0,0.0,0.0,10.1589,10.1589,10.1621,10.1487,10.1487,10.2198,10.2502,10.2502,10.2502,10.2502,10.2502,10.2502,10.2502,10.2502,10.2695,10.2505,10.2323,10.2416,10.2497,10.2807,10.4098,10.3798,10.2791,10.2685,0.0,0.0,10.0118,9.9702,9.9365,9.9255,9.9255,9.9218,9.9145,9.8668,9.8117,9.7953,9.7346,9.6795,9.6722,9.6685,9.6685,9.6685,9.6061,9.5492,9.5492,9.4189,9.3088,9.3088,9.2391,9.1803,9.1803,9.1033,9.0207,8.9473,8.861,8.7545,8.6187,8.527,0.0,8.1599,7.9478,7.6316,7.1768,6.8945,6.6138,6.3242,6.3183,6.3518,6.4179,6.5138,6.5355,6.4741,6.6462,6.7403,6.7546,6.5652,6.552,0.0,0.0,0.0,0.0,0.0,0.0,0.0,0.0,0.0,0.0,0.0,0.0,0.0,0.0,0.0,8.3058,8.8672,9.3571,9.6514,9.7191,9.7157,9.6548,9.7631,9.9119,10.0808,10.1011,10.1316,10.1995,10.2096,10.2096,10.2096,10.2806,10.3179,10.3179,10.3179,10.3179,10.3179,10.2603,10.2299,10.2299,10.2368,0.0,10.2502,10.2502,10.2502,10.2502,10.2502,10.2502,10.2599,10.3714,10.5485,10.7175,10.3693,10.3084,10.4179,10.4508,10.5078,10.5787,10.5104,10.5003,10.4811,10.3494,10.2101,10.0907,10.0283,10.0099,0.0,9.9292,9.9475,9.9548,9.8227,9.7787,9.7493,9.6832,9.6685,9.6685,9.6685,9.6061,9.5492,9.5492,9.4189,9.3088,9.3088,9.2391,9.1803,9.1803,9.0537,8.9583,8.9436,8.8115,8.7362,8.7692,8.6444,8.5123,8.3985,8.0609,7.6998,7.3427,6.9724,6.7099,6.5811,6.5794,6.5865,6.5991,6.7489,6.8177,6.81,7.0911,7.2969,7.4159,7.061,6.9056,0.0,0.0,0.0,0.0,0.0,0.0,0.0,0.0,0.0,0.0,0.0,6.9294,7.3127,0.0,8.5012,8.9478,9.3673,9.7022,9.8848,10.01,10.0405,9.9286,9.9796,10.0811,10.2399,10.2502,10.2806,10.3517,10.3585,10.3585,10.3585,10.4023,10.4192,10.4192,10.4192,10.4023,10.3585,10.3212,10.2908,10.2502,10.2502,10.2705,10.3077,10.3077,10.3493,10.418,10.418,10.43,10.4699,10.5418,10.7026,10.8818,10.6607,10.6598,10.7907,10.7907,10.811,10.8187,10.7385,10.6817,10.6192,10.4908,10.3403,10.2008,10.1604,10.12,10.0796,10.0393,9.9989,9.9512,9.8704,9.7897,9.7309,9.7309,9.6979,9.6795,9.7199,9.6685,9.6098,9.6098,9.4813,9.3712,9.3712,9.2648,9.1803,9.1803,9.0776,8.984,8.9436,8.8335,8.7435,8.7031,8.6261,8.5306,8.4095,8.0681,7.7892,7.624,7.3102,7.0953,7.0144,7.049,7.0888,7.1302,7.2948,7.4191,7.4994,7.6966,7.8369,7.9103,7.7509,7.6299,0.0,0.0,0.0,0.0,0.0,0.0,0.0,5.9878,6.2443,6.7405,7.202,7.6726,8.2041,8.6196,9.056,9.5804,9.7901,9.939,10.0912,10.2098,10.2705,10.2128,10.1995,10.2502,10.3686,10.3787,10.4125,10.47,10.47,10.47,10.47,10.4802,10.4904,10.4904,10.4802,10.4396,10.3787,10.3517,10.3111,10.2502,10.2502,10.2806,10.3414,10.3806,10.4693,10.5813,10.6111,10.6605,10.7178,10.7178,10.8087,10.9415,10.9415,11.0176,11.1221,11.1221,11.0817,11.0083,10.9092,10.7991,10.6706,10.5715,10.4394,10.3219,10.3219,10.2485,10.1698,10.1494,10.0503,9.9255,9.8961,9.7897,9.7052,9.753,9.7163,9.6869,9.753,9.7163,9.6685,9.6685,9.5547,9.4483,9.4336,9.3051,9.1987,9.184,9.1106,9.0354,8.973,8.8923,8.7876,8.6407,8.6114,8.5306,8.3564,8.1012,7.947,7.9323,7.7414,7.6019,7.5374,7.5983,7.6644,7.7268,7.8772,8.0167,8.1473,8.226,8.2663,8.27,8.3508,8.2977,5.3418,5.1862,5.2496,5.6433,5.8532,6.1609,0.0,7.2059,7.4471,7.8806,8.3151,8.6831,8.8841,9.2793,9.665,9.9288,10.1014,10.2502,10.399,10.4295,10.4396,10.4295,10.4295,10.4429,10.4598,10.4598,10.4598,10.47,10.47,10.47,10.47,10.531,10.5682,10.5682,10.5005,10.47,10.4598,10.328,10.2603,10.2502,10.2502,10.247,10.2702,10.4692,10.5692,10.5997,10.7196,10.8111,10.8791,10.8791,10.9619,11.0984,11.0984,11.111,11.1221,11.1221,11.1089,11.0817,10.9312,10.8688,10.8285,10.678,10.5605,10.4813,10.4813,10.3806,10.2412,10.1698,10.0927,9.9842,9.8411,9.7897,9.7603,9.6979,9.6759,9.6722,9.6795,9.6759,9.6685,9.6685,9.5988,9.5144,9.441,9.3565,9.2684,9.1913,9.1106,9.0592,9.0464,8.9767,8.8923,8.8023,8.7288,8.5913,8.3601,8.3051,8.2553,8.1819,8.1525,8.1342,8.1232,8.1342,8.1415,8.1525,8.2406,8.2941,8.3124,8.3948,8.4315,8.4352,8.5159,8.4682,5.6365,5.6414,5.8023,6.122,6.5284,6.9963,7.5462,7.8605,8.1651,8.6247,9.0385,9.3503,9.4552,9.7698,10.0506,10.1419,10.2806,10.399,10.4598,10.47,10.4429,10.3517,10.4226,10.4903,10.531,10.531,10.5479,10.5885,10.602,10.602,10.602,10.6291,10.6392,10.6392,10.5716,10.5107,10.47,10.3719,10.2908,10.2502,10.2502,10.3185,10.4497,10.5377,10.6815,10.8413,10.9425,11.0017,11.0292,11.0292,11.0627,11.1221,11.1221,11.1221,11.1221,11.1221,11.0891,11.0304,10.9202,10.8505,10.7881,10.6801,10.5789,10.5107,10.5107,10.4027,10.2595,10.2301,10.131,9.9989,9.8888,9.8264,9.7933,9.808,9.775,9.764,9.8594,9.8043,9.7383,9.7383,9.6392,9.5382,9.507,9.3932,9.2978,9.2611,9.184,9.1143,9.0665,9.0317,8.9767,8.8959,8.8592,8.8005,8.6978,8.6464,8.604,8.571,8.4792,8.4278,8.4278,8.4278,8.4499,8.4976,8.5326,8.573,8.6187,8.606,8.6004,8.5987,8.6334,8.6151,5.8653,6.0675,6.383,6.739,7.2913,7.8471,8.2278,8.5285,8.8487,9.2579,9.577,9.8104,9.9051,10.1216,10.2908,10.3281,10.4498,10.5276,10.5276,10.5107,10.4295,10.2401,10.2805,10.3415,10.4193,10.5208,10.6122,10.6798,10.69,10.69,10.69,10.69,10.69,10.69,10.6189,10.5411,10.47,10.4023,10.3405,10.3103,10.3103,10.4112,10.6087,10.6697,10.8395,11.0792,11.1294,11.1405,11.1221,11.1221,11.1221,11.1221,11.1221,11.1221,11.1221,11.1001,11.0487,10.9922,10.8799,10.8123,10.7498,10.6691,10.6009,10.5495,10.5495,10.4504,10.3293,10.3109,10.2008,10.0686,9.9438,9.8668,9.8264,9.8411,9.8154,9.8227,9.9402,9.8888,9.8154,9.7933,9.6942,9.6025,9.5565,9.4538,9.3712,9.3455,9.2905,9.2097,9.1069,9.0739,9.0391,8.9803,8.9546,8.94,8.94,8.8849,8.8536,8.8536,8.7435,8.6775,8.6775,8.6775,8.7068,8.7638,8.7418,8.7619,8.8206,8.7619,8.7215,8.7014,8.7234,8.7198,5.9055,6.2939,6.8151,7.5271,8.1387,8.6846,9.1054,9.3783,9.6112,9.8375,9.9525,10.0608,10.2096,10.3009,10.399,10.5479,10.6291,10.6798,10.6798,10.6189,10.4701,10.1824,10.0199,9.9559,10.0272,10.372,10.6122,10.6798,10.69,10.69,10.69,10.69,10.69,10.69,10.6189,10.5411,10.47,10.4023,10.3911,10.4515,10.4515,10.5303,10.6782,10.9075,11.0888,11.2314,11.2396,11.1919,11.1221,11.1221,11.1221,11.1221,11.1221,11.1221,11.1111,11.0304,10.9973,10.9811,10.8196,10.7609,10.7498,10.6691,10.6397,10.6397,10.6397,10.5715,10.4908,10.41,10.3293,10.2118,9.9732,9.9071,9.8704,9.7126,9.7346,9.7897,9.7953,9.8557,9.8851,9.8043,9.786,9.7309,9.5749,9.5455,9.518,9.4373,9.4226,9.3639,9.1987,9.1069,9.0592,9.0592,8.9877,8.94,8.94,8.9363,8.9363,8.9363,8.9326,8.929,8.929,8.929,8.929,8.9326,8.8573,8.8169,8.8206,8.8169,8.7766,8.7014,8.7802,8.7766,6.5313,7.1461,7.8029,8.3304,8.8956,9.4005,9.693,9.8984,10.0506,10.1216,10.0677,10.017,10.0202,10.0779,10.169,10.2705,10.4701,10.6189,10.6189,10.5513,10.3382,9.8947,9.8815,9.8442,9.6717,9.9899,10.3212,10.5986,10.6189,10.6392,10.69,10.69,10.69,10.69,10.7204,10.6989,10.6201,10.6404,10.6424,10.61,10.7115,10.7803,10.8291,11.0089,11.1097,11.1588,11.1588,11.1515,11.1221,11.1221,11.1221,11.1221,11.1221,11.1221,11.0979,10.9679,10.9202,10.9114,10.8012,10.7315,10.6801,10.6486,10.6376,10.6376,10.6376,10.5789,10.4887,10.41,10.3293,10.2301,10.0393,9.9512,9.9108,9.9108,9.8888,9.8998,10.0119,10.0099,9.9805,9.9548,9.9071,9.8521,9.8007,9.7016,9.5841,9.4483,9.3859,9.3308,9.2758,9.1913,9.14,9.14,9.1143,9.0996,9.0996,9.0996,9.0996,9.0996,9.0482,9.0207,9.0207,8.9693,8.9657,9.017,8.94,8.9253,8.9784,8.9253,8.8849,8.8592,8.8849,8.8849,7.2605,7.9374,8.6034,9.0921,9.5556,9.939,10.1386,10.2401,10.2705,10.1793,10.01,9.8409,9.7664,9.6819,9.7089,9.9762,10.1621,10.3179,10.4802,10.3889,10.1589,9.7766,9.7191,9.679,9.5926,9.7461,10.022,10.4294,10.5595,10.66,10.7316,10.8103,10.8491,10.8491,10.8787,10.8497,10.7699,10.7901,10.7798,10.761,10.9099,10.9798,10.9785,11.0791,11.1221,11.1221,11.1221,11.1221,11.1221,11.1221,11.1221,11.1221,11.1221,11.1221,11.1001,10.9386,10.8799,10.8615,10.7609,10.678,10.6376,10.6376,10.6376,10.6376,10.6376,10.6009,10.5311,10.421,10.3513,10.2705,10.0796,9.9695,9.9255,9.9769,9.9475,9.9475,10.0796,10.0907,10.0686,10.0686,10.0283,9.9952,9.9952,9.8631,9.7126,9.5768,9.4666,9.3749,9.3161,9.2354,9.1803,9.1803,9.1803,9.1803,9.1803,9.1803,9.1803,9.1803,9.1326,9.1033,9.1033,9.0537,9.0501,9.1033,9.0244,9.006,9.0592,9.006,8.9693,8.94,8.9693,8.9657,8.0578,8.6522,9.2116,9.7901,10.1014,10.3009,10.4295,10.399,10.2806,10.0373,9.7495,9.506,9.418,9.1271,9.0932,9.6717,9.7394,9.8713,10.3077,10.1825,9.9832,9.824,0.0,0.0,0.0,0.0,9.7706,10.231,10.5225,10.7216,10.8118,11.0213,11.1412,11.1412,11.0689,10.9973,10.932,10.8505,10.8412,10.9111,11.0476,11.1221,11.1221,11.1221,11.1221,11.1221,11.1221,11.1221,11.1221,11.1221,11.1221,11.1221,11.1221,11.1221,11.0905,10.9386,10.8688,10.8505,10.689,10.6302,10.6302,10.6302,10.6302,10.6302,10.6302,10.6302,10.6009,10.4394,10.388,10.3293,10.098,9.9732,9.9125,9.9218,9.9181,9.9328,10.0209,10.098,10.1587,10.1587,10.1624,10.1624,10.1514,10.0209,9.8888,9.8007,9.6539,9.4941,9.3382,9.2391,9.184,9.1803,9.1803,9.1803,9.1803,9.1803,9.1803,9.1803,9.1803,9.1803,9.1803,9.1767,9.1767,9.1803,9.1033,9.0629,9.0665,9.0665,9.028,8.9546,9.0317,9.0244,8.8433,9.4069,9.8411,10.1622,10.328,10.4092,10.3889,10.2401,10.0102,9.6819,9.2421,8.826,8.5249,8.667,8.9309,9.2489,9.7529,10.2028,10.4802,10.4295,10.2401,9.9187,0.0,9.8963,9.8063,9.9068,10.0897,10.3791,10.4583,10.6085,10.871,10.9397,10.9727,10.9727,11.058,11.0701,10.9911,11.0224,11.0501,11.0627,11.0993,11.1221,11.1221,11.1221,11.1221,11.1221,11.1221,11.1221,11.1221,11.1221,11.1221,11.1221,11.1221,11.0817,11.0193,10.9202,10.7991,10.689,10.5789,10.5401,10.529,10.4687,10.4908,10.5401,10.5401,10.5401,10.5201,10.421,10.3513,10.2705,10.1494,10.0209,9.9402,10.0613,9.9989,9.9475,10.0907,10.1788,10.2412,10.2412,10.2889,10.2889,10.1698,10.0706,9.9512,9.8117,9.6539,9.5144,9.4116,9.3272,9.2537,9.1877,9.1803,9.1803,9.1803,9.1803,9.1803,9.1803,9.1803,9.1803,9.1803,9.1216,9.1179,9.1803,9.1033,9.0922,9.1473,9.1473,9.14,9.1179,9.14,9.1363,9.4741,9.9288,10.2603,10.4599,10.4903,10.4125,10.169,9.9424,9.6007,8.9647,8.5486,8.1832,7.8077,8.0784,8.4776,8.8294,9.4349,9.9931,10.3821,10.3415,10.2418,10.1603,10.1406,0.0,10.1795,10.2309,10.3803,10.6677,10.6286,10.6975,10.95,11.0506,11.1092,11.1092,11.1492,11.1407,11.0583,11.101,11.1221,11.1221,11.1221,11.1221,11.1221,11.1221,11.1221,11.1221,11.1221,11.1221,11.1221,11.1221,11.1221,11.1221,11.1221,11.0707,10.99,10.9092,10.7807,10.6213,10.4614,10.4006,10.4006,10.3917,10.4394,10.4997,10.4724,10.4777,10.4908,10.3696,10.2999,10.2522,10.1677,10.0576,9.9952,10.122,10.0503,10.0099,10.1677,10.2412,10.2925,10.3602,10.4394,10.4525,10.2779,10.1898,10.0686,9.8704,9.7346,9.6135,9.4997,9.3822,9.2905,9.2427,9.2024,9.1803,9.1803,9.1803,9.1803,9.1803,9.1803,9.1803,9.1803,9.1363,9.1326,9.1803,9.1363,9.1363,9.1803,9.1803,9.1803,9.1803,9.1803,9.1803,9.9899,10.2908,10.5309,10.6527,10.5614,10.3179,9.8612,9.5229,9.0459,8.1224,7.7739,7.5361,7.1988,7.4593,7.9126,8.487,9.0217,9.586,10.2314,10.1873,10.1988,10.4897,10.3497,10.3583,10.6701,10.5799,10.6502,10.9908,10.8905,10.8775,11.0307,11.2193,11.3299,11.3299,11.2579,11.1919,11.1221,11.1221,11.1221,11.1221,11.1111,11.1001,11.1001,11.1001,11.1001,11.0979,11.1184,11.1221,11.1221,11.1221,11.1111,11.1001,11.1001,11.0487,10.9591,10.8799,10.7477,10.5678,10.3403,10.2485,10.2522,10.3182,10.4027,10.4724,10.399,10.421,10.4483,10.3109,10.2595,10.2412,10.1494,10.0796,10.0503,10.122,10.0796,10.0686,10.2191,10.2705,10.3293,10.5018,10.5789,10.5715,10.4173,10.3109,10.1788,9.9475,9.8411,9.7346,9.5859,9.4263,9.3235,9.3125,9.2317,9.1803,9.1803,9.1803,9.1803,9.1803,9.1803,9.1803,9.1803,9.1803,9.1803,9.1803,9.1803,9.1803,9.1803,9.1803,9.1803,9.1803,9.1803,9.1803,10.3586,10.5682,10.6392,10.6088,10.4396,10.1489,9.6447,8.9715,8.2678,7.6014,7.103,6.7455,6.6203,7.0026,7.6082,8.4464,9.0217,9.6784,10.5892,10.5773,10.5685,10.8091,10.8004,10.7904,10.8495,10.8783,10.9592,11.0905,11.0091,10.9994,11.0982,11.1404,11.1588,11.1588,11.1515,11.1272,11.1221,11.1221,11.1221,11.1221,11.0487,11.0193,11.0193,11.0193,11.0193,11.0193,11.0891,11.1221,11.1221,11.1221,11.0817,11.0193,11.0193,10.9276,10.7902,10.7073,10.581,10.41,10.2301,10.1274,10.0686,10.0907,10.1898,10.3109,10.2999,10.2999,10.3109,10.2815,10.2191,10.1494,10.0686,10.0393,10.0319,10.0503,10.0393,10.0576,10.1494,10.2799,10.421,10.592,10.5715,10.4997,10.41,10.2705,10.109,9.9365,9.8411,9.7566,9.6612,9.507,9.3822,9.3161,9.2317,9.1803,9.1803,9.1803,9.1803,9.1803,9.1803,9.1803,9.1803,9.1803,9.1803,9.1803,9.1803,9.1803,9.1803,9.1803,9.1803,9.1803,9.1803,9.1803,10.558,10.6595,10.6798,10.6494,10.2976,9.7597,9.0019,8.2847,7.5405,6.7104,6.4005,6.2448,6.1298,6.6677,7.3037,7.8483,8.487,9.2331,10.1625,10.23,10.3807,10.9009,10.931,10.9318,11.0106,11.0411,11.0817,11.1221,11.0817,11.0817,11.1221,11.1221,11.1221,11.1221,11.1221,11.1221,11.1221,11.1221,11.1221,11.1221,11.0377,10.9995,10.9995,10.9606,10.9386,10.9386,10.979,11.001,11.001,11.001,10.9716,10.9386,10.9386,10.8578,10.7498,10.6727,10.5311,10.3586,10.1604,10.0613,10.0209,9.9328,10.0393,10.2081,10.2081,10.2081,10.2008,10.1604,10.0907,10.0209,9.9769,9.9989,10.0283,10.0283,10.131,10.2301,10.2726,10.3696,10.4798,10.5605,10.4997,10.421,10.3403,10.2595,10.142,9.9402,9.8778,9.808,9.6869,9.5658,9.4777,9.441,9.3235,9.2464,9.2464,9.206,9.1803,9.1803,9.1803,9.1803,9.1803,9.1803,9.1803,9.1803,9.1803,9.1803,9.1803,9.1803,9.1803,9.1803,9.1803,9.1803,10.6088,10.673,10.6697,10.5885,10.0777,9.3436,8.3862,7.6589,6.9134,5.9607,5.8321,5.8693,5.8035,6.3328,6.9166,7.3379,7.9149,8.6726,9.7071,9.8685,10.1711,10.9402,10.9777,10.9916,11.1096,11.1221,11.1221,11.1221,11.1221,11.1221,11.1221,11.1221,11.1221,11.1221,11.1221,11.1221,11.1221,11.1221,11.1111,11.0891,11.0083,10.9701,10.9518,10.8799,10.8505,10.8578,10.8688,10.8799,10.8799,10.8799,10.8688,10.8505,10.8395,10.7807,10.689,10.5972,10.4798,10.3293,10.0907,9.9989,9.9805,9.8374,9.9421,10.122,10.098,10.109,10.111,10.0283,9.9585,9.9071,9.8888,9.9438,10.0099,10.0283,10.1714,10.3293,10.3806,10.4394,10.4908,10.5107,10.4504,10.3586,10.2595,10.2301,10.142,9.9181,9.8851,9.8337,9.6869,9.6171,9.5749,9.5749,9.4153,9.3088,9.3088,9.2281,9.1803,9.1803,9.1803,9.1803,9.1803,9.1803,9.1803,9.1803,9.1803,9.1803,9.1803,9.1803,9.1803,9.1803,9.1803,9.1803,10.4903,10.5918,10.6088,10.2705,9.7326,9.0464,8.1435,7.2665,6.4613,5.822,5.5953,5.57,5.7561,5.9066,6.3494,7.4132,7.6456,8.2394,9.8082,10.0274,10.3075,11.0191,11.1007,11.111,11.1199,11.1221,11.1221,11.1221,11.1221,11.1221,11.1221,11.1221,11.1221,11.1221,11.1221,11.1221,11.1221,11.1221,11.0817,11.0083,10.9312,10.8505,10.7792,10.7719,10.7719,10.7792,10.8505,10.8799,10.8799,10.8799,10.8416,10.7609,10.689,10.6119,10.5107,10.3623,10.2925,10.2485,10.0006,9.9218,9.9071,9.819,9.9035,10.0283,9.9548,9.9842,10.0209,9.9438,9.9181,9.8924,9.819,9.8594,9.9402,10.0099,10.0503,10.12,10.3403,10.4011,10.421,10.5018,10.4504,10.3403,10.1918,10.098,9.9952,9.8264,9.8007,9.7676,9.6795,9.6649,9.6575,9.6575,9.452,9.3088,9.3088,9.2281,9.1803,9.1803,9.1803,9.1803,9.1803,9.1803,9.1803,9.1803,9.1803,9.1803,9.1803,9.1803,9.1803,9.1803,9.1803,9.1803,10.3179,10.4769,10.4769,10.1487,9.4857,8.6738,7.7773,6.9147,6.1332,5.5344,5.4025,5.433,5.5685,5.6883,6.0237,6.8082,6.9864,7.4724,8.7525,9.0268,9.4531,10.4185,10.6192,10.7991,11.0891,11.1221,11.1001,11.0487,11.0487,11.0487,11.0487,11.0891,11.1221,11.1221,11.1221,11.1001,11.0487,11.0487,11.0083,10.9276,10.8526,10.7719,10.6911,10.6911,10.6302,10.5385,10.6192,10.6302,10.5899,10.5899,10.5678,10.5311,10.4981,10.4687,10.421,10.2595,10.2008,10.1604,9.9218,9.8374,9.8264,9.7456,9.7933,9.8888,9.9071,9.8998,9.8778,9.8484,9.8043,9.7566,9.7273,9.775,9.8704,9.9989,10.0706,10.1384,10.2889,10.3182,10.3293,10.3623,10.2595,10.1494,10.0907,10.0099,9.9218,9.808,9.7916,9.7603,9.6795,9.6685,9.6685,9.6685,9.5401,9.4538,9.4538,9.3345,9.2574,9.2574,9.2097,9.1803,9.1803,9.1803,9.1803,9.1803,9.1803,9.1803,9.1803,9.1803,9.1803,9.1803,9.1803,9.1803,9.9796,10.2299,10.2976,9.9999,9.2692,8.393,7.5168,6.6812,5.9302,5.3518,5.2739,5.3377,5.4155,5.5507,5.8307,6.3776,6.5643,7.0061,8.0507,8.3502,8.8206,9.786,10.0393,10.3293,10.8211,11.0193,11.0817,10.9679,10.9606,10.9606,10.9606,10.9973,11.0414,11.0817,11.0597,11.0193,10.9701,10.9408,10.8894,10.8101,10.7315,10.6413,10.5699,10.5699,10.4981,10.388,10.4189,10.421,10.388,10.3403,10.3293,10.3513,10.2999,10.2815,10.2705,10.131,10.0796,10.0503,9.8557,9.7916,9.775,9.6942,9.7089,9.764,9.8227,9.8154,9.7843,9.7603,9.7126,9.6685,9.6685,9.7126,9.7897,9.9255,10.0209,10.109,10.2118,10.2522,10.2595,10.2412,10.1384,10.0393,9.9695,9.9108,9.8484,9.7676,9.753,9.7346,9.6759,9.6685,9.6685,9.6685,9.6208,9.5749,9.5528,9.4263,9.3455,9.3455,9.2648,9.2281,9.2537,9.206,9.1913,9.217,9.1913,9.1803,9.1803,9.1803,9.1803,9.1803,9.1803,9.1803,9.418,9.8037,10.0707,9.7695,9.0729,8.2483,7.4289,6.6034,5.8626,5.3382,5.23,5.2561,5.336,5.4792,5.7642,6.3207,6.5453,7.0172,8.0731,8.3581,8.6738,9.2501,9.463,9.7474,10.2301,10.7918,11.0524,10.8909,10.8799,10.8799,10.8799,10.8086,10.8416,10.9995,10.9202,10.8799,10.8799,10.7991,10.7205,10.6413,10.5474,10.4724,10.388,10.388,10.388,10.388,10.3109,10.3182,10.3806,10.2212,10.2008,10.2595,10.098,10.0319,10.0209,9.9438,9.9125,9.9035,9.819,9.7916,9.775,9.6942,9.6722,9.6722,9.6722,9.7273,9.7733,9.6942,9.6722,9.6685,9.6685,9.6722,9.6906,9.7733,9.8521,9.9548,10.122,10.2118,10.2485,10.1698,10.1514,10.0706,9.8357,9.7897,9.764,9.6832,9.6722,9.6722,9.6685,9.6685,9.6685,9.6685,9.6685,9.6392,9.5565,9.474,9.4299,9.4299,9.3529,9.3455,9.4226,9.2684,9.2207,9.3088,9.2244,9.1803,9.1803,9.1803,9.1803,9.1803,9.1803,9.1803,8.2509,8.6535,8.8835,8.4336,7.9735,7.439,6.7184,6.1569,5.6494,5.1758,5.161,5.2378,5.2621,5.4341,5.7913,6.4644,6.6619,6.9811,7.7017,8.1819,8.6701,9.2427,10.0907,10.6413,10.6816,10.8982,10.9496,10.7294,10.7205,10.689,10.6302,10.5495,10.6103,10.8306,10.8123,10.7404,10.6302,10.5495,10.4687,10.388,10.2999,10.2191,10.1494,10.2008,10.1698,10.0613,10.0907,10.0907,10.0613,10.0099,9.9989,10.0209,9.9695,9.9475,9.9402,9.8594,9.8264,9.8154,9.7346,9.7089,9.6942,9.6135,9.5859,9.5859,9.5859,9.6428,9.7016,9.6759,9.6685,9.6685,9.6685,9.7126,9.7566,9.7843,9.8521,9.9255,9.9769,10.0099,10.0209,9.9916,9.9402,9.8797,9.8007,9.7419,9.6979,9.6722,9.6685,9.6685,9.6685,9.6685,9.6685,9.6685,9.6685,9.6612,9.6355,9.5584,9.5144,9.5144,9.4373,9.3786,9.3492,9.2978,9.2537,9.2207,9.195,9.1803,9.1803,9.1803,9.1803,9.1803,9.1803,9.1803,7.3466,7.8314,8.0894,7.7705,7.4018,6.962,6.3734,5.9066,5.4923,5.1275,5.1236,5.2036,5.2562,5.434,5.7467,6.2888,6.5191,6.8214,7.356,7.9213,8.5233,9.184,10.142,10.7,10.5715,10.8306,10.8894,10.6119,10.5605,10.5091,10.4189,10.3109,10.3182,10.4818,10.5678,10.5385,10.3806,10.3182,10.2595,10.1788,10.098,10.0319,9.9879,10.0393,9.9989,9.9108,9.9292,9.9292,0.0,9.8447,9.8374,9.8631,9.83,9.819,9.8154,9.764,9.7456,9.7309,9.6539,9.6245,9.6098,9.5327,9.507,9.507,9.507,9.5621,9.6245,9.6245,9.6245,9.6318,9.6612,9.7052,9.7456,9.7456,9.8043,9.8668,9.8668,9.8888,9.9035,9.8704,9.8227,9.7787,9.7493,9.7016,9.6685,9.6685,9.6685,9.6685,9.6685,9.6685,9.6685,9.6685,9.6685,9.6685,9.6685,9.6245,9.5951,9.5951,9.5217,9.4666,9.4483,9.3565,9.2978,9.2758,9.2134,9.1803,9.1803,9.1803,9.1803,9.1803,9.1803,9.1803,0.0,7.2124,7.5506,7.5303,7.1616,6.6914,6.2584,5.7848,0.0,5.1498,5.1083,5.1584,5.3142,5.4614,5.6489,5.9199,6.2291,6.5999,7.0793,7.6827,8.3671,9.1473,9.808,10.1604,10.0613,10.6082,10.8395,10.5311,10.421,10.3403,10.2595,10.109,10.0209,10.0099,10.2375,10.2815,10.131,10.1294,10.0796,9.9989,9.9255,9.8795,9.8778,9.8778,9.8778,9.8741,9.8007,9.8117,9.8668,9.7199,9.7016,9.7586,9.6832,9.6575,9.6612,9.6612,9.6649,9.6575,9.5841,9.5528,9.5345,9.4483,9.4189,9.4189,9.4116,9.474,9.5418,9.5455,9.5492,9.5675,9.6502,9.6722,9.6759,9.6722,9.7309,9.7879,9.7823,9.8411,9.8704,9.797,9.7787,9.7566,9.6832,9.6685,9.6685,9.6685,9.6685,9.6685,9.6685,9.6685,9.6685,9.6685,9.6685,9.6685,9.6685,9.6685,9.6685,9.6685,9.6025,9.5914,9.6575,9.441,9.3529,9.4189,9.2611,9.1803,9.1803,9.1803,9.1803,9.1803,9.1803,9.184,5.4684,0.0,6.1806,5.9573,5.849,5.7273,0.0,5.2892,5.1536,4.9875,4.9909,5.1129,5.3873,5.465,5.6852,6.2888,6.5558,6.8325,7.2532,8.2847,9.206,9.764,10.3513,10.5789,10.2485,10.5201,10.6376,10.432,10.2909,10.1677,10.0907,9.9916,9.9108,9.8484,9.9622,10.0006,9.9659,9.9035,9.8337,9.753,9.6722,9.6025,9.5437,9.5437,9.5437,9.5437,9.5897,9.5823,9.5437,9.5694,9.5547,9.5107,9.4923,9.5254,9.5804,9.5768,9.6171,9.6685,9.6502,9.6025,9.5272,9.3859,9.3382,9.3272,9.2574,9.3418,9.4703,9.5308,9.5492,9.5675,9.6502,9.7163,9.7456,9.6832,9.7309,9.7733,9.7126,9.7126,9.7199,9.7016,9.6979,9.6906,9.6722,9.6685,9.6685,9.6685,9.6685,9.6685,9.6685,9.6685,9.6685,9.6685,9.6685,9.6685,9.6685,9.6685,9.6685,9.6685,9.6539,9.6245,9.5785,9.4666,9.3822,9.3382,9.2354,9.1803,9.1803,9.1803,9.1803,9.1803,9.1803,9.217,4.9882,5.3213,5.6089,5.4837,5.4566,5.4194,5.2588,5.1454,5.0466,4.9611,4.9751,5.0837,5.3547,5.4344,5.6466,6.2118,6.5044,6.9412,7.7561,8.6371,9.4042,9.9622,10.399,10.5678,10.3513,10.5201,10.5385,10.3019,10.1698,10.0393,9.9255,9.8447,9.7787,9.7346,9.7787,9.7823,9.7437,9.7383,9.6759,9.5584,9.5144,9.4703,9.4299,9.4299,9.4299,9.4299,9.4759,9.4722,9.4336,9.4777,9.4703,9.4299,9.4299,9.4556,9.496,9.4923,9.5217,9.5547,9.518,9.452,9.3675,9.2794,9.2501,9.2427,9.195,9.2427,9.3345,9.4153,9.4391,9.4666,9.5841,9.6465,9.6795,9.6722,9.7016,9.7236,9.6795,9.6685,9.6685,9.6685,9.6685,9.6685,9.6685,9.6685,9.6685,9.6685,9.6685,9.6685,9.6685,9.6685,9.6685,9.6685,9.6685,9.6685,9.6685,9.6685,9.6685,9.6685,9.6685,9.6502,9.6061,9.529,9.4299,9.3125,9.2244,9.1803,9.1803,9.1803,9.2024,9.2391,9.2391,9.2831,4.9187,5.2164,5.4871,5.4718,5.4397,5.3856,5.301,5.1319,4.9931,4.9874,5.0037,5.099,5.3582,5.4879,5.6865,6.1019,6.4861,7.1651,8.3985,8.8977,9.3529,9.9438,10.2375,10.3696,10.3182,10.4687,10.4394,10.1494,10.0523,9.9328,9.797,9.7126,9.6685,9.6685,9.6575,9.6135,9.5308,9.6098,9.5694,9.4116,9.4116,9.4042,9.3896,9.3896,9.3896,9.3932,9.4042,9.4099,9.4117,9.4228,9.4191,9.4081,9.4081,9.4099,9.4116,9.4116,9.4189,9.4189,9.3382,9.2611,9.1987,9.184,9.1803,9.1803,9.1803,9.1803,9.195,9.2684,9.3015,9.3455,9.4923,9.5327,9.5511,9.6318,9.6539,9.6539,9.6685,9.6685,9.6685,9.6685,9.6685,9.6685,9.6685,9.6685,9.6685,9.6685,9.6685,9.6685,9.6685,9.6685,9.6685,9.6685,9.6685,9.6685,9.6685,9.6685,9.6685,9.6685,9.6575,9.6465,9.6355,9.5694,9.463,9.3125,9.2244,9.1803,9.1803,9.1913,9.2391,9.3088,9.3235,9.3712,5.0913,5.4093,5.5412,5.1116,5.0863,5.137,4.9999,4.9424,4.9151,4.9172,5.0199,5.2401,5.6752,5.8713,6.1415,6.6736,7.2642,7.9874,8.9344,9.3033,9.5878,9.8924,10.2008,10.2815,10.0099,10.131,10.1808,10.0576,9.9108,9.8154,9.7916,9.7126,9.6685,9.6685,9.6061,9.529,9.4483,9.529,9.4887,9.3272,9.3272,9.2905,9.217,9.217,9.217,9.2207,9.2978,9.3246,9.3239,9.3929,9.3818,9.3202,9.3202,9.325,9.3272,9.3272,9.3712,9.4189,9.3382,9.3015,9.2794,9.2024,9.1803,9.1803,9.1803,9.1803,9.184,9.195,9.2537,9.3308,9.4226,9.4483,9.4703,9.5511,9.5675,9.5878,9.6539,9.6685,9.6685,9.6685,9.6685,9.6685,9.6685,9.6685,9.6685,9.6685,9.6685,9.6685,9.6685,9.6685,9.6685,9.6685,9.6685,9.6685,9.6685,9.6685,9.6685,9.6685,9.6061,9.5401,9.4703,9.4556,9.4042,9.3125,9.2244,9.1803,9.1803,9.2537,9.2978,9.3125,9.3786,9.4556,4.8748,5.1488,5.3399,5.1826,5.3754,5.5412,5.3129,5.2656,5.2695,5.2741,5.3649,5.5759,6.0045,6.2831,6.7186,7.54,8.0351,8.5343,9.162,9.3492,9.5401,9.8704,10.0393,10.0907,9.9842,10.0393,10.0283,9.9108,9.7897,9.7236,9.7236,9.6502,9.6061,9.6061,9.5675,9.4923,9.3675,9.4042,9.3602,9.2391,9.2391,9.217,9.1803,9.1803,9.1803,9.184,9.2688,9.302,9.3072,9.3844,9.3949,9.3589,9.3589,9.3611,9.3578,9.3193,9.2988,9.2905,9.2537,9.2391,9.2317,9.1913,9.1803,9.1803,9.1803,9.1803,9.1803,9.1803,9.2097,9.2574,9.3418,9.3639,9.3859,9.4666,9.485,9.496,9.5327,9.5731,9.5914,9.5474,9.5768,9.6061,9.6061,9.6061,9.6208,9.6649,9.6685,9.6685,9.6685,9.6685,9.6685,9.6685,9.6685,9.6685,9.6685,9.6685,9.6502,9.6098,9.5675,9.5308,9.496,9.452,9.4336,9.4391,9.3565,9.3161,9.3161,9.3529,9.3969,9.441,9.4777,9.5401,4.7699,4.9999,5.2283,5.345,5.619,5.8287,5.7255,5.6695,5.6637,5.7348,5.8482,6.0318,6.3536,6.784,7.3817,8.2801,8.6757,9.0078,9.3969,9.4666,9.5951,9.9035,9.9402,9.9475,9.9695,9.9732,9.9071,9.7456,9.6759,9.6355,9.6135,9.5547,9.5217,9.5217,9.5034,9.4354,9.3125,9.2905,9.2464,9.1803,9.1803,9.1803,9.1803,9.1803,9.1803,9.1821,9.2468,9.2847,9.3067,9.3793,9.4102,9.4116,9.4292,9.4157,9.3764,9.3202,9.2502,9.1803,9.1803,9.1803,9.1803,9.1803,9.1803,9.1803,9.1803,9.1803,9.1803,9.1803,9.1803,9.195,9.2611,9.2794,9.3033,9.4043,9.4136,9.4117,9.4485,9.4889,9.5107,9.4666,9.507,9.5565,9.5749,9.5804,9.5988,9.6612,9.6685,9.6685,9.6685,9.6685,9.6685,9.6685,9.6685,9.6685,9.6685,9.6685,9.6355,9.5547,9.5694,9.5675,9.5492,9.4923,9.4887,9.5492,9.4703,9.4299,9.4299,9.4483,9.4887,9.5492,9.5675,9.6098,5.0947,5.3112,5.4363,5.4482,5.4262,5.5209,5.9844,5.9511,5.8969,6.1727,6.4227,6.6235,6.7272,7.4347,8.1514,8.6023,9.0702,9.4923,9.8227,9.9328,9.9879,10.0209,10.0209,9.9659,9.819,9.8063,9.7419,9.5785,9.5602,9.5254,9.452,9.441,9.4373,9.4373,9.3675,9.3235,9.3088,9.2281,9.184,9.1803,9.1803,9.1803,9.1803,9.1803,9.1803,9.1803,9.1839,9.2296,9.3067,9.3793,9.4102,9.417,9.4854,9.4292,9.3083,9.3019,9.2502,9.1803,9.1803,9.1803,9.1803,9.1803,9.1803,9.1803,9.1803,9.1803,9.1803,9.1803,9.1803,9.1803,9.1877,9.1877,9.2278,9.3829,9.3681,9.3584,9.4997,9.4809,9.4593,9.5273,9.5474,9.5749,9.6502,9.6612,9.6649,9.6685,9.6685,9.6685,9.6685,9.6685,9.6685,9.6685,9.6685,9.6685,9.6685,9.6685,9.6355,9.5566,9.6208,9.6282,9.5528,9.5418,9.5418,9.5492,9.4703,9.4299,9.4299,9.507,9.5418,9.5528,9.6282,9.6649,4.7834,5.0642,5.3518,5.4938,5.6901,5.934,6.2394,6.4358,6.6469,6.9641,7.1886,7.3803,7.5661,8.039,8.5306,8.9344,9.3235,9.6575,9.8814,9.9365,9.9548,9.9548,9.8668,9.7823,9.7199,9.6245,9.5401,9.4813,9.4299,9.4079,9.4299,9.3822,9.3565,9.3565,9.3272,9.2831,9.2281,9.195,9.1803,9.1803,9.1803,9.1803,9.1767,9.1289,9.1326,9.1803,9.1759,9.2196,9.3067,9.3793,9.4372,9.4854,9.5587,9.4963,9.3677,9.3677,9.287,9.1803,9.1803,9.1803,9.1803,9.1803,9.1803,9.1803,9.1803,9.1803,9.1803,9.1803,9.1803,9.1803,9.1803,9.1803,9.2093,9.3186,9.2863,9.2589,9.3686,9.3716,9.3492,9.3253,9.4042,9.485,9.5144,9.5621,9.6135,9.6612,9.6685,9.6685,9.6685,9.6685,9.6685,9.6685,9.6685,9.6685,9.6685,9.6685,9.6575,9.6282,9.6061,9.5822,9.5492,9.5492,9.5749,9.6245,9.5951,9.5804,9.5804,9.6098,9.6245,9.6245,9.6575,9.6685,4.6041,4.8443,5.1603,5.4411,5.8185,6.2456,6.6986,7.0021,7.3077,7.7336,7.8535,7.9381,8.1085,8.3801,8.6958,9.0482,9.4226,9.7273,9.8868,9.9108,9.9035,9.8741,9.753,9.6612,9.6355,9.5107,9.4189,9.3932,9.3418,9.3235,9.3492,9.2978,9.2684,9.2684,9.2427,9.217,9.1803,9.1546,9.1546,9.1803,9.1803,9.1657,9.14,9.0849,9.0776,9.1032,9.0977,9.1466,9.2311,9.305,9.3933,9.4903,9.5102,9.4588,9.375,9.375,9.2918,9.1803,9.1803,9.1803,9.1803,9.1803,9.1803,9.1803,9.1803,9.1803,9.1803,9.1803,9.1803,9.1803,9.1803,9.1803,9.2019,9.283,9.2382,9.2037,9.2847,9.2846,9.2611,9.2281,9.3125,9.4079,9.4593,9.5144,9.5749,9.6575,9.6685,9.6685,9.6685,9.6685,9.6685,9.6685,9.6685,9.6685,9.6685,9.6685,9.6685,9.6685,9.6171,9.5859,9.5859,9.5859,9.6135,9.6685,9.6685,9.6685,9.6685,9.6685,9.6685,9.6685,9.6685,9.6685,4.68,4.7361,4.8904,5.286,5.7248,6.3369,7.3924,7.6267,7.7958,8.4147,8.375,8.226,8.226,8.4205,8.6591,8.9033,9.3529,9.7236,9.8831,9.9071,9.8778,9.797,9.7163,9.6355,9.5528,9.474,9.3932,9.3161,9.3088,9.2721,9.184,9.1803,9.1803,9.1767,9.0996,9.0959,9.1767,9.0996,9.0996,9.1767,9.1767,9.1363,9.0592,9.0592,9.0134,8.94,8.94,8.984,9.0664,9.1367,9.2623,9.3989,9.3135,9.2897,9.2987,9.2987,9.2465,9.1803,9.1803,9.1803,9.1803,9.1803,9.1803,9.1803,9.1803,9.1803,9.1803,9.1803,9.1803,9.1803,9.1803,9.1803,9.2019,9.283,9.2382,9.2037,9.2847,9.2365,9.206,9.2941,9.3088,9.3602,9.5198,9.5455,9.5749,9.6575,9.6685,9.6685,9.6685,9.6685,9.6685,9.6685,9.6685,9.6685,9.6685,9.6685,9.6685,9.6685,9.6685,9.6685,9.6685,9.6685,9.6685,9.6685,9.6685,9.6685,9.6685,9.6685,9.6685,9.6685,9.6722,9.6722,4.5514,4.8104,5.1899,5.534,6.2544,7.069,7.791,7.8612,7.9729,8.6757,8.6803,8.5747,8.6334,8.6995,8.8096,8.995,9.34,9.6245,9.7273,9.7419,9.7126,9.6318,9.4997,9.4079,9.3859,9.3051,9.2427,9.2207,9.217,9.184,9.0996,9.0959,9.0702,9.0134,8.9877,8.9877,9.0097,8.9877,8.9877,9.0097,9.0097,9.028,9.0592,8.9987,8.962,8.9363,8.8776,8.8996,8.9801,9.0567,9.1482,9.2376,9.2089,9.2385,9.2913,9.2317,9.1946,9.1803,9.1803,9.1803,9.1803,9.1803,9.1803,9.1803,9.1803,9.1803,9.1803,9.1803,9.1803,9.1803,9.1803,9.1803,9.2019,9.283,9.2382,9.2037,9.2847,9.2365,9.1877,9.2134,9.2684,9.3272,9.3749,9.4299,9.474,9.496,9.5511,9.6061,9.6649,9.6685,9.6685,9.6685,9.6685,9.6685,9.6685,9.6685,9.6685,9.6685,9.6685,9.6685,9.6685,9.6685,9.6685,9.6685,9.6685,9.6685,9.6685,9.6685,9.6685,9.6722,9.7273,9.753,4.6177,4.9142,5.3468,5.9466,6.6729,7.4267,8.128,8.3571,8.5499,8.9934,8.929,8.8078,8.861,8.8426,8.872,9.0335,9.2831,9.485,9.5621,9.5731,9.5584,9.507,9.3896,9.3088,9.3088,9.2317,9.1657,9.1363,9.1326,9.0959,9.017,9.0097,8.9913,8.9436,8.9069,8.9069,8.94,8.9069,8.9069,8.94,8.9069,8.8996,8.9143,8.8666,8.8262,8.7986,8.7802,8.8005,8.8498,8.9263,9.007,9.0749,9.0398,9.0981,9.1943,9.1091,9.0994,9.1326,9.1326,9.1326,9.1363,9.1693,9.1803,9.1803,9.1803,9.1803,9.1803,9.1803,9.1803,9.1803,9.1803,9.1803,9.1912,9.2417,9.2159,9.1929,9.2417,9.2142,9.1803,9.1803,9.2207,9.2684,9.3051,9.3492,9.4042,9.4666,9.5474,9.6171,9.6649,9.6685,9.6685,9.6685,9.6685,9.6685,9.6685,9.6685,9.6685,9.6685,9.6685,9.6685,9.6685,9.6685,9.6685,9.6685,9.6685,9.6685,9.6685,9.6685,9.6869,9.7199,9.7676,9.808,4.8024,5.0446,5.4324,6.4447,7.0516,7.6166,8.4471,8.9784,9.2978,9.2905,9.1198,8.973,8.973,8.9087,8.9014,9.0592,9.2097,9.3382,9.4189,9.4226,9.4189,9.4189,9.3492,9.2978,9.2978,9.2207,9.14,9.0665,9.0482,9.006,8.9326,8.9143,8.9069,8.9069,8.828,8.828,8.9069,8.828,8.828,8.9069,8.828,8.7509,8.6757,8.6885,8.6444,8.571,8.6481,8.6757,8.6831,8.7655,8.8463,8.9106,8.839,8.9087,9.0391,8.9583,8.9803,9.0482,9.0482,9.0482,9.0629,9.1436,9.1693,9.1693,9.1767,9.173,9.1693,9.1693,9.1693,9.1693,9.1693,9.173,9.1803,9.1803,9.1803,9.1803,9.1803,9.1803,9.1803,9.1803,9.1803,9.206,9.2868,9.2978,9.3529,9.5144,9.6098,9.6612,9.6685,9.6685,9.6685,9.6685,9.6685,9.6685,9.6685,9.6685,9.6685,9.6685,9.6685,9.6685,9.6685,9.6685,9.6685,9.6685,9.6685,9.6685,9.6685,9.6685,9.7126,9.7916,9.799,9.8447,4.8514,5.2113,5.7433,6.7146,7.6801,8.508,8.951,9.1326,9.1913,9.1289,9.1767,9.2317,9.2317,9.162,9.1363,9.2391,9.2868,9.3382,9.4189,9.3749,9.3345,9.3345,9.2611,9.206,9.206,9.1326,9.0812,9.0629,8.9417,8.8647,8.8463,8.7252,8.6554,8.6554,8.5783,8.5747,8.6554,8.5783,8.5783,8.6554,8.5747,8.527,8.5159,8.5783,8.56,8.4866,8.5049,8.5123,8.5196,8.5967,8.6775,8.7491,8.7325,8.8225,8.9546,8.8739,8.8959,8.9657,8.9657,8.9657,8.9803,9.0592,9.0849,9.0996,9.162,9.1363,9.0849,9.0849,9.0849,9.0849,9.0849,9.1326,9.1803,9.1803,9.1803,9.1803,9.1803,9.1803,9.1803,9.1803,9.1803,9.184,9.206,9.206,9.2648,9.4299,9.5254,9.5988,9.6612,9.6685,9.6685,9.6685,9.6685,9.6685,9.6685,9.6685,9.6685,9.6685,9.6685,9.6685,9.6685,9.6685,9.6685,9.6685,9.6685,9.6685,9.6685,9.6685,9.7126,9.7897,9.8557,9.9255,4.9701,5.4505,6.1215,7.3093,8.1879,8.8206,9.0665,9.151,9.1693,9.1253,9.1877,9.2464,9.2464,9.2097,9.195,9.2391,9.2464,9.2611,9.3051,9.2721,9.2464,9.2464,9.206,9.1657,9.1253,9.0501,8.9693,8.8923,8.7729,8.6885,8.6481,8.5673,8.5233,8.5233,8.4829,8.4792,8.5233,8.4792,8.4792,8.5196,8.4022,8.303,8.237,8.3948,8.4205,8.3471,8.3875,8.4022,8.4132,8.5306,8.604,8.6481,8.6831,8.7748,8.872,8.7912,8.8133,8.8812,8.8812,8.8812,8.8959,8.9767,9.0024,9.0097,9.0519,9.0354,9.0024,9.0024,9.0024,9.0097,9.0501,9.0922,9.1326,9.1693,9.1803,9.1803,9.1803,9.1803,9.1803,9.1803,9.1803,9.1803,9.1803,9.2134,9.2831,9.4116,9.4997,9.5785,9.6612,9.6685,9.6685,9.6685,9.6685,9.6685,9.6685,9.6685,9.6685,9.6685,9.6685,9.6685,9.6685,9.6685,9.6685,9.6685,9.6685,9.6685,9.6685,9.6685,9.7126,9.7916,9.8337,9.8961,5.0333,5.7058,6.55,7.8532,8.4792,8.8206,8.9821,9.0812,9.14,9.14,9.162,9.1767,9.162,9.1583,9.1546,9.14,9.14,9.14,9.14,9.14,9.14,9.14,9.14,9.1106,9.0482,8.9546,8.8372,8.6904,8.5783,8.4903,8.4205,8.3911,8.3838,8.3985,8.3985,8.3985,8.3985,8.3985,8.3985,8.3948,8.248,8.1101,7.989,8.1856,8.2406,8.1819,8.248,8.2757,8.2904,8.4499,8.5159,8.527,8.6224,8.7068,8.7692,8.7031,8.7288,8.7986,8.7986,8.7986,8.8133,8.8923,8.9179,8.9216,8.9363,8.929,8.9179,8.9179,8.9179,8.9363,9.017,9.0501,9.0812,9.162,9.1803,9.1803,9.1803,9.1803,9.1803,9.1803,9.1803,9.1803,9.1803,9.2537,9.3345,9.3969,9.4923,9.5749,9.6428,9.6612,9.6649,9.6502,9.6502,9.6502,9.6502,9.6502,9.6539,9.6685,9.6685,9.6685,9.6685,9.6685,9.6685,9.6685,9.6685,9.6685,9.6685,9.6685,9.7126,9.7916,9.7916,9.8337,4.8263,5.9012,7.0663,7.8222,8.3157,8.6518,8.8133,8.916,8.973,8.973,9.0849,9.1583,9.0886,9.0776,9.0537,8.984,8.973,8.973,8.973,8.973,8.973,8.973,8.973,8.9693,8.9583,8.8189,8.6958,8.604,8.3911,8.2627,8.2517,8.1211,8.0755,8.1452,8.1489,8.1489,8.1489,8.1489,8.1489,8.1489,8.0571,8.0,7.9816,8.0147,8.022,8.0147,8.022,8.0293,8.0404,8.2003,8.2663,8.281,8.4315,8.5416,8.6114,8.6004,8.6481,8.7178,8.7178,8.7178,8.7271,8.8096,8.8353,8.85,8.9179,8.8923,8.8353,8.8353,8.8353,8.8536,8.9363,9.006,9.0812,9.162,9.1803,9.1803,9.1803,9.1803,9.1803,9.1803,9.1803,9.1803,9.1803,9.2537,9.3125,9.3235,9.4538,9.5528,9.5639,9.6282,9.6428,9.5712,9.5639,9.5639,9.5639,9.5639,9.5951,9.6649,9.6685,9.6685,9.6685,9.6685,9.6685,9.6685,9.6685,9.6685,9.6685,9.6685,9.7126,9.7916,9.7916,9.8337,5.2801,6.1077,6.9302,7.7157,8.1452,8.4315,8.6371,8.7472,8.8042,8.8042,8.861,8.9271,8.984,8.9564,8.9307,8.9363,8.9033,8.8886,8.9326,8.94,8.94,8.94,8.8996,8.8556,8.8078,8.617,8.4646,8.3838,8.1982,8.0881,8.0881,8.0183,7.9963,8.0314,8.0314,8.0314,8.0314,8.0314,8.0094,7.9653,7.9286,7.8883,7.8405,7.8405,7.8919,7.9816,7.9816,7.9816,7.989,8.1048,8.1525,8.1709,8.3324,8.4132,8.4499,8.4976,8.5343,8.571,8.6187,8.6334,8.6444,8.7288,8.7545,8.7582,8.7932,8.7785,8.7545,8.7545,8.7545,8.7729,8.8536,8.9014,8.9454,9.0244,9.0482,9.0592,9.1033,9.1473,9.1803,9.1803,9.1803,9.1947,9.2399,9.242,9.2683,9.3566,9.3969,9.4464,9.5382,9.5804,9.5914,9.5528,9.5492,9.5492,9.5492,9.5107,9.5364,9.6612,9.6282,9.6245,9.6685,9.6685,9.6685,9.6685,9.6685,9.6685,9.6685,9.6685,9.6869,9.7236,9.7236,9.7419,5.409,5.9547,6.4705,7.3347,7.7965,8.1012,8.3654,8.5049,8.5783,8.5783,8.5783,8.6151,8.7344,8.7582,8.7729,8.8115,8.7692,8.7509,8.8078,8.8189,8.8189,8.8189,8.7655,8.6958,8.617,8.4262,8.27,8.1689,8.0293,7.9412,7.9176,7.914,7.914,7.914,7.9376,7.9412,7.9176,7.914,7.8846,7.8259,7.8259,7.7913,7.7289,7.7289,7.7986,7.914,7.914,7.914,7.9213,8.0057,8.0388,8.0534,8.1929,8.272,8.3161,8.3765,8.4242,8.4682,8.527,8.549,8.56,8.6187,8.6407,8.6407,8.6407,8.6554,8.6701,8.6701,8.6848,8.7215,8.7986,8.8206,8.839,8.9216,8.94,8.962,9.0445,9.1216,9.1839,9.2053,9.2106,9.2365,9.3124,9.2777,9.2754,9.3726,9.3595,9.3767,9.4759,9.507,9.5144,9.4905,9.4868,9.4978,9.518,9.4446,9.4777,9.6575,9.5932,9.5859,9.6685,9.6685,9.6685,9.6685,9.6685,9.6685,9.6685,9.6685,9.6685,9.6685,9.6685,9.6685,4.7062,5.1766,5.7157,6.516,7.1248,7.613,7.9376,8.1321,8.2443,8.2443,8.2443,8.248,8.2553,8.4389,8.5673,8.4976,8.4829,8.4792,8.4829,8.4866,8.4866,8.4866,8.4829,8.4462,8.3675,8.2774,8.1599,8.0036,7.9155,7.8295,7.7472,7.7436,7.7436,7.7436,7.8222,7.8259,7.7436,7.7436,7.7399,7.7362,7.7362,7.7362,7.7289,7.7289,7.7362,7.7436,7.7436,7.7436,7.7509,7.8369,7.8736,7.8809,7.9669,8.0918,8.226,8.2296,8.3287,8.4609,8.4646,8.4646,8.4682,8.4719,8.4719,8.4719,8.4719,8.527,8.5857,8.5857,8.6407,8.7215,8.7986,8.8206,8.839,8.9216,8.94,8.962,9.0445,9.1216,9.2037,9.2798,9.2923,9.3155,9.3921,9.4019,9.3764,9.3152,9.3684,9.3931,9.3309,9.3896,9.4079,9.3308,9.3235,9.3529,9.4299,9.3639,9.4189,9.6539,9.5932,9.5859,9.6685,9.6685,9.6685,9.6685,9.6685,9.6685,9.6685,9.6685,9.6685,9.6685,9.6685,9.6685,4.6109,4.9412,5.3529,6.1613,6.6957,7.1248,7.5043,7.798,7.9874,7.9874,8.0293,8.0661,8.0661,8.1782,8.2774,8.303,8.2627,8.248,8.2994,8.3067,8.3067,8.3067,8.259,8.2186,8.1893,8.0645,7.9653,7.9066,7.8259,7.7619,7.7326,7.7289,7.7289,7.7289,7.7582,7.7619,7.7289,7.7289,7.7289,7.7289,7.7289,7.7289,7.7289,7.7289,7.7289,7.7289,7.7289,7.7289,7.7326,7.7656,7.7766,7.7839,7.8699,7.936,7.9947,8.0477,8.1028,8.1599,8.2113,8.2296,8.237,8.2884,8.3398,8.3821,8.3821,8.4389,8.5013,8.5013,8.5233,8.5637,8.6444,8.6664,8.6848,8.7675,8.8225,8.872,8.9014,9.0477,9.1833,9.212,9.3012,9.3949,9.4693,9.4033,9.3477,9.3662,9.3098,9.277,9.3052,9.3345,9.3418,9.3125,9.3088,9.3235,9.3529,9.2758,9.3088,9.5034,9.4887,9.5107,9.5914,9.6428,9.6685,9.6685,9.6685,9.6685,9.6685,9.6685,9.6685,9.6685,9.6685,9.6685,4.4165,4.6495,5.0019,5.7959,6.1857,6.5301,7.1146,7.3964,7.5652,7.6717,7.7818,7.8626,7.8919,7.9396,8.0131,8.1195,8.0938,8.0791,8.1321,8.1379,8.1379,8.1379,8.0901,8.0498,8.0241,7.9213,7.8479,7.8185,7.7619,7.7289,7.7289,7.7289,7.7289,7.7289,7.7289,7.7289,7.7289,7.7289,7.7289,7.7289,7.7289,7.7289,7.7289,7.7289,7.7289,7.7289,7.7289,7.7289,7.7289,7.7289,7.7289,7.7362,7.7949,7.8332,7.8662,7.9192,7.9559,7.989,8.0388,8.0608,8.0681,8.1195,8.1746,8.2186,8.2186,8.2957,8.3801,8.3801,8.4168,8.4719,8.527,8.56,8.593,8.6481,8.7215,8.7889,8.8123,8.9818,9.1463,9.1979,9.2937,9.3991,9.5008,9.4184,9.3462,9.3692,9.2875,9.231,9.2611,9.2648,9.2648,9.2648,9.2648,9.2794,9.3088,9.2281,9.2501,9.4189,9.4299,9.4666,9.5474,9.6282,9.6685,9.6685,9.6685,9.6685,9.6685,9.6685,9.6685,9.6685,9.6685,9.6685,0.0,0.0,0.0,5.3735,5.5728,5.826,6.7593,6.9155,6.9596,7.2863,7.4771,7.6166,7.7032,7.7215,7.7766,7.9412,7.9706,7.9743,7.9743,7.9743,7.9706,7.9706,7.9706,7.9376,7.8552,7.8479,7.8148,7.7289,7.7252,7.7252,7.7252,7.7289,7.7289,7.7289,7.7289,7.7289,7.7289,7.7289,7.7252,7.7252,7.7252,7.7252,7.7252,7.7252,7.7252,7.7252,7.7252,7.7252,7.7289,7.7289,7.7289,7.7289,7.7289,7.7803,7.8552,7.8552,7.9082,7.9743,7.9743,7.9743,7.9743,7.9743,7.9743,7.9779,7.9779,8.0881,8.215,8.215,8.3324,8.4535,8.4572,8.5159,8.5764,8.5783,8.6407,8.716,8.7923,8.9343,9.0893,9.2456,9.2781,9.3348,9.4908,9.4541,9.3821,9.3114,9.2971,9.2682,9.1893,9.1803,9.1803,9.1803,9.1803,9.2134,9.2978,9.2281,9.2501,9.4116,9.4263,9.4649,9.542,9.6245,9.6685,9.6685,9.6685,9.6685,9.6685,9.6685,9.6685,9.6685,9.6685,9.6685,4.0291,0.0,0.0,0.0,0.0,0.0,5.9138,6.1667,6.4016,6.8435,7.0183,7.1688,7.4221,7.516,7.5711,7.6203,7.7215,7.7986,7.7986,7.7986,7.7781,7.7194,7.7121,7.679,7.6004,7.5931,7.5821,7.5564,7.6078,7.6423,7.6423,7.6995,7.7289,7.7289,7.6738,7.6702,7.7289,7.6702,7.6423,7.6423,7.6423,7.6114,7.5564,7.5564,7.5564,7.5564,7.5564,7.5894,7.6497,7.7069,7.7289,7.7289,7.7289,7.7436,7.7656,7.7656,7.7803,7.7986,7.7986,7.7986,7.7986,7.7986,7.8405,7.8919,7.8919,8.0057,8.1342,8.1342,8.2076,8.2994,8.3564,8.4352,8.5086,8.5654,8.5967,8.6478,8.7812,8.8464,8.9377,9.1528,9.2847,9.3755,9.4299,9.3793,9.3233,9.3035,9.2481,9.2036,9.184,9.1803,9.1803,9.1803,9.1803,9.1913,9.2134,9.195,9.1987,9.2464,9.3639,9.4373,9.4593,9.5951,9.6685,9.6685,9.6685,9.6685,9.6685,9.6685,9.6685,9.6685,9.6685,9.6685,0.0,0.0,0.0,0.0,0.0,0.0,5.4869,5.6859,5.8877,6.4103,6.6072,6.776,7.0674,7.1835,7.2628,7.3289,7.4463,7.5527,7.6188,7.6298,7.6114,7.5652,7.5616,7.5432,7.494,7.4903,7.4903,7.4903,7.5322,7.5616,7.5616,7.6041,7.6298,7.6298,7.5821,7.5821,7.6298,7.5821,7.5616,7.5616,7.5616,7.5344,7.4903,7.4903,7.4903,7.4903,7.4903,7.516,7.5652,7.6114,7.6702,7.7289,7.7289,7.7289,7.7289,7.7289,7.7289,7.7289,7.7289,7.7289,7.7289,7.7289,7.7656,7.8075,7.8075,7.8993,8.0057,8.0388,8.1305,8.2296,8.2774,8.3508,8.4315,8.5123,8.5563,8.622,8.7774,8.8107,8.8682,9.0699,9.1856,9.262,9.303,9.2758,9.2519,9.2519,9.2089,9.1803,9.1803,9.1803,9.1803,9.1803,9.1803,9.1803,9.1803,9.1803,9.1803,9.1803,9.3051,9.3932,9.4299,9.5511,9.6355,9.6685,9.6685,9.6685,9.6685,9.6685,9.6685,9.6685,9.6685,9.6685,0.0,0.0,0.0,0.0,0.0,0.0,5.2773,5.3523,5.4132,5.9428,6.179,6.3699,6.6269,6.7577,6.8701,7.0132,7.127,7.2606,7.45,7.4757,7.4683,7.45,7.45,7.4463,7.439,7.4353,7.4353,7.4353,7.4536,7.4683,7.4757,7.483,7.4903,7.4903,7.472,7.472,7.4903,7.461,7.4536,7.461,7.461,7.4573,7.45,7.4573,7.461,7.461,7.461,7.4683,7.4757,7.4757,7.5711,7.7179,7.7179,7.7215,7.7289,7.7289,7.7289,7.7289,7.7289,7.7289,7.7289,7.7289,7.7289,7.7289,7.7289,7.7913,7.8772,7.9669,8.0954,8.2076,8.2186,8.2737,8.3491,8.4389,8.5159,8.611,8.7737,8.8031,8.8399,8.9861,9.0264,9.0615,9.1445,9.1617,9.1693,9.1803,9.1803,9.1803,9.1803,9.1803,9.1803,9.1803,9.1803,9.1803,9.1803,9.1803,9.1803,9.1803,9.2684,9.3565,9.4263,9.518,9.5969,9.6685,9.6685,9.6685,9.6685,9.6685,9.6685,9.6685,9.6685,9.6685,0.0,0.0,0.0,0.0,0.0,0.0,4.7108,4.8261,5.0141,5.3225,5.4656,5.6444,6.0187,6.2572,6.4077,6.4407,6.6806,6.9903,7.3413,7.3927,7.345,7.2151,7.2004,7.1747,7.1101,7.1027,7.1027,7.1027,7.2239,7.3266,7.3891,7.4551,7.4903,7.4903,7.3619,7.3582,7.4903,7.2958,7.2334,7.2973,7.2973,7.2628,7.2004,7.2665,7.2973,7.2973,7.2973,7.334,7.3927,7.3927,7.4882,7.635,7.635,7.6738,7.7289,7.7289,7.7289,7.7289,7.7289,7.7289,7.7289,7.7289,7.7289,7.7289,7.7289,7.7913,7.8883,8.0351,8.1012,8.1379,8.2039,8.2333,8.281,8.4242,8.4719,8.5447,8.7626,8.7651,8.7481,8.8369,8.907,8.9809,9.0649,9.0828,9.1069,9.1693,9.1803,9.1803,9.1803,9.1803,9.1803,9.1803,9.1803,9.1803,9.1803,9.1803,9.1803,9.1803,9.3235,9.4153,9.4299,9.5694,9.6539,9.6685,9.6685,9.6685,9.6685,9.6685,9.6685,9.6685,9.6685,9.6685,0.0,0.0,0.0,4.4046,0.0,0.0,0.0,4.6595,4.7462,5.0729,5.1059,5.1856,5.5526,5.7214,5.8535,6.0162,6.2475,6.5204,6.8471,7.0293,7.1027,7.0206,6.9743,6.9339,6.8949,6.8912,6.9082,6.9486,7.0624,7.1468,7.1872,7.2275,7.2496,7.2496,7.1725,7.1688,7.2496,7.1321,7.0917,7.1284,7.1284,7.1101,7.0734,7.1527,7.1894,7.1931,7.2349,7.2716,7.3083,7.3083,7.3817,7.4955,7.5359,7.5983,7.6702,7.6702,7.6959,7.7289,7.7289,7.7289,7.7289,7.7289,7.7289,7.7289,7.7289,7.7913,7.8772,7.958,8.0094,8.0571,8.1379,8.1489,8.1819,8.3581,8.4499,8.5351,8.6659,8.7258,8.7667,8.8015,8.8718,8.9481,9.0366,9.1253,9.1919,9.2325,9.2036,9.1803,9.1803,9.1803,9.1803,9.1803,9.1803,9.1803,9.1803,9.1803,9.1803,9.1803,9.3015,9.3859,9.4263,9.5474,9.6282,9.6685,9.6685,9.6685,9.6685,9.6685,9.6685,9.6685,9.6685,9.6906,0.0,0.0,0.0,0.0,0.0,4.5796,0.0,0.0,0.0,4.882,4.8453,4.8443,5.1269,5.204,5.3104,5.5721,5.7886,5.9905,6.1741,6.4494,6.6696,6.76,6.7136,6.6819,6.7003,6.6856,6.7173,6.8114,6.8678,6.9155,6.9596,6.9779,6.9926,7.011,6.9963,6.9926,7.011,6.9779,6.9706,6.9853,6.9853,6.9853,6.9889,7.0683,7.105,7.1101,7.1866,7.218,7.2194,7.248,7.2909,7.3468,7.4338,7.516,7.5873,7.5873,7.6371,7.7069,7.7069,7.7179,7.7289,7.7289,7.7289,7.7289,7.7289,7.7803,7.8369,7.8552,7.9066,7.9743,8.0571,8.0718,8.1085,8.2774,8.4242,8.5394,8.5909,8.7122,8.8107,8.8107,8.8772,8.9611,9.0384,9.1625,9.2588,9.2723,9.2229,9.1803,9.1803,9.1803,9.1803,9.1803,9.1803,9.1803,9.1803,9.1803,9.1803,9.1803,9.2611,9.3455,9.4263,9.5217,9.6061,9.6685,9.6685,9.6685,9.6685,9.6685,9.6685,9.6685,9.6869,9.7273,0.0,0.0,0.0,0.0,4.8863,0.0,0.0,0.0,4.6351,4.4681,0.0,4.5434,4.6544,0.0,0.0,4.9324,5.2601,5.495,5.4499,5.5978,5.8694,6.2976,6.3417,6.3649,6.4433,6.3796,6.4004,6.5582,6.5118,6.5718,6.7847,6.8641,6.9376,7.0073,6.9412,6.9376,7.0073,6.8692,6.8311,6.9032,6.9032,6.9032,6.9082,6.9853,7.022,7.0262,7.0828,7.1082,7.1157,7.2442,7.2674,7.2394,7.3437,7.4331,7.505,7.505,7.5542,7.624,7.624,7.6702,7.7289,7.7289,7.7289,7.7289,7.7289,7.7362,7.7619,7.8369,7.8662,7.8919,7.9743,8.0424,8.1195,8.2113,8.3544,8.5083,8.6456,8.745,8.8107,8.8107,8.9288,9.0303,9.045,9.0683,9.1061,9.1834,9.1839,9.1803,9.1803,9.1803,9.1803,9.1803,9.1803,9.1803,9.1803,9.1803,9.1803,9.1803,9.2611,9.3455,9.4263,9.5768,9.6612,9.6685,9.6685,9.6685,9.6685,9.6685,9.6685,9.6722,9.7419,9.7787,0.0,0.0,0.0,0.0,0.0,0.0,4.5967,0.0,4.5002,0.0,0.0,0.0,0.0,0.0,0.0,0.0,4.9434,5.1086,5.172,5.238,5.4436,5.8792,5.8499,5.8437,5.9758,6.0811,6.1508,6.1728,6.2328,6.3282,6.4787,6.6096,6.6976,6.732,6.743,6.7467,6.732,6.6659,6.6696,6.7504,6.7504,6.776,6.8214,6.8856,6.9406,6.9914,7.045,7.0927,7.1411,7.2004,7.1899,7.1492,7.2399,7.3379,7.4184,7.4184,7.4698,7.5469,7.5946,7.6313,7.6665,7.7142,7.7289,7.7289,7.7289,7.7289,7.7399,7.7729,7.7839,7.8133,7.9449,7.9323,7.9417,8.1672,8.27,8.366,8.5212,8.6521,8.7563,8.7995,8.8936,8.9765,9.0124,9.0755,9.1317,9.168,9.1794,9.1803,9.1803,9.1803,9.1803,9.1803,9.1803,9.1803,9.1803,9.1803,9.2024,9.2537,9.3345,9.4153,9.496,9.5658,9.6208,9.6685,9.6685,9.6685,9.6685,9.6685,9.6685,9.6722,9.753,9.8154,4.9082,0.0,0.0,0.0,0.0,0.0,0.0,0.0,0.0,0.0,0.0,0.0,0.0,0.0,0.0,0.0,0.0,4.8223,4.903,4.914,5.0618,5.4682,5.473,5.5023,5.6627,5.7997,5.8792,5.8866,5.9355,6.0346,6.2059,6.349,6.4494,6.4971,6.5742,6.5888,6.5288,6.5288,6.5582,6.6182,6.6182,6.6476,6.7053,6.7778,6.8438,6.9105,6.998,7.073,7.1289,7.1692,7.1508,7.1081,7.1743,7.2395,7.2986,7.3265,7.3891,7.4661,7.5249,7.5579,7.5909,7.6702,7.6959,7.6995,7.7252,7.7289,7.7289,7.7289,7.7289,7.7582,7.8809,7.8405,7.8316,8.0901,8.1856,8.2692,8.4481,8.5924,8.7116,8.7958,8.8489,8.8898,8.9159,9.0423,9.1439,9.1697,9.1771,9.1803,9.1803,9.1803,9.1803,9.1803,9.1803,9.1803,9.1803,9.1803,9.206,9.2721,9.3712,9.4556,9.5144,9.5382,9.5859,9.6685,9.6685,9.6685,9.6685,9.6685,9.6685,9.6722,9.775,9.8557,0.0,5.3147,0.0,5.0419,0.0,0.0,0.0,0.0,4.7719,0.0,0.0,0.0,0.0,0.0,0.0,0.0,0.0,0.0,0.0,4.4883,4.6425,5.0498,5.3004,5.5023,5.6627,5.5464,5.5537,5.785,5.5904,5.6345,6.0272,6.1263,6.245,6.4103,6.4934,6.5325,6.5288,6.5288,6.5288,6.5325,6.5325,6.5362,6.5424,6.6738,6.7356,6.7463,6.9332,7.0116,7.0264,7.1635,7.185,7.1336,7.1676,7.1486,7.1119,7.2162,7.3046,7.3744,7.378,7.4294,7.505,7.5873,7.613,7.6276,7.7069,7.7289,7.7289,7.7289,7.7289,7.7326,7.7362,7.7949,7.8772,7.9669,8.1064,8.2833,8.5098,8.6259,8.7116,8.7958,8.8122,8.7914,8.7237,8.9004,9.0806,9.1653,9.1785,9.1803,9.1803,9.1803,9.1803,9.1803,9.1803,9.1803,9.1803,9.1803,9.1803,9.184,9.3382,9.4299,9.4336,9.5107,9.5859,9.6685,9.6685,9.6685,9.6685,9.6685,9.6685,9.6722,9.8337,9.9071,5.3448,5.4857,5.5377,5.2658,5.1169,4.9444,0.0,0.0,0.0,0.0,0.0,0.0,0.0,0.0,0.0,0.0,0.0,0.0,0.0,4.3901,4.4819,4.7278,4.9747,5.0986,5.0425,5.1379,5.2123,5.2428,5.2685,5.3885,5.6308,5.9208,6.108,6.163,6.3503,6.4237,6.3637,6.3637,6.3943,6.4494,6.4494,6.4942,6.5775,6.6042,6.696,6.8309,6.8777,6.9594,7.0683,7.1158,7.1014,7.053,7.0825,7.0608,7.0239,7.1315,7.1857,7.2275,7.334,7.4588,7.5726,7.6019,7.646,7.6922,7.7215,7.7289,7.7289,7.7289,7.7289,7.7436,7.7986,7.7949,7.8206,8.0131,8.0608,8.1402,8.4304,8.518,8.5754,8.712,8.7361,8.7278,8.7029,8.8559,8.986,9.0187,9.1106,9.1803,9.1803,9.1803,9.1803,9.1803,9.1803,9.1803,9.1803,9.2317,9.2427,9.184,9.2868,9.3529,9.3529,9.4263,9.507,9.5914,9.6428,9.6942,9.7493,9.7493,9.775,9.83,9.8851,9.9108,5.3864,5.4989,5.5489,5.3654,5.2407,5.0802,4.7498,4.8673,4.9921,0.0,0.0,0.0,0.0,0.0,0.0,0.0,0.0,0.0,0.0,4.3506,4.3873,4.4938,4.6957,4.8086,4.7599,4.87,4.9407,4.916,5.0105,5.1499,5.3445,5.6822,5.9098,5.993,6.2071,6.3062,6.2793,6.2793,6.3086,6.3649,6.3649,6.418,6.5158,6.5472,6.6453,6.7976,6.8272,6.9007,7.0014,7.0014,6.9983,6.9924,6.9692,6.9601,6.9691,7.0857,7.149,7.1931,7.323,7.4368,7.5322,7.5909,7.6445,7.6922,7.7215,7.7289,7.7436,7.8023,7.7766,7.7582,7.8736,7.8185,7.7839,8.0057,8.0167,8.0587,8.3544,8.4389,8.4976,8.6334,8.6794,8.6978,8.6978,8.8078,8.9143,8.962,9.0886,9.1803,9.1803,9.1803,9.1803,9.1803,9.1803,9.1803,9.1803,9.2611,9.2868,9.2281,9.3051,9.3529,9.3529,9.4299,9.5364,9.674,9.6722,9.753,9.9201,9.832,9.8154,9.8668,9.8961,9.9108]}]]